[[{"header":{"parameterUnit":"m.s-1","parameterCategory":1,"la1":31.0,"la2":29.5877,"lo1":-88.7671,"lo2":-86.6584,"dx":0.0162,"dy":0.0185,"nx":115,"ny":88,"refTime":"2023-02-05T00:00:00:Z","depth":0,"parameterNumber":2,"parameterNumberName":"U-component_of_WINDS"},"data":[0.0,0.0,0.0,0.0,0.0,0.0,0.0,0.0,0.0,0.0,0.0,0.0,0.0,0.0,0.0,0.0,0.0,0.0,0.0,0.0,0.0,0.0,0.0,0.0,0.0,0.0,0.0,0.0,0.0,0.0,0.0,0.0,0.0,0.0,0.0,0.0,0.0,0.0,0.0,0.0,0.0,0.0,0.0,0.0,0.0,0.0,0.0,0.0,0.0,0.0,0.0,0.0,0.0,0.0,0.0,0.0,0.0,0.0,0.0,0.0,0.0,0.0,0.0,0.0,0.0,0.0,0.0,0.0,0.0,0.0,0.0,0.0,0.0,0.0,0.0,0.0,0.0,0.0,0.0,0.0,0.0,0.0,0.0,0.0,0.0,0.0,0.0,0.0,0.0,0.0,0.0,0.0,0.0,0.0,0.0,0.0,0.0,0.0,0.0,0.0,0.0,0.0,0.0,0.0,0.0,0.0,0.0,0.0,0.0,0.0,0.0,0.0,0.0,0.0,0.0,0.0,0.0,0.0,0.0,0.0,0.0,0.0,0.0,0.0,0.0,0.0,0.0,0.0,0.0,0.0,0.0,0.0,0.0,0.0,0.0,0.0,0.0,0.0,0.0,0.0,0.0,0.0,0.0,0.0,0.0,0.0,0.0,0.0,0.0,0.0,0.0,0.0,0.0,0.0,0.0,0.0,0.0,0.0,0.0,0.0,0.0,0.0,0.0,0.0,0.0,0.0,0.0,0.0,0.0,0.0,0.0,0.0,0.0,0.0,0.0,0.0,0.0,0.0,0.0,0.0,0.0,0.0,0.0,0.0,0.0,0.0,0.0,0.0,0.0,0.0,0.0,0.0,0.0,0.0,0.0,0.0,0.0,0.0,0.0,0.0,0.0,0.0,0.0,0.0,0.0,0.0,0.0,0.0,0.0,0.0,0.0,0.0,0.0,0.0,0.0,0.0,0.0,0.0,0.0,0.0,0.0,0.0,0.0,0.0,0.0,0.0,0.0,0.0,0.0,0.0,0.0,0.0,0.0,0.0,0.0,0.0,0.0,0.0,0.0,0.0,0.0,0.0,0.0,0.0,0.0,0.0,0.0,0.0,0.0,0.0,0.0,0.0,0.0,0.0,0.0,0.0,0.0,0.0,0.0,0.0,0.0,0.0,0.0,0.0,0.0,0.0,0.0,0.0,0.0,0.0,0.0,0.0,0.0,0.0,0.0,0.0,0.0,0.0,0.0,0.0,0.0,0.0,0.0,0.0,0.0,0.0,0.0,0.0,0.0,0.0,0.0,0.0,0.0,0.0,0.0,0.0,0.0,0.0,0.0,0.0,0.0,0.0,0.0,0.0,0.0,0.0,0.0,0.0,0.0,0.0,0.0,0.0,0.0,0.0,0.0,0.0,0.0,0.0,0.0,0.0,0.0,0.0,0.0,0.0,0.0,0.0,0.0,0.0,0.0,0.0,0.0,0.0,0.0,0.0,0.0,0.0,0.0,0.0,0.0,0.0,0.0,0.0,0.0,0.0,0.0,0.0,0.0,0.0,0.0,0.0,0.0,0.0,0.0,0.0,0.0,0.0,0.0,0.0,0.0,0.0,0.0,0.0,0.0,0.0,0.0,0.0,0.0,0.0,0.0,0.0,0.0,0.0,0.0,0.0,0.0,0.0,0.0,0.0,0.0,0.0,0.0,0.0,0.0,0.0,0.0,0.0,0.0,0.0,0.0,0.0,0.0,0.0,0.0,0.0,0.0,0.0,0.0,0.0,0.0,0.0,0.0,0.0,0.0,0.0,0.0,0.0,0.0,0.0,0.0,0.0,0.0,0.0,0.0,0.0,0.0,0.0,0.0,0.0,0.0,0.0,0.0,0.0,0.0,0.0,0.0,0.0,0.0,0.0,0.0,0.0,0.0,0.0,0.0,0.0,0.0,0.0,0.0,0.0,0.0,0.0,0.0,0.0,0.0,0.0,0.0,0.0,0.0,0.0,0.0,0.0,0.0,0.0,0.0,0.0,0.0,0.0,0.0,0.0,0.0,0.0,0.0,0.0,0.0,0.0,0.0,0.0,0.0,0.0,0.0,0.0,0.0,0.0,0.0,0.0,0.0,0.0,0.0,0.0,0.0,0.0,0.0,0.0,0.0,0.0,0.0,0.0,0.0,0.0,0.0,0.0,0.0,0.0,0.0,0.0,0.0,0.0,0.0,0.0,0.0,0.0,0.0,0.0,0.0,0.0,0.0,0.0,0.0,0.0,0.0,0.0,0.0,0.0,0.0,0.0,0.0,0.0,0.0,0.0,0.0,0.0,0.0,0.0,0.0,0.0,0.0,0.0,0.0,0.0,0.0,0.0,0.0,0.0,0.0,0.0,0.0,0.0,0.0,0.0,0.0,0.0,0.0,0.0,0.0,0.0,0.0,0.0,0.0,0.0,0.0,0.0,0.0,0.0,0.0,0.0,0.0,0.0,0.0,0.0,0.0,0.0,0.0,0.0,0.0,0.0,0.0,0.0,0.0,0.0,0.0,0.0,0.0,0.0,0.0,0.0,0.0,0.0,0.0,0.0,0.0,0.0,0.0,0.0,0.0,0.0,0.0,0.0,0.0,0.0,0.0,0.0,0.0,0.0,0.0,0.0,0.0,0.0,0.0,0.0,0.0,0.0,0.0,0.0,0.0,0.0,0.0,0.0,0.0,0.0,0.0,0.0,0.0,0.0,0.0,0.0,0.0,0.0,0.0,0.0,0.0,0.0,0.0,0.0,0.0,0.0,0.0,0.0,0.0,0.0,0.0,0.0,0.0,0.0,0.0,0.0,0.0,0.0,0.0,0.0,0.0,0.0,0.0,0.0,0.0,0.0,0.0,0.0,0.0,0.0,0.0,0.0,0.0,0.0,0.0,0.0,0.0,0.0,0.0,0.0,0.0,0.0,0.0,0.0,0.0,0.0,0.0,0.0,0.0,0.0,0.0,0.0,0.0,0.0,0.0,0.0,0.0,0.0,0.0,0.0,0.0,0.0,0.0,0.0,0.0,0.0,0.0,0.0,0.0,0.0,0.0,0.0,0.0,0.0,0.0,0.0,0.0,0.0,0.0,0.0,0.0,0.0,0.0,0.0,0.0,0.0,0.0,0.0,0.0,0.0,0.0,0.0,0.0,0.0,0.0,0.0,0.0,0.0,0.0,0.0,0.0,0.0,0.0,0.0,0.0,0.0,0.0,0.0,0.0,0.0,0.0,0.0,0.0,0.0,0.0,0.0,0.0,0.0,0.0,0.0,0.0,0.0,0.0,0.0,0.0,0.0,0.0,0.0,0.0,0.0,0.0,0.0,0.0,0.0,0.0,0.0,0.0,0.0,0.0,0.0,0.0,0.0,0.0,0.0,0.0,0.0,0.0,0.0,0.0,0.0,0.0,0.0,0.0,0.0,0.0,0.0,0.0,0.0,0.0,0.0,0.0,0.0,0.0,0.0,0.0,0.0,0.0,0.0,0.0,0.0,0.0,0.0,0.0,0.0,0.0,0.0,0.0,0.0,0.0,0.0,0.0,0.0,0.0,0.0,0.0,0.0,0.0,0.0,0.0,0.0,0.0,0.0,0.0,0.0,0.0,0.0,0.0,0.0,0.0,0.0,0.0,0.0,0.0,0.0,0.0,0.0,0.0,0.0,0.0,0.0,0.0,0.0,0.0,0.0,0.0,0.0,0.0,0.0,0.0,0.0,0.0,0.0,0.0,0.0,0.0,0.0,0.0,0.0,0.0,0.0,0.0,0.0,0.0,0.0,0.0,0.0,0.0,0.0,0.0,0.0,0.0,0.0,0.0,0.0,0.0,0.0,0.0,0.0,0.0,0.0,0.0,0.0,0.0,0.0,0.0,0.0,0.0,0.0,0.0,0.0,0.0,0.0,0.0,0.0,0.0,0.0,0.0,0.0,0.0,0.0,0.0,0.0,0.0,0.0,0.0,0.0,0.0,0.0,0.0,0.0,0.0,0.0,0.0,0.0,0.0,0.0,0.0,0.0,0.0,0.0,0.0,0.0,0.0,0.0,0.0,0.0,0.0,0.0,0.0,0.0,0.0,0.0,0.0,0.0,0.0,0.0,0.0,0.0,0.0,0.0,0.0,0.0,0.0,0.0,0.0,0.0,0.0,0.0,0.0,0.0,0.0,0.0,0.0,0.0,0.0,0.0,0.0,0.0,0.0,0.0,0.0,0.0,0.0,0.0,0.0,0.0,0.0,0.0,0.0,0.0,0.0,0.0,0.0,0.0,0.0,0.0,0.0,0.0,1.1287,0.0,0.0,0.0,0.0,0.0,0.0,0.0,0.0,0.0,0.0,0.0,0.0,0.0,0.0,0.0,0.0,0.0,0.0,0.0,0.0,0.0,0.0,0.0,0.0,0.0,0.0,0.0,0.0,0.0,0.0,0.0,0.0,0.0,0.0,0.0,0.0,0.0,0.0,0.0,0.0,0.0,0.0,0.0,0.0,0.0,0.0,0.0,0.0,0.0,0.0,0.0,0.0,0.0,0.0,0.0,0.0,0.0,0.0,0.0,0.0,0.0,0.0,0.0,0.0,0.0,0.0,0.0,0.0,0.0,0.0,0.0,0.0,0.0,0.0,0.0,0.0,0.0,0.0,0.0,0.0,0.0,0.0,0.0,0.0,0.0,0.0,0.0,0.0,0.0,0.0,0.0,0.0,0.0,0.0,0.0,0.0,0.0,0.0,0.0,0.0,0.0,0.0,0.0,0.0,0.0,0.0,0.0,0.0,0.0,0.0,0.9378,1.0172,1.0164,1.0729,1.1978,0.0,0.0,0.0,0.0,0.0,0.0,0.0,0.0,0.0,0.0,0.0,0.0,0.0,0.0,0.0,0.0,0.0,0.0,0.0,0.0,0.0,0.0,0.0,0.0,0.0,0.0,0.0,0.0,0.0,0.0,0.0,0.0,0.0,0.0,0.0,0.0,0.0,0.0,0.0,0.0,0.0,0.0,0.0,0.0,0.0,0.0,0.0,0.0,0.0,0.0,0.0,0.0,0.0,0.0,0.0,0.0,0.0,0.0,0.0,0.0,0.0,0.0,0.0,0.0,0.0,0.0,0.0,0.0,0.0,0.0,0.0,0.0,0.0,0.0,0.0,0.0,0.0,0.0,0.0,0.0,0.0,0.0,0.0,0.0,0.0,0.0,0.0,0.0,0.0,0.0,0.0,0.0,0.0,0.0,0.0,0.0,0.0,0.0,0.0,0.0,0.0,0.0,0.0,0.0,0.0,0.0,0.0,0.0,0.0,0.0,0.0,0.0,1.1258,1.1906,1.3385,0.0,0.0,0.0,0.0,0.0,0.0,0.0,0.0,0.0,0.0,0.0,0.0,0.0,0.0,0.0,0.0,0.0,0.0,0.0,0.0,0.0,0.0,0.0,0.0,0.0,0.0,0.0,0.0,0.0,0.0,0.0,0.0,0.0,0.0,0.0,0.0,0.0,0.0,0.0,0.0,0.0,0.0,0.0,0.0,0.0,0.0,0.0,0.0,0.0,0.0,0.0,0.0,0.0,0.0,0.0,0.0,0.0,0.0,0.0,0.0,0.0,0.0,0.0,0.0,0.0,0.0,0.0,0.0,0.0,0.0,0.0,0.0,0.0,0.0,0.0,0.0,0.0,0.0,0.0,0.0,0.0,0.0,0.0,0.0,0.0,0.0,0.0,0.0,0.0,0.0,0.0,0.0,0.0,0.0,0.0,0.0,0.0,0.0,0.0,0.0,0.0,0.0,0.0,0.0,0.0,0.0,0.0,0.0,0.0,0.0,1.2384,1.4656,1.4626,0.0,1.5789,0.0,0.0,0.0,0.0,0.0,0.0,0.0,0.0,0.0,0.0,0.0,0.0,0.0,0.0,0.0,0.0,0.0,0.0,0.0,0.0,0.0,0.0,0.0,0.0,0.0,0.0,0.0,0.0,0.0,0.0,0.0,0.0,0.0,0.0,0.0,0.0,0.0,0.0,0.0,0.0,0.0,0.0,0.0,0.0,0.0,0.0,0.0,0.0,0.0,0.0,0.0,0.0,0.0,0.0,0.0,0.0,0.0,0.0,0.0,0.0,0.0,0.0,0.0,0.0,0.0,0.0,0.0,0.0,0.0,0.0,0.0,0.0,0.0,0.0,0.0,0.0,0.0,0.0,0.0,0.0,0.0,0.0,0.0,0.0,0.0,0.0,0.0,0.0,0.0,0.0,0.0,0.0,0.0,0.0,0.0,0.0,0.0,0.0,0.0,0.0,0.0,0.0,0.0,0.0,0.0,0.0,0.0,0.0,0.0,0.0,1.1935,1.4434,1.4852,1.5152,0.0,0.0,0.0,0.0,0.0,0.0,0.0,0.0,0.0,0.0,0.0,0.0,0.0,0.0,0.0,0.0,0.0,0.0,0.0,0.0,0.0,0.0,0.0,0.0,0.0,0.0,0.0,0.0,0.0,0.0,0.0,0.0,0.0,0.0,0.0,0.0,0.0,0.0,0.0,0.0,0.0,0.0,0.0,0.0,0.0,0.0,0.0,0.0,0.0,0.0,0.0,0.0,0.0,0.0,0.0,0.0,0.0,0.0,0.0,0.0,0.0,0.0,0.0,0.0,0.0,0.0,0.0,0.0,0.0,0.0,0.0,0.0,0.0,0.0,0.0,0.0,0.0,0.0,0.0,0.0,0.0,0.0,0.0,0.0,0.0,0.0,0.0,0.0,0.0,0.0,0.0,0.0,0.0,0.0,0.0,0.0,0.0,0.0,0.0,0.0,0.0,0.0,0.0,0.0,0.0,0.0,0.0,0.0,0.0,0.0,1.1918,1.2706,1.4874,1.5025,1.5118,1.5326,0.0,0.0,0.0,0.0,0.0,0.0,0.0,0.0,0.0,0.0,0.0,0.0,0.0,0.0,0.0,0.0,0.0,0.0,0.0,0.0,0.0,0.0,0.0,0.0,0.0,0.0,0.0,0.0,0.0,0.0,0.0,0.0,0.0,0.0,0.0,0.0,0.0,0.0,0.0,0.0,0.0,0.0,0.0,0.0,0.0,0.0,0.0,0.0,0.0,0.0,0.0,0.0,0.0,0.0,0.0,0.0,0.0,0.0,0.0,0.0,0.0,0.0,0.0,0.0,0.0,0.0,0.0,0.0,0.0,0.0,0.0,0.0,0.0,0.0,0.0,0.0,0.0,0.0,0.0,0.0,0.0,0.0,0.0,0.0,0.0,0.0,0.0,0.0,0.0,0.0,0.0,0.0,0.0,0.0,0.0,0.0,0.0,0.0,0.0,0.0,0.0,0.0,0.0,0.0,0.0,0.0,0.0,0.0,1.4976,1.5039,1.5826,1.7324,1.5964,1.5438,0.0,0.0,0.0,0.0,0.0,0.0,0.0,0.0,0.0,0.0,0.0,0.0,0.0,0.0,0.0,0.0,0.0,0.0,0.0,0.0,0.0,0.0,0.0,0.0,0.0,0.0,0.0,0.0,0.0,0.0,0.0,0.0,0.0,0.0,0.0,0.0,0.0,0.0,0.0,0.0,0.0,0.0,0.0,0.0,0.0,0.0,0.0,0.0,0.0,0.0,0.0,0.0,0.0,0.0,0.0,0.0,0.0,0.0,0.0,0.0,0.0,0.0,0.0,0.0,0.0,0.0,0.0,0.0,0.0,0.0,0.0,0.0,0.0,0.0,0.0,0.0,0.0,0.0,0.0,0.0,0.0,0.0,0.0,0.0,0.0,0.0,0.0,0.0,0.0,0.0,0.0,0.0,0.0,0.0,0.0,0.0,0.0,0.0,0.0,0.0,0.0,0.0,0.0,0.0,0.0,0.0,0.0,0.0,0.0,1.4487,1.5575,1.5855,1.538,1.5708,1.5817,0.0,0.0,0.0,0.0,0.0,0.0,0.0,0.0,0.0,0.0,0.0,0.0,0.0,0.0,0.0,0.0,0.0,0.0,0.0,0.0,0.0,0.0,0.0,0.0,0.0,0.0,0.0,0.0,0.0,0.0,0.0,0.0,0.0,0.0,0.0,0.0,0.0,0.0,0.0,0.0,0.0,0.0,0.0,0.0,0.0,0.0,0.0,0.0,0.0,0.0,0.0,0.0,0.0,0.0,0.0,0.0,0.0,0.0,0.0,0.0,0.0,0.0,0.0,0.0,0.0,0.0,0.0,0.0,0.0,0.0,0.0,0.0,0.0,0.0,0.0,0.0,0.0,0.0,0.0,0.0,0.0,0.0,0.0,0.0,0.0,0.0,0.0,0.0,0.0,0.0,0.0,0.0,0.0,0.0,0.0,0.0,0.0,0.0,0.0,0.0,0.0,0.0,0.0,0.0,0.0,0.0,0.0,0.0,0.0,1.4884,0.0,1.5458,1.4907,1.5306,1.5459,0.0,0.0,0.0,0.0,0.0,0.0,0.0,0.0,0.0,0.0,0.0,0.0,0.0,0.0,0.0,0.0,0.0,0.0,0.0,0.0,0.0,0.0,0.0,0.0,0.0,0.0,0.0,0.0,0.0,0.0,0.0,0.0,0.0,0.0,0.0,0.0,0.0,0.0,0.0,0.0,0.0,0.0,0.0,0.0,0.0,0.0,0.0,0.0,0.0,0.0,0.0,0.0,0.0,0.0,0.0,0.0,0.0,0.0,0.0,0.0,0.0,0.0,0.0,0.0,0.0,0.0,0.0,0.0,0.0,0.0,0.0,0.0,0.0,0.0,0.0,0.0,0.0,0.0,0.0,0.0,0.0,0.0,0.0,0.0,0.0,0.0,0.0,0.0,0.0,0.0,0.0,0.0,0.0,0.0,0.0,0.0,0.0,0.0,0.0,0.0,0.0,0.0,0.0,0.0,0.0,0.0,0.0,0.0,1.4884,1.6411,1.4922,1.4912,1.6459,1.4917,1.4357,0.0,0.0,0.0,0.0,0.0,0.0,0.0,0.0,0.0,0.0,0.0,0.0,0.0,0.0,0.0,0.0,0.0,0.0,0.0,0.0,0.0,0.0,0.0,0.0,0.0,0.0,0.0,0.0,0.0,0.0,0.0,0.0,0.0,0.0,0.0,0.0,0.0,0.0,0.0,0.0,0.0,0.0,0.0,0.0,0.0,0.0,0.0,0.0,0.0,0.0,0.0,0.0,0.0,0.0,0.0,0.0,0.0,0.0,0.0,0.0,0.0,0.0,0.0,0.0,0.0,0.0,0.0,0.0,0.0,0.0,0.0,0.0,0.0,0.0,0.0,0.0,0.0,0.0,0.0,0.0,0.0,0.0,0.0,0.0,0.0,0.0,0.0,0.0,0.0,0.0,0.0,0.0,0.0,0.0,0.0,0.0,0.0,0.0,0.0,0.0,0.0,0.0,0.0,0.0,0.0,0.0,0.0,0.0,0.0,1.5659,1.5177,1.5395,1.6368,1.5343,1.537,0.0,0.0,0.0,0.0,0.0,0.0,0.0,0.0,0.0,0.0,0.0,0.0,0.0,0.0,0.0,0.0,0.0,0.0,0.0,0.0,0.0,0.0,0.0,0.0,0.0,0.0,0.0,0.0,0.0,0.0,0.0,0.0,0.0,0.0,0.0,0.0,0.0,0.0,0.0,0.0,0.0,0.0,0.0,0.0,0.0,0.0,0.0,0.0,0.0,0.0,0.0,0.0,0.0,0.0,0.0,0.0,0.0,0.0,0.0,0.0,0.0,0.0,0.0,0.0,0.0,0.0,0.0,0.0,0.0,0.0,0.0,0.0,0.0,0.0,0.0,0.0,0.0,0.0,0.0,0.0,0.0,0.0,0.0,0.0,0.0,0.0,0.0,0.0,0.0,0.0,0.0,0.0,0.0,0.0,0.0,0.0,0.0,0.0,0.0,0.0,0.0,0.0,0.0,0.0,0.0,0.0,0.0,0.0,0.0,1.626,1.5289,1.5154,1.5945,1.5402,1.5539,1.6481,0.0,0.0,0.0,0.0,0.0,0.0,0.0,0.0,0.0,0.0,0.0,0.0,0.0,0.0,0.0,0.0,0.0,0.0,0.0,0.0,0.0,0.0,0.0,0.0,0.0,0.0,0.0,0.0,0.0,0.0,0.0,0.0,0.0,0.0,0.0,0.0,0.0,0.0,0.0,0.0,0.0,0.0,0.0,0.0,0.0,0.0,0.0,0.0,0.0,0.0,0.0,0.0,0.0,0.0,0.0,0.0,0.0,0.0,0.0,0.0,0.0,0.0,0.0,0.0,0.0,0.0,0.0,0.0,0.0,0.0,0.0,0.0,0.0,0.0,0.0,0.0,0.0,0.0,0.0,0.0,0.0,0.0,0.0,0.0,0.0,0.0,0.0,0.0,0.0,0.0,0.0,0.0,0.0,0.0,0.0,0.0,0.0,0.0,0.0,0.0,0.0,0.0,0.0,0.0,0.0,0.0,0.0,0.0,1.7932,1.5478,1.4645,1.5444,1.5344,1.5183,0.0,0.0,0.0,0.0,0.0,0.0,0.0,0.0,0.0,0.0,0.0,0.0,0.0,0.0,0.0,0.0,0.0,0.0,0.0,0.0,0.0,0.0,0.0,0.0,0.0,0.0,0.0,0.0,0.0,0.0,0.0,0.0,0.0,0.0,0.0,0.0,0.0,0.0,0.0,0.0,0.0,0.0,0.0,0.0,0.0,0.0,0.0,0.0,0.0,0.0,0.0,0.0,0.0,0.0,0.0,0.0,0.0,0.0,0.0,0.0,0.0,0.0,0.0,0.0,0.0,0.0,0.0,0.0,0.0,0.0,0.0,0.0,0.0,0.0,0.0,0.0,0.0,0.0,0.0,0.0,0.0,0.0,0.0,0.0,0.0,0.0,0.0,0.0,0.0,0.0,0.0,0.0,0.0,0.0,0.0,0.0,0.0,0.0,0.0,0.0,0.0,0.0,0.0,0.0,0.0,0.0,0.0,0.0,0.0,1.7941,1.7774,1.7774,1.7842,1.7176,1.7046,0.0,0.0,0.0,0.0,0.0,0.0,0.0,0.0,0.0,0.0,0.0,0.0,0.0,0.0,0.0,0.0,0.0,0.0,0.0,0.0,0.0,0.0,0.0,0.0,0.0,0.0,0.0,0.0,0.0,0.0,0.0,0.0,0.0,0.0,0.0,0.0,0.0,0.0,0.0,0.0,0.0,0.0,0.0,0.0,0.0,0.0,0.0,0.0,0.0,0.0,0.0,0.0,0.0,0.0,0.0,0.0,0.0,0.0,0.0,0.0,0.0,0.0,0.0,0.0,0.0,0.0,0.0,0.0,0.0,0.0,0.0,0.0,0.0,0.0,0.0,0.0,0.0,0.0,0.0,0.0,0.0,0.0,0.0,0.0,0.0,0.0,0.0,0.0,0.0,0.0,0.0,0.0,0.0,0.0,0.0,0.0,0.0,0.0,0.0,0.0,0.0,0.0,0.0,0.0,0.0,0.0,0.0,0.0,1.9414,1.8968,2.0077,2.0412,1.9905,1.8983,1.8323,0.0,0.0,0.0,0.0,0.0,0.0,0.0,0.0,0.0,0.0,0.0,0.0,0.0,0.0,0.0,0.0,0.0,0.0,0.0,0.0,0.0,0.0,0.0,0.0,0.0,0.0,0.0,0.0,0.0,0.0,0.0,0.0,0.0,0.0,0.0,0.0,0.0,0.0,0.0,0.0,0.0,0.0,0.0,0.0,0.0,0.0,0.0,0.0,0.0,0.0,0.0,0.0,0.0,0.0,0.0,0.0,0.0,0.0,0.0,0.0,0.0,0.0,0.0,0.0,0.0,0.0,0.0,0.0,0.0,0.0,0.0,0.0,0.0,0.0,0.0,0.0,0.0,0.0,0.0,0.0,0.0,0.0,0.0,0.0,0.0,0.0,0.0,0.0,0.0,0.0,0.0,0.0,0.0,0.0,0.0,0.0,0.0,0.0,0.0,0.0,0.0,0.0,0.0,0.0,0.0,0.0,0.0,0.0,2.0363,2.0286,2.1852,2.2274,2.1426,2.0499,1.92,0.0,0.0,0.0,0.0,0.0,0.0,0.0,0.0,0.0,0.0,0.0,0.0,0.0,0.0,0.0,0.0,0.0,0.0,0.0,0.0,0.0,0.0,0.0,0.0,0.0,0.0,0.0,0.0,0.0,0.0,0.0,0.0,0.0,0.0,0.0,0.0,0.0,0.0,0.0,0.0,0.0,0.0,0.0,0.0,0.0,0.0,0.0,0.0,0.0,0.0,0.0,0.0,0.0,0.0,0.0,0.0,0.0,0.0,0.0,0.0,0.0,0.0,0.0,0.0,0.0,0.0,0.0,0.0,0.0,0.0,0.0,0.0,0.0,0.0,0.0,0.0,0.0,0.0,0.0,0.0,0.0,0.0,0.0,0.0,0.0,0.0,0.0,0.0,0.0,0.0,0.0,0.0,0.0,0.0,0.0,0.0,0.0,0.0,0.0,0.0,0.0,0.0,0.0,0.0,0.0,0.0,0.0,0.0,2.0053,1.9439,2.1043,2.1787,2.1496,2.0528,1.9452,0.0,0.0,0.0,0.0,0.0,0.0,0.0,0.0,0.0,0.0,0.0,0.0,0.0,0.0,0.0,0.0,0.0,0.0,0.0,0.0,0.0,0.0,0.0,0.0,0.0,0.0,0.0,0.0,0.0,0.0,0.0,0.0,0.0,0.0,0.0,0.0,0.0,0.0,0.0,0.0,0.0,0.0,0.0,0.0,0.0,0.0,0.0,0.0,2.0537,0.0,0.0,0.0,0.0,0.0,0.0,0.0,0.0,0.0,0.0,0.0,0.0,0.0,0.0,0.0,0.0,0.0,0.0,0.0,0.0,0.0,0.0,0.0,0.0,0.0,0.0,0.0,0.0,0.0,0.0,0.0,0.0,0.0,0.0,0.0,0.0,0.0,0.0,0.0,0.0,0.0,0.0,0.0,0.0,0.0,0.0,0.0,0.0,0.0,0.0,0.0,0.0,0.0,0.0,0.0,0.0,0.0,0.0,0.0,1.9763,1.9743,2.1004,2.162,2.1423,2.0528,1.9762,0.0,0.0,0.0,0.0,0.0,0.0,0.0,0.0,0.0,0.0,0.0,0.0,0.0,0.0,0.0,0.0,0.0,0.0,0.0,0.0,0.0,0.0,0.0,0.0,0.0,0.0,0.0,0.0,0.0,0.0,0.0,0.0,0.0,0.0,0.0,0.0,0.0,0.0,0.0,0.0,0.0,0.0,0.0,0.0,0.0,0.0,0.0,0.0,0.0,0.0,0.0,0.0,0.0,0.0,0.0,0.0,0.0,0.0,0.0,0.0,0.0,0.0,0.0,0.0,0.0,0.0,0.0,0.0,0.0,0.0,0.0,0.0,0.0,0.0,0.0,0.0,0.0,0.0,0.0,0.0,0.0,0.0,0.0,0.0,0.0,0.0,0.0,0.0,0.0,0.0,0.0,0.0,0.0,0.0,0.0,0.0,0.0,0.0,0.0,0.0,0.0,0.0,0.0,0.0,0.0,0.0,0.0,1.9338,1.9652,2.0383,2.112,2.1393,2.1225,2.0364,1.9974,2.0107,0.0,0.0,0.0,0.0,0.0,0.0,0.0,0.0,0.0,0.0,0.0,0.0,0.0,0.0,0.0,0.0,0.0,0.0,0.0,0.0,0.0,0.0,0.0,0.0,0.0,0.0,0.0,0.0,0.0,0.0,0.0,0.0,0.0,0.0,0.0,0.0,0.0,0.0,1.7513,1.925,0.0,0.0,0.0,0.0,0.0,0.0,0.0,0.0,2.0443,0.0,0.0,0.0,0.0,0.0,0.0,0.0,0.0,0.0,0.0,0.0,0.0,0.0,0.0,0.0,0.0,0.0,0.0,0.0,0.0,0.0,0.0,0.0,0.0,0.0,0.0,0.0,0.0,0.0,0.0,0.0,0.0,0.0,0.0,0.0,0.0,0.0,0.0,0.0,0.0,0.0,0.0,0.0,0.0,0.0,0.0,0.0,0.0,0.0,0.0,0.0,0.0,0.0,0.0,0.0,0.0,2.0294,2.023,2.0239,2.0408,2.0533,2.0539,2.0384,1.9501,1.964,2.0827,0.0,0.0,0.0,0.0,0.0,0.0,0.0,0.0,0.0,0.0,0.0,0.0,0.0,0.0,0.0,0.0,0.0,0.0,0.0,0.0,0.0,0.0,0.0,0.0,0.0,0.0,0.0,0.0,0.0,0.0,0.0,0.0,0.0,0.0,0.0,0.0,0.0,0.0,0.0,1.9844,2.0781,0.0,0.0,0.0,0.0,0.0,0.0,0.0,0.0,2.0882,0.0,0.0,0.0,0.0,0.0,0.0,0.0,0.0,0.0,0.0,0.0,0.0,0.0,0.0,0.0,0.0,0.0,0.0,0.0,0.0,0.0,0.0,0.0,0.0,0.0,0.0,0.0,0.0,0.0,0.0,0.0,0.0,0.0,0.0,0.0,0.0,0.0,0.0,0.0,0.0,0.0,0.0,0.0,0.0,0.0,0.0,0.0,0.0,0.0,0.0,0.0,0.0,0.0,0.0,0.0,2.0973,1.9803,1.9521,2.0355,2.0379,2.0346,2.0196,1.9711,2.0031,0.0,0.0,0.0,0.0,0.0,0.0,0.0,0.0,0.0,0.0,0.0,0.0,0.0,0.0,0.0,0.0,0.0,0.0,0.0,0.0,0.0,0.0,0.0,0.0,0.0,0.0,0.0,0.0,0.0,0.0,0.0,0.0,0.0,0.0,0.0,0.0,0.0,0.0,0.0,0.0,2.0957,2.1328,2.1736,0.0,0.0,0.0,0.0,0.0,0.0,2.1942,2.3002,0.0,0.0,0.0,0.0,0.0,0.0,0.0,0.0,0.0,0.0,0.0,0.0,0.0,0.0,0.0,0.0,0.0,0.0,0.0,0.0,0.0,0.0,0.0,0.0,0.0,0.0,0.0,0.0,0.0,0.0,0.0,0.0,0.0,0.0,0.0,0.0,0.0,0.0,0.0,0.0,0.0,0.0,0.0,0.0,0.0,0.0,0.0,0.0,0.0,0.0,0.0,0.0,0.0,0.0,0.0,2.1561,1.9692,1.9231,2.0355,2.0366,2.0306,2.0184,2.0116,2.0486,0.0,0.0,0.0,0.0,0.0,0.0,0.0,0.0,0.0,0.0,0.0,0.0,0.0,0.0,0.0,0.0,0.0,0.0,0.0,0.0,0.0,0.0,0.0,0.0,0.0,0.0,0.0,0.0,0.0,0.0,0.0,0.0,0.0,0.0,0.0,0.0,0.0,0.0,0.0,0.0,0.0,2.2125,2.2297,2.2162,0.0,0.0,0.0,0.0,2.1011,2.3809,0.0,0.0,0.0,0.0,0.0,0.0,0.0,0.0,0.0,0.0,0.0,0.0,0.0,0.0,0.0,0.0,0.0,0.0,0.0,0.0,0.0,0.0,0.0,0.0,0.0,0.0,0.0,0.0,0.0,0.0,0.0,0.0,0.0,0.0,0.0,0.0,0.0,0.0,0.0,0.0,0.0,0.0,0.0,0.0,0.0,0.0,0.0,0.0,0.0,0.0,0.0,0.0,0.0,0.0,0.0,0.0,2.1716,2.1424,2.1,2.0427,2.0282,2.0184,2.0107,1.9991,2.0649,0.0,0.0,0.0,0.0,0.0,0.0,0.0,0.0,0.0,0.0,0.0,0.0,0.0,0.0,0.0,0.0,0.0,0.0,0.0,0.0,0.0,0.0,0.0,0.0,0.0,0.0,0.0,0.0,0.0,0.0,0.0,0.0,0.0,0.0,0.0,0.0,0.0,0.0,0.0,0.0,0.0,2.323,2.4,2.341,2.3127,0.0,0.0,2.2793,2.2717,2.5531,0.0,0.0,0.0,0.0,0.0,0.0,0.0,0.0,0.0,0.0,0.0,0.0,0.0,0.0,0.0,0.0,0.0,0.0,0.0,0.0,0.0,0.0,0.0,0.0,0.0,0.0,0.0,0.0,0.0,0.0,0.0,0.0,0.0,0.0,0.0,0.0,0.0,0.0,0.0,0.0,0.0,0.0,0.0,0.0,0.0,0.0,0.0,0.0,0.0,0.0,0.0,0.0,0.0,0.0,0.0,2.1867,2.2347,2.0986,2.0274,2.0328,2.0246,2.0167,2.0117,2.0446,2.119,0.0,0.0,0.0,0.0,0.0,0.0,0.0,0.0,0.0,0.0,0.0,0.0,0.0,0.0,0.0,0.0,0.0,0.0,0.0,0.0,0.0,0.0,0.0,0.0,0.0,0.0,0.0,0.0,0.0,0.0,0.0,0.0,0.0,0.0,0.0,0.0,0.0,0.0,0.0,0.0,0.0,0.0,2.4285,2.4385,0.0,0.0,0.0,2.3719,2.5604,0.0,0.0,0.0,0.0,0.0,0.0,0.0,0.0,0.0,0.0,0.0,0.0,0.0,0.0,0.0,0.0,0.0,0.0,0.0,0.0,0.0,0.0,0.0,0.0,0.0,0.0,0.0,0.0,0.0,0.0,0.0,0.0,0.0,0.0,0.0,0.0,0.0,0.0,0.0,0.0,0.0,0.0,0.0,0.0,0.0,0.0,0.0,0.0,0.0,0.0,0.0,0.0,0.0,0.0,0.0,0.0,0.0,2.2918,2.0634,1.9683,2.0294,2.0192,2.0105,2.0127,2.0774,0.0,0.0,0.0,0.0,0.0,0.0,0.0,0.0,0.0,0.0,0.0,0.0,0.0,0.0,0.0,0.0,0.0,0.0,0.0,0.0,0.0,0.0,0.0,0.0,0.0,0.0,0.0,2.0235,0.0,0.0,0.0,0.0,0.0,0.0,0.0,0.0,0.0,0.0,0.0,0.0,0.0,0.0,2.494,2.494,2.561,2.6126,0.0,0.0,2.5167,2.7675,2.7346,2.6923,0.0,0.0,0.0,0.0,0.0,0.0,0.0,0.0,0.0,0.0,0.0,0.0,0.0,0.0,0.0,0.0,0.0,0.0,0.0,0.0,0.0,0.0,0.0,0.0,0.0,0.0,0.0,0.0,0.0,0.0,0.0,0.0,0.0,0.0,0.0,0.0,0.0,0.0,0.0,0.0,0.0,0.0,0.0,0.0,0.0,0.0,0.0,0.0,0.0,0.0,0.0,0.0,0.0,0.0,0.0,2.2918,2.1179,2.0283,2.0392,2.0078,1.9981,2.0108,2.0705,2.1416,0.0,0.0,0.0,0.0,0.0,0.0,0.0,0.0,0.0,0.0,0.0,0.0,0.0,0.0,0.0,0.0,0.0,0.0,0.0,0.0,0.0,0.0,0.0,0.0,0.0,0.0,0.0,0.0,0.0,0.0,0.0,0.0,0.0,0.0,0.0,0.0,0.0,0.0,0.0,0.0,0.0,2.67,2.6631,2.7316,2.7826,0.0,0.0,2.783,2.7984,2.9244,2.9205,2.6169,0.0,0.0,0.0,0.0,0.0,0.0,0.0,0.0,0.0,0.0,0.0,0.0,0.0,0.0,0.0,0.0,0.0,0.0,0.0,0.0,0.0,0.0,0.0,0.0,0.0,0.0,0.0,0.0,0.0,0.0,0.0,0.0,0.0,0.0,0.0,0.0,0.0,0.0,0.0,0.0,0.0,0.0,0.0,0.0,0.0,0.0,0.0,0.0,0.0,0.0,0.0,0.0,0.0,2.3211,2.3654,2.203,2.1313,2.1608,2.1091,2.079,2.0649,2.1399,2.1948,0.0,0.0,0.0,0.0,0.0,0.0,0.0,0.0,0.0,0.0,0.0,0.0,0.0,0.0,0.0,0.0,0.0,0.0,0.0,0.0,0.0,0.0,0.0,0.0,0.0,0.0,0.0,0.0,2.0934,2.1478,2.2053,0.0,0.0,0.0,0.0,0.0,0.0,0.0,0.0,0.0,0.0,2.7031,2.7529,2.7826,0.0,0.0,2.8023,2.841,2.9457,2.8393,2.7,2.5704,2.5878,0.0,0.0,0.0,0.0,0.0,0.0,0.0,0.0,0.0,0.0,0.0,0.0,0.0,0.0,0.0,0.0,0.0,0.0,0.0,0.0,0.0,0.0,0.0,0.0,0.0,0.0,0.0,0.0,0.0,0.0,0.0,0.0,0.0,0.0,0.0,0.0,0.0,0.0,0.0,0.0,0.0,0.0,0.0,0.0,0.0,0.0,0.0,0.0,0.0,0.0,0.0,0.0,2.3598,2.4134,2.2678,2.2105,2.2494,2.1695,2.1324,2.1431,2.2012,2.2417,0.0,0.0,0.0,0.0,0.0,0.0,0.0,0.0,0.0,0.0,0.0,0.0,0.0,0.0,0.0,0.0,0.0,0.0,0.0,0.0,0.0,0.0,0.0,0.0,0.0,0.0,0.0,0.0,2.1371,2.2075,2.301,0.0,0.0,0.0,0.0,0.0,0.0,0.0,0.0,0.0,0.0,2.74,2.7997,2.8481,2.8664,2.8421,2.8315,2.8799,3.0366,2.8586,2.6691,2.5666,0.0,0.0,0.0,0.0,0.0,0.0,0.0,0.0,0.0,0.0,0.0,0.0,0.0,0.0,0.0,0.0,0.0,0.0,0.0,0.0,0.0,0.0,0.0,0.0,0.0,0.0,0.0,0.0,0.0,0.0,2.0495,0.0,0.0,0.0,0.0,0.0,0.0,0.0,0.0,0.0,0.0,0.0,0.0,0.0,0.0,0.0,0.0,0.0,0.0,0.0,0.0,0.0,0.0,2.4123,2.4258,2.3064,2.2509,2.269,2.1597,2.15,2.2325,2.2335,2.2661,2.3464,0.0,0.0,0.0,0.0,0.0,0.0,0.0,0.0,0.0,0.0,0.0,0.0,0.0,0.0,0.0,0.0,0.0,0.0,0.0,0.0,0.0,0.0,0.0,0.0,0.0,0.0,2.1928,2.174,2.2107,0.0,0.0,0.0,0.0,0.0,0.0,0.0,0.0,0.0,0.0,2.8074,2.8035,2.8031,2.9437,3.0114,2.9321,2.9012,2.9244,3.0346,3.0482,2.936,0.0,0.0,0.0,0.0,0.0,0.0,0.0,0.0,0.0,0.0,0.0,0.0,0.0,0.0,0.0,0.0,0.0,0.0,0.0,0.0,0.0,0.0,0.0,0.0,0.0,0.0,0.0,2.1502,2.1847,0.0,0.0,0.0,0.0,0.0,0.0,0.0,0.0,0.0,0.0,0.0,2.5031,2.4902,0.0,0.0,0.0,0.0,0.0,0.0,0.0,0.0,0.0,0.0,0.0,0.0,2.4206,2.4632,2.3801,2.3574,2.3985,2.322,2.2897,2.3107,2.3121,2.3487,2.4257,0.0,0.0,0.0,0.0,0.0,0.0,0.0,0.0,0.0,0.0,0.0,0.0,0.0,0.0,0.0,0.0,0.0,0.0,0.0,0.0,0.0,0.0,0.0,0.0,0.0,2.4015,0.0,0.0,0.0,0.0,0.0,0.0,0.0,0.0,0.0,0.0,0.0,2.5808,2.6311,2.6873,2.7443,2.7918,2.8489,2.876,0.0,0.0,0.0,0.0,0.0,0.0,0.0,0.0,0.0,0.0,0.0,0.0,0.0,0.0,3.0501,2.7677,2.6265,2.5511,2.5511,0.0,0.0,0.0,0.0,0.0,0.0,0.0,0.0,0.0,0.0,0.0,0.0,0.0,0.0,0.0,0.0,2.2391,0.0,0.0,0.0,0.0,0.0,0.0,0.0,0.0,2.5149,2.5024,2.4902,2.4804,2.4734,0.0,2.4673,2.4794,0.0,0.0,0.0,0.0,0.0,0.0,0.0,0.0,2.4503,2.4924,2.4398,2.4325,2.4704,2.4011,2.3719,2.3915,2.3934,2.4163,2.4673,2.4673,2.4185,0.0,0.0,0.0,0.0,0.0,0.0,0.0,0.0,0.0,0.0,0.0,0.0,0.0,0.0,0.0,0.0,0.0,0.0,0.0,0.0,0.0,0.0,0.0,2.4646,0.0,0.0,0.0,0.0,0.0,0.0,0.0,0.0,0.0,2.5663,2.5634,2.5876,2.661,2.6718,2.7171,2.8305,0.0,0.0,0.0,0.0,0.0,0.0,0.0,3.0114,3.1275,3.1468,3.1275,3.0694,3.1255,3.1719,3.1449,0.0,0.0,2.8509,2.7116,2.6555,2.7155,2.9082,3.0067,2.8382,2.8932,2.9588,0.0,0.0,0.0,0.0,0.0,0.0,0.0,0.0,2.2016,2.1985,0.0,2.2208,0.0,0.0,0.0,0.0,0.0,2.5245,0.0,0.0,2.5172,2.5101,2.501,2.5002,2.4932,2.4801,2.482,2.482,2.4835,2.4932,0.0,0.0,0.0,0.0,0.0,0.0,2.4987,2.5134,2.4884,2.4802,2.4912,2.4025,2.3915,2.4651,2.4689,2.4689,2.4673,2.4673,2.4673,2.4673,2.4689,0.0,0.0,0.0,0.0,0.0,0.0,0.0,0.0,0.0,0.0,0.0,0.0,0.0,0.0,0.0,0.0,0.0,0.0,0.0,0.0,2.4308,0.0,0.0,0.0,0.0,0.0,0.0,0.0,0.0,0.0,0.0,2.5675,2.5658,2.6462,2.8653,0.0,0.0,0.0,0.0,2.934,2.9321,3.0694,3.1816,3.2106,3.0027,2.9418,3.2464,0.0,0.0,3.1062,3.1429,3.1777,3.0946,3.1004,3.023,2.8711,2.8285,2.8683,3.0404,3.0875,3.0776,3.0635,3.0675,3.081,2.2529,0.0,0.0,0.0,0.0,2.3589,2.3558,2.3695,2.3257,2.3303,2.3637,2.3911,0.0,0.0,0.0,0.0,0.0,0.0,2.5559,2.6025,2.5982,2.6193,2.6679,2.6597,2.6521,2.6472,2.6491,2.6491,2.6491,2.654,2.5966,2.4837,0.0,0.0,0.0,0.0,2.5714,2.5725,2.5672,2.564,2.5668,2.4813,2.4463,2.4673,2.4673,2.4673,2.4673,2.4673,2.4673,2.4673,2.4673,0.0,0.0,0.0,0.0,0.0,0.0,0.0,0.0,0.0,0.0,0.0,0.0,0.0,0.0,0.0,0.0,0.0,0.0,0.0,2.4286,2.4818,2.5253,0.0,0.0,0.0,0.0,0.0,0.0,0.0,0.0,0.0,2.6651,2.656,2.7365,0.0,0.0,2.8025,2.9147,2.9824,3.023,3.023,0.0,0.0,0.0,3.2435,3.2996,3.1584,3.3325,3.4795,3.4331,3.4427,3.4505,3.4234,3.4253,3.406,3.3518,3.1449,3.1004,3.3441,3.4235,3.3577,3.1971,3.2386,3.3121,2.3771,2.3771,2.3768,2.3908,2.4117,2.397,2.4039,2.4249,2.4361,2.4482,2.4617,2.4987,2.4698,2.3963,2.4125,0.0,0.0,0.0,2.607,2.6721,2.6778,2.6991,2.7308,2.7299,2.7253,2.7204,2.7204,2.7204,2.7204,2.7204,2.6697,2.5702,0.0,0.0,2.5233,2.5737,2.6169,2.6451,2.6151,2.6,2.5981,2.5139,2.4673,2.4673,2.4673,2.4673,2.4673,2.4673,2.4673,2.4673,2.4673,2.4933,0.0,0.0,0.0,0.0,0.0,0.0,0.0,0.0,0.0,0.0,0.0,2.5524,2.5602,0.0,0.0,0.0,2.5085,2.5299,2.5305,2.6035,0.0,0.0,0.0,0.0,0.0,0.0,0.0,2.5124,2.5679,2.6633,2.7838,2.7791,2.8255,2.9863,2.8876,2.8556,3.0075,0.0,3.0849,3.1487,3.1797,3.1952,3.199,3.404,3.4988,3.2977,3.4253,3.5646,3.5704,3.5704,3.5704,3.5704,3.5704,3.5704,3.5704,3.3982,3.3151,3.524,3.5704,3.5123,3.3596,3.4185,3.4745,2.4821,2.4785,2.4733,2.4251,2.3614,2.4425,2.4385,2.3811,2.534,2.5564,2.4877,2.5589,2.5555,2.5017,2.5178,0.0,2.6199,2.6319,2.6726,2.7332,2.7557,2.7599,2.7426,2.7538,2.7522,2.743,2.7392,2.7411,2.7411,2.7411,2.7355,2.7279,2.6547,2.6169,2.6113,2.6169,2.6547,2.7279,2.651,2.6038,2.5906,2.512,2.4673,2.4673,2.4673,2.4673,2.4673,2.4673,2.4673,2.4673,2.4673,2.4764,2.4842,0.0,0.0,0.0,0.0,0.0,0.0,0.0,0.0,0.0,0.0,0.0,0.0,0.0,0.0,0.0,2.628,0.0,2.6904,2.7609,0.0,0.0,0.0,2.7791,2.6977,2.7544,2.771,2.6974,0.0,0.0,2.9224,0.0,2.9128,2.9379,2.8702,2.907,3.1468,3.1159,3.1275,3.2773,3.3654,3.4098,3.404,3.5007,3.5626,3.5414,3.5704,3.5704,3.5704,3.5704,3.5704,3.5704,3.5704,3.5704,3.5704,3.5549,3.5704,3.5665,3.5704,3.5684,3.553,3.5568,3.5607,2.6503,2.6503,2.6503,2.5999,2.5252,2.5489,2.5845,2.6241,2.6631,2.6706,2.6521,2.6706,2.672,2.6634,2.6682,2.6795,2.6951,2.707,2.7555,2.8323,2.8351,2.8676,2.9233,2.9189,2.9118,2.9119,2.9101,2.9101,2.9101,2.9101,2.8763,2.8143,2.7937,2.7524,2.696,2.7524,2.79,2.8088,2.7317,2.6284,2.5064,2.4801,2.4673,2.4673,2.4673,2.4673,2.4673,2.4673,2.4673,2.4673,2.4673,2.5271,2.6529,2.5142,0.0,0.0,0.0,0.0,0.0,0.0,0.0,0.0,0.0,2.6157,2.5584,0.0,2.551,0.0,2.6235,2.6997,2.7652,2.7896,0.0,0.0,2.8012,2.7942,2.7741,2.7876,2.7934,2.7752,2.7763,2.8431,3.0095,3.025,3.0211,3.0288,3.0114,3.0443,3.1623,3.1661,3.1894,3.3015,3.435,3.5278,3.5278,3.5491,3.5704,3.5704,3.5704,3.5704,3.5704,3.5704,3.5704,3.5704,3.5704,3.5704,3.5704,3.5704,3.5704,3.5704,3.5704,3.5704,3.5704,3.5704,3.5704,2.7472,2.7154,2.7135,2.7079,2.6949,2.7004,2.7266,2.7697,2.8089,2.8033,2.7641,2.7303,2.7169,2.7204,2.7204,2.7204,2.7223,2.7646,2.8091,2.8579,2.894,2.9355,2.9789,2.9738,2.9701,2.9701,2.9701,2.9701,2.9701,2.9701,2.9457,2.8988,2.8988,2.8763,2.8331,2.8351,2.8576,2.8969,2.7805,2.6585,2.5327,2.4895,2.4876,2.5252,2.4895,2.4895,2.5271,2.4914,2.4673,2.4673,2.4673,2.5308,2.6585,2.6829,2.6632,0.0,0.0,0.0,0.0,0.0,0.0,0.0,0.0,0.0,0.0,0.0,2.6455,0.0,2.7531,2.8073,2.8543,2.8932,2.9147,2.9147,2.9156,2.9001,2.8634,2.8904,2.8962,2.8451,2.8838,2.9515,3.0482,3.0617,3.0617,3.0617,3.0617,3.1043,3.2126,3.2367,3.2812,3.4079,3.5085,3.5704,3.5704,3.5704,3.5704,3.5704,3.5704,3.5704,3.5704,3.5704,3.5704,3.5704,3.5704,3.5704,3.5704,3.5704,3.5704,3.5704,3.5704,3.5704,3.5704,3.5704,3.5704,2.7843,2.7204,2.7204,2.7617,2.8238,2.824,2.837,2.8613,2.9382,2.9213,2.8351,2.7768,2.7448,2.7355,2.7467,2.7524,2.7561,2.8256,2.8557,2.8613,2.9345,2.9701,2.9701,2.9701,2.9701,2.9701,2.9701,2.9701,2.9701,2.9701,2.9701,2.9701,2.9701,2.9701,2.9664,2.895,2.8894,2.9514,2.8087,2.696,2.6188,2.5402,2.5327,2.5944,2.5346,2.5327,2.5944,2.5364,2.5027,2.5008,2.4839,2.5196,2.6282,2.8444,2.9059,0.0,2.6218,0.0,0.0,0.0,0.0,0.0,0.0,0.0,0.0,2.7555,2.7763,2.8853,2.9145,2.9339,2.9453,3.0132,3.0607,3.0607,3.0598,3.0288,2.9592,3.0153,3.023,2.9224,2.9979,3.0617,3.0598,3.0617,3.0617,3.0617,3.0617,3.1139,3.2551,3.2831,3.3402,3.5278,3.5626,3.5704,3.5704,3.5704,3.5704,3.5704,3.5704,3.5704,3.5704,3.5704,3.5704,3.5704,3.5704,3.5704,3.5704,3.5704,3.5704,3.5704,3.5704,3.5704,3.5704,3.5704,3.5704,2.7336,2.7204,2.7204,2.7298,2.743,2.7412,2.8199,2.9457,2.9626,2.9213,2.8463,2.8988,2.8819,2.8238,2.8913,2.9232,2.9232,2.9382,2.9457,2.9457,2.9608,2.9701,2.9701,2.9701,2.9701,2.9701,2.9701,2.9701,2.9701,2.9701,2.9701,2.9701,2.9701,2.9701,2.9683,0.0,0.0,0.0,2.8332,2.7786,2.6998,2.681,2.6491,2.6038,2.6472,0.0,2.6038,2.6453,2.6735,2.6697,2.5421,0.0,0.0,0.0,0.0,0.0,0.0,0.0,0.0,0.0,0.0,0.0,2.8915,2.8576,2.805,2.7911,2.8231,2.9117,2.927,2.9588,3.0294,3.0498,3.0615,3.0615,3.0616,3.052,3.0366,3.0501,3.0501,3.0327,3.0462,3.0617,3.0675,3.0617,3.0617,3.0617,3.0617,3.1004,3.1932,3.2116,3.2745,3.4311,3.5278,3.5684,3.5704,3.5704,3.5704,3.5704,3.5704,3.5704,3.5704,3.5704,3.5704,3.5704,3.5704,3.5704,3.5704,3.5704,3.5704,3.5704,3.5704,3.5704,3.5704,3.5704,3.5704,2.7204,0.0,2.7204,2.7204,0.0,2.7636,2.8275,2.9063,2.9063,2.9063,2.9082,2.9495,2.9439,2.9082,2.9514,2.9457,2.9082,2.9514,2.9476,2.9101,2.9495,2.9701,2.9701,2.9701,2.9701,2.9701,2.9701,2.9701,2.9701,2.9701,2.9701,2.9701,2.9701,2.9701,2.9701,2.9701,2.9476,2.9044,2.8613,2.8182,2.7788,2.7392,2.7204,2.7186,0.0,0.0,0.0,0.0,0.0,0.0,0.0,0.0,0.0,0.0,0.0,2.9187,2.8878,2.8793,2.8938,2.947,3.0008,3.0492,3.0945,3.081,2.994,3.0269,3.0724,3.1176,3.1224,3.1233,3.123,3.1241,3.1078,3.0653,3.0606,3.0616,3.0617,3.0617,3.083,3.1333,3.1294,3.1333,3.1797,3.1429,3.1023,3.0675,3.0617,3.0888,3.1661,3.2203,3.3063,3.4737,3.5356,3.5684,3.5704,3.5704,3.5704,3.5704,3.5704,3.5704,3.5704,3.5704,3.5704,3.5704,3.5704,3.5704,3.5704,3.5704,3.5704,3.5704,3.5704,3.5704,3.5704,3.5704,3.5704,2.6848,2.6979,2.6979,2.7073,2.7242,2.79,2.8276,2.8407,0.0,0.0,0.0,2.9626,2.9701,2.9701,2.9701,2.9382,2.8895,2.9439,2.9307,2.867,2.9382,2.9777,2.9889,2.9927,2.9983,3.0114,2.9964,2.9908,2.9908,2.9777,2.9701,2.9701,2.9701,2.9701,2.9701,2.9701,2.9701,2.9664,2.8988,2.8632,2.8613,2.7974,2.788,2.8388,2.7918,2.7899,2.8351,2.7918,2.7636,2.7636,2.7655,2.7937,2.8595,2.9307,2.9701,2.9701,2.9823,3.0026,3.0305,3.1136,3.1719,3.1999,3.2842,3.2968,3.2135,3.2687,3.3132,3.3208,3.3199,3.2897,3.2194,3.1964,3.1618,3.0903,3.0681,3.0653,3.08,3.081,3.1217,3.2068,3.2106,3.2338,3.3063,3.2512,3.1739,3.1023,3.0888,3.1023,3.1729,3.2512,3.3527,3.4891,3.5433,3.5704,3.5704,3.5704,3.5704,3.5704,3.5704,3.5704,3.5704,3.5704,3.5704,3.5704,3.5704,3.5704,3.5704,3.5704,3.5704,3.5704,3.5704,3.58,3.6071,3.6013,3.5955,2.5496,2.6169,2.6169,2.6547,2.7223,2.7317,2.7768,2.8463,2.9194,2.9176,2.8613,2.9363,2.9701,2.9701,2.9701,3.0002,3.049,2.9983,2.9626,0.0,2.9645,3.0077,3.0696,3.0734,3.1091,3.1673,3.1072,3.0715,3.0678,3.0039,2.9701,2.9701,2.9701,2.9701,2.9701,2.9701,2.9701,2.9683,2.9589,2.9514,2.9514,2.9401,2.9026,2.8463,2.9026,2.9044,2.8426,2.8988,2.9345,2.9345,2.9345,2.9401,2.9514,2.9626,2.9701,2.972,2.9823,3.0288,3.1159,3.1463,3.1946,3.2775,3.3701,3.3877,3.3093,3.3132,3.32,3.3216,3.3283,3.3156,3.299,3.2388,3.1942,3.1701,3.1067,3.0905,3.1622,3.1671,3.1835,3.2338,3.2687,3.3121,3.3731,3.3295,3.2532,3.1855,3.1468,3.1594,3.1777,3.2551,3.3353,3.4176,3.5085,3.5626,3.5356,3.5684,3.5665,3.5704,3.5684,3.5704,3.5704,3.5704,3.5704,3.5704,3.5704,3.5704,3.5704,3.5704,3.5704,3.5723,3.5762,3.6207,3.7328,3.7174,3.6806,2.589,2.6604,2.6641,2.6866,2.7223,2.7674,2.8575,2.9739,3.0171,3.0133,2.987,3.064,3.0997,3.0997,3.0997,3.1203,3.1541,3.1166,3.0978,3.0997,3.0997,3.1185,3.1523,3.156,3.1748,3.2048,3.1729,3.1541,3.1466,3.0734,3.0359,3.0321,2.9927,2.9701,2.9701,2.9701,2.9719,2.9737,2.925,2.9232,2.9683,2.9232,2.9026,2.9101,2.9514,2.9532,2.9119,2.9476,2.9701,2.9701,2.9701,2.9701,2.9701,2.9701,2.9889,3.0321,3.0396,3.0861,3.1882,3.2513,3.3263,3.4199,3.4693,3.4854,3.4584,3.4554,3.4563,3.4592,3.4611,3.4415,3.3957,3.353,3.3122,3.264,3.2236,3.22,3.2502,3.257,3.2784,3.3296,3.3209,3.3576,3.4795,3.3866,3.3005,3.2483,3.1835,3.1197,3.1178,3.1487,3.2222,3.3286,3.3963,3.3789,3.3286,3.4621,3.5317,3.5113,3.5414,3.5646,3.5704,3.5704,3.5704,3.5704,3.5704,3.5704,3.5704,3.5704,3.5704,3.58,3.6555,3.729,3.7696,3.7967,3.816,2.6752,2.7467,2.7467,2.7693,2.8106,2.8913,2.9983,3.1147,3.1372,3.1465,3.1541,3.1936,3.2198,3.2367,3.218,3.2198,3.2349,3.218,3.2086,3.2105,3.2105,3.2198,3.2386,3.2405,3.248,3.2611,3.248,3.2386,3.2292,3.1579,3.1185,3.1167,3.0584,3.0302,3.0302,3.0132,3.015,3.0297,2.9132,2.8797,2.9417,2.878,2.8761,2.9399,2.9438,2.9607,2.9964,2.9983,3.0058,3.0227,3.0246,3.0246,3.0227,3.0246,3.0509,3.111,3.1185,3.1619,3.2597,3.3605,3.4515,3.5292,3.5403,3.5493,3.563,3.5697,3.5752,3.5793,3.5715,3.5471,3.4905,3.4556,3.4218,3.3572,3.33,3.3225,3.3422,3.3471,3.379,3.4438,3.4098,3.4272,3.5046,3.4369,3.3383,3.2938,3.1661,3.0714,3.081,3.0868,3.1507,3.2377,3.2745,3.2338,3.1236,3.3189,3.4737,3.458,3.5267,3.5626,3.5704,3.5704,3.5704,3.5704,3.5704,3.5704,3.5704,3.5704,3.5704,3.582,3.6903,3.8044,3.8083,3.8953,3.9533,2.7561,2.8238,2.8294,2.9176,3.0509,3.1335,3.1804,3.2067,3.2818,3.3175,3.3081,3.2424,3.2593,3.3118,3.2499,3.2574,3.3175,3.248,3.2161,3.2161,3.2105,3.2518,3.325,3.3287,3.3663,3.4132,3.3607,3.3269,3.3231,3.2405,3.2032,3.2166,3.2145,3.2086,3.2029,3.1404,3.1402,3.2065,2.9848,2.8714,2.8774,2.8598,2.8598,2.8774,2.873,2.9357,3.0808,3.081,3.1128,3.1804,3.1823,3.186,3.1842,3.1842,3.1898,3.1973,3.1992,3.2429,3.343,3.4423,3.5013,3.5197,3.5379,3.5493,3.5543,3.5679,3.5791,3.5791,3.5791,3.5732,3.5643,3.4983,3.4548,3.4415,3.3785,3.3468,3.4149,3.4294,3.4613,3.5482,3.5278,3.5549,3.5491,3.4775,3.3963,3.3305,3.1932,3.1101,3.1584,3.1719,3.1874,3.2164,3.1642,3.1468,3.1952,3.2706,3.4079,3.522,3.5588,3.5684,3.5704,3.5704,3.5704,3.5704,3.5704,3.5704,3.5704,3.5704,3.5704,3.5955,3.7077,3.8508,3.9146,3.9959,4.0404,2.8406,2.9157,2.9176,2.9833,3.094,3.1767,3.2386,3.2912,3.3231,3.3663,3.4038,3.3719,3.3776,3.4076,3.3738,3.3794,3.4076,3.3719,3.3588,3.3569,3.3569,3.3757,3.4076,3.4113,3.4301,3.4564,3.4264,3.4137,3.4086,3.343,3.2826,3.2391,3.2387,3.2405,3.2386,3.2064,3.2119,3.2454,3.1452,3.0674,3.0278,2.9693,2.9872,3.076,3.0804,3.1034,3.1675,3.1675,3.1767,3.2067,3.2105,3.2105,3.2105,3.2105,3.233,3.2837,3.3325,3.3761,3.4183,3.4586,3.4869,3.5019,3.517,3.5322,3.5507,3.5699,3.5791,3.5791,3.5791,3.5791,3.5771,3.5469,3.5266,3.5221,3.495,3.4835,3.5107,3.5165,3.5329,3.5618,3.524,3.5182,3.5433,3.4795,3.4137,3.375,3.2783,3.2232,3.2522,3.256,3.2783,3.3073,3.259,3.2319,3.2822,3.3886,3.4554,3.4777,3.528,3.5684,3.5704,3.5704,3.5704,3.5704,3.5704,3.5704,3.5704,3.5704,3.5723,3.6226,3.8063,3.9881,4.021,4.0539,4.0771,2.9439,3.0058,3.0509,3.1072,3.1654,3.2443,3.3137,3.3682,3.3719,3.4057,3.4564,3.4602,3.4752,3.4902,3.4714,3.4602,3.462,3.4846,3.4808,3.4658,3.4827,3.4827,3.462,3.4864,3.4958,3.4996,3.5246,3.5407,3.5453,3.504,3.4452,3.39,3.3861,3.3728,3.35,3.3329,3.3211,3.3261,3.2811,3.2463,3.2313,3.155,3.1428,3.2058,3.2049,3.2203,3.2675,3.2541,3.2574,3.278,3.278,3.278,3.278,3.2799,3.3062,3.3682,3.4264,3.4602,3.4602,3.4602,3.4687,3.485,3.4978,3.5143,3.5353,3.5599,3.5689,3.564,3.5708,3.5747,3.5801,3.5782,3.5765,3.5785,3.5785,3.5757,3.5688,3.5697,3.5678,3.5637,3.524,3.4863,3.5123,3.4582,3.406,3.4195,3.3634,3.3267,3.3402,3.3479,3.3615,3.404,3.3886,3.3886,3.3895,3.4679,3.5145,3.5,3.53,3.5684,3.5704,3.5704,3.5704,3.5704,3.5704,3.5704,3.5704,3.5704,3.6187,3.7019,3.876,4.0674,4.0674,4.079,4.079,3.0828,3.1072,3.2555,3.3118,3.3325,3.4076,3.4451,3.447,3.4489,3.4564,3.4583,3.4639,3.5071,3.5728,3.5052,3.4658,3.4752,3.5503,3.5446,3.4864,3.5484,3.5409,3.4677,3.5428,3.5841,3.5901,3.6575,3.7022,3.7164,3.7281,3.7433,3.7262,3.7125,3.695,3.6169,3.5348,3.5059,3.4868,3.3573,3.3436,3.4617,3.414,3.2997,3.1859,3.1409,3.218,3.3393,3.3446,3.3682,3.4433,3.4376,3.4414,3.4433,3.4414,3.4414,3.4508,3.4564,3.4602,3.4602,3.4661,3.4703,3.4809,3.5002,3.503,3.5267,3.5624,3.5712,3.5311,3.5611,3.5742,3.5766,3.5747,3.5728,3.5728,3.5718,3.5698,3.5715,3.5716,3.5716,3.5715,3.5607,3.5317,3.4659,3.4214,3.4272,3.4292,3.3712,3.3479,3.4156,3.4331,3.4389,3.4563,3.4969,3.5549,3.5568,3.553,3.5588,3.5482,3.5424,3.5704,3.5704,3.5704,3.5704,3.5704,3.5704,3.5704,3.5704,3.6149,3.6922,3.7947,3.9398,4.0694,4.079,4.079,4.079,3.1673,3.1767,3.2931,3.3379,3.3494,3.4264,3.4602,3.4602,3.4602,3.4602,3.4695,3.5165,3.5615,3.5916,3.6122,3.6197,3.6235,3.6535,3.6479,3.6235,3.6517,3.6479,3.6273,3.6554,3.6712,3.6858,3.7147,3.7387,3.7528,3.7622,3.7659,3.7677,3.7675,3.7521,3.7177,3.6432,3.6031,3.5916,3.4866,3.4617,3.5152,3.4923,3.4413,3.383,3.3724,3.3902,3.4395,3.4334,3.4405,3.4604,3.4602,3.4602,3.4602,3.4602,3.4602,3.4602,3.4602,3.4602,3.468,3.5133,3.5192,3.4816,3.575,3.6139,3.5988,3.638,3.6628,3.6271,3.6221,3.6188,3.5804,3.5699,3.5718,3.5718,3.5718,3.5707,3.5695,3.5715,3.5695,3.5704,3.5704,3.5549,3.5298,3.5143,3.5123,3.5162,3.493,3.4891,3.5085,3.524,3.5182,3.524,3.5491,3.5704,3.5704,3.5684,3.5704,3.5684,3.5704,3.5704,3.5704,3.5704,3.5704,3.5704,3.5704,3.5704,3.5704,3.58,3.6826,3.8934,4.0404,4.0713,4.079,4.079,4.079,3.2668,3.2968,3.3531,3.3794,3.3851,3.4358,3.4602,3.4602,3.4602,3.4602,3.4771,3.5522,3.6028,3.6385,3.7117,3.7662,3.7831,3.7643,3.7343,3.7136,3.7361,3.7343,3.7155,3.7361,3.7544,3.7753,3.8085,3.8305,3.8461,3.8497,3.8534,3.8553,3.8553,3.84,3.8075,3.7578,3.7215,3.6833,3.605,3.5725,3.5897,3.5444,3.5278,3.5361,3.5191,3.4965,3.4809,3.4768,3.4706,3.4604,3.4602,3.4602,3.4602,3.4602,3.4602,3.4602,3.4602,3.4602,3.4661,3.5152,3.5321,3.5112,3.6032,3.6632,3.6535,3.7128,3.7154,3.6763,3.6694,3.6517,3.6245,3.6121,3.5979,3.5775,3.5716,3.5706,3.5715,3.5704,3.5704,3.5704,3.5704,3.5704,3.5704,3.5684,3.5665,3.5704,3.5704,3.5704,3.5704,3.5704,3.5704,3.5704,3.5665,3.5704,3.5704,3.5704,3.5704,3.5704,3.5704,3.5704,3.5704,3.5704,3.5704,3.5704,3.5704,3.5704,3.5704,3.5704,3.7154,3.934,4.0404,4.0771,4.079,4.079,4.079,3.3851,3.4433,3.4602,3.4602,3.462,3.4695,3.4658,3.4714,3.4677,3.4733,3.4883,3.5634,3.6535,3.7155,3.7962,3.8732,3.9126,3.8619,3.7981,3.7455,3.8023,3.7948,3.7404,3.8047,3.8437,3.8587,3.9539,4.0042,4.0043,4.0024,4.0062,4.0196,4.0081,3.9642,3.9011,3.882,3.8457,3.7712,3.6929,3.6833,3.7368,3.6002,3.5513,3.597,3.5382,3.4964,3.4864,3.4724,3.4604,3.4623,3.4602,3.4602,3.4602,3.4602,3.4602,3.4695,3.4658,3.4658,3.4733,3.4924,3.5487,3.5784,3.6047,3.6671,3.7137,3.7484,3.7432,3.6862,3.6862,3.6922,3.7016,3.6948,3.6624,3.5897,3.5916,3.5994,3.5742,3.5704,3.5704,3.5704,3.5704,3.5704,3.5704,3.5704,3.5704,3.5704,3.5704,3.5704,3.5704,3.5704,3.5704,3.5704,3.5704,3.5704,3.5704,3.5704,3.5704,3.5704,3.5704,3.5704,3.5704,3.5704,3.5704,3.5704,3.5704,3.5704,3.5704,3.5781,3.6369,3.8168,3.9328,4.0681,4.0759,4.0726,4.0759,3.4376,3.4677,3.524,3.5503,3.5503,3.5484,3.5503,3.5503,3.5484,3.5484,3.5747,3.6948,3.7699,3.8056,3.8788,3.9333,3.9564,3.9276,3.9032,3.8869,3.911,3.9119,3.8949,3.9207,3.9488,3.9652,4.0023,4.0273,4.0311,4.0348,4.0329,4.0329,4.0329,4.0177,3.9852,3.9317,3.882,3.8534,3.7769,3.7234,3.6892,3.627,3.6027,3.6121,3.5833,3.5598,3.5531,3.5026,3.4706,3.4623,3.4602,3.4602,3.4602,3.4602,3.4883,3.5428,3.5503,3.5784,3.6314,3.6772,3.6885,3.7009,3.7718,3.8155,3.8061,3.8512,3.8618,3.8137,3.8191,3.818,3.7887,3.7815,3.7425,3.6651,3.7038,3.6806,3.5878,3.5704,3.5704,3.5704,3.5704,3.5704,3.5704,3.5704,3.5704,3.5704,3.5704,3.5704,3.5704,3.5704,3.5704,3.5704,3.5704,3.5704,3.5704,3.5704,3.5704,3.5704,3.5704,3.5704,3.5704,3.5704,3.5704,3.5704,3.5704,3.5704,3.5704,3.5916,3.6427,3.7641,3.9361,4.0159,4.0526,4.0681,4.0681,3.5259,3.5578,3.6104,3.6348,3.6329,3.6348,3.6348,3.6348,3.6348,3.6329,3.6629,3.7699,3.83,3.8469,3.9201,3.9602,3.962,3.9607,3.9613,3.9637,3.9665,3.9717,3.9781,3.9911,4.0015,4.0174,4.052,4.075,4.0769,4.1074,4.1074,4.0807,4.075,4.0578,4.0329,3.9775,3.947,3.9299,3.8555,3.8003,3.7661,3.7015,3.6784,3.6892,3.6352,3.6133,3.6239,3.5327,3.4706,3.4623,3.4602,3.4733,3.5015,3.5108,3.5465,3.6141,3.6366,3.6573,3.7103,3.7412,3.7826,3.7779,3.8525,3.9032,3.8869,3.9425,3.9507,3.9239,3.9061,3.9012,3.8998,3.8781,3.8431,3.7947,3.7657,3.7154,3.5994,3.5704,3.5704,3.5704,3.5704,3.5704,3.5704,3.5704,3.5704,3.5704,3.5704,3.5704,3.5704,3.5704,3.5704,3.5704,3.5704,3.5704,3.5704,3.5704,3.5704,3.5704,3.5704,3.5704,3.5704,3.5704,3.5704,3.5704,3.5704,3.5704,3.5704,3.5723,3.6137,3.7796,3.9496,4.0086,4.0607,4.0593,4.0626,3.6385,3.7084,3.7136,3.7174,3.7155,3.7155,3.7155,3.7174,3.7155,3.7155,3.7343,3.8112,3.845,3.8601,3.9276,3.962,3.9626,3.9665,3.9717,3.9739,3.9762,3.9826,3.9954,4.0057,4.0117,4.0232,4.0998,4.1399,4.1399,4.2144,4.2354,4.1476,4.1361,4.1074,4.0425,4.0253,4.012,3.9889,3.926,3.9124,3.9437,3.8137,3.758,3.826,3.6998,3.6517,3.6855,3.5807,3.483,3.4639,3.4695,3.5108,3.5709,3.5916,3.631,3.708,3.7155,3.7249,3.7249,3.7591,3.7817,3.8357,3.8525,3.8694,3.9395,3.9632,3.9758,3.9576,3.9395,3.9544,3.9996,3.9846,3.9489,3.9274,3.8121,3.6961,3.6129,3.5936,3.5781,3.5878,3.5839,3.58,3.5839,3.5762,3.5839,3.5704,3.5704,3.5704,3.5704,3.5704,3.5704,3.5704,3.5704,3.5704,3.5704,3.5704,3.5704,3.5704,3.5704,3.5704,3.5704,3.5704,3.5704,3.5704,3.5762,3.5742,3.5704,3.5723,3.6656,3.8466,3.9634,4.028,4.0549,4.0569,4.0569,3.6892,3.7136,3.7718,3.7981,3.7981,3.7981,3.7981,3.7981,3.7981,3.7981,3.8169,3.8863,3.9201,3.9276,3.947,3.9607,3.9665,3.9712,3.9826,3.9975,3.9996,4.0077,4.0176,4.0234,4.0253,4.0406,4.1208,4.1495,4.1571,4.2507,4.2412,4.1533,4.1609,4.1132,4.0406,4.0253,4.0156,4.0096,3.9804,3.9345,3.8999,3.855,3.826,3.8388,3.792,3.7699,3.7906,3.6986,3.5784,3.4733,3.524,3.5634,3.601,3.6479,3.7136,3.7831,3.8019,3.8281,3.8751,3.8888,3.9014,3.9201,3.9145,3.9376,3.9564,3.965,3.9731,3.9768,3.9762,3.9928,4.0348,4.0323,4.0028,3.9463,3.8566,3.8025,3.7909,3.6845,3.5994,3.6787,3.7251,3.6922,3.6265,3.6226,3.6342,3.5878,3.582,3.5742,3.5762,3.5839,3.5897,3.5742,3.5704,3.5704,3.5704,3.5704,3.5704,3.5704,3.5704,3.5704,3.5704,3.5704,3.5704,3.5704,3.5905,3.5963,3.58,3.5704,3.7392,3.8931,3.988,4.0519,4.0519,4.0519,4.0519,3.7793,3.8211,3.8657,3.8845,3.8845,3.8826,3.8845,3.8845,3.8845,3.8845,3.8976,3.9333,3.9626,3.9637,3.9656,3.9708,3.9781,3.9867,3.9935,4.0153,4.0519,4.0559,4.0463,4.0578,4.0807,4.096,4.1991,4.2526,4.2736,4.3384,4.3269,4.2736,4.2487,4.1875,4.0806,4.0652,4.034,3.9989,3.9848,3.9539,3.9112,3.901,3.8964,3.8846,3.8549,3.8188,3.7812,3.7624,3.6967,3.601,3.5953,3.631,3.6892,3.7211,3.7887,3.8732,3.8826,3.9089,3.947,3.962,3.962,3.962,3.962,3.962,3.962,3.962,3.9682,3.9851,3.9958,4.0177,4.0441,4.0569,4.0442,4.0101,3.9572,3.9224,3.905,3.7909,3.7386,3.7762,3.8129,3.8168,3.6891,3.7201,3.6748,3.6226,3.6497,3.6207,3.5936,3.6052,3.611,3.6033,3.5839,3.58,3.5723,3.5704,3.6168,3.6168,3.6187,3.6091,3.5955,3.5936,3.5963,3.6041,3.6137,3.6145,3.6049,3.623,3.7347,3.8719,3.9831,4.0489,4.0489,4.0489,4.0489,3.8882,3.962,3.962,3.962,3.9583,3.9602,3.9526,3.9583,3.9545,3.9545,3.9564,3.9583,3.9656,3.9693,3.9735,3.9804,3.9933,4.0015,4.021,4.0519,4.0959,4.1151,4.096,4.1418,4.1609,4.1819,4.3251,4.3689,4.3838,4.4535,4.4557,4.3817,4.364,4.2873,4.1656,4.1273,4.071,4.0083,3.9769,3.9665,3.9556,3.9626,3.9639,3.9376,3.8925,3.8432,3.8112,3.8112,3.8056,3.7422,3.6817,3.7174,3.8094,3.8056,3.8544,3.9282,3.947,3.9526,3.9602,3.962,3.962,3.962,3.962,3.962,3.962,3.962,3.9675,3.9871,4.0081,4.0232,4.0473,4.066,4.0739,4.0616,4.0655,3.9978,3.903,3.8953,3.9069,3.8612,3.903,3.8941,3.8658,3.8272,3.7889,3.7773,3.7677,3.7096,3.6845,3.6884,3.6767,3.6497,3.6226,3.5897,3.58,3.5704,3.6361,3.6787,3.6884,3.6806,3.6516,3.6458,3.6447,3.6532,3.6895,3.6825,3.6484,3.698,3.8001,3.8878,4.0273,4.0489,4.0489,4.0489,4.0489,3.9408,3.962,3.962,3.962,3.962,3.962,3.962,3.962,3.962,3.962,3.9626,3.9679,3.9689,3.9717,3.9823,3.9933,4.0055,4.0193,4.0461,4.1208,4.1342,4.1877,4.2125,4.2507,4.2466,4.2673,4.3338,4.3767,4.3965,4.4474,4.4526,4.3847,4.3753,4.3156,4.2265,4.1571,4.1009,4.0594,4.0032,3.972,3.9883,4.0215,4.0215,3.9783,3.9445,3.9633,3.9821,3.9558,3.9263,3.8901,3.8338,3.8037,3.8394,3.8863,3.9258,3.9489,3.962,3.962,3.962,3.962,3.962,3.962,3.962,3.962,3.962,3.9602,3.9705,3.9851,3.9946,4.0196,4.0473,4.0673,4.0778,4.079,4.0771,4.0655,4.0326,4.0288,4.021,4.021,4.023,4.0365,4.0178,3.9475,3.9262,3.9379,3.8895,3.816,3.787,3.7715,3.7522,3.7212,3.698,3.669,3.6245,3.64,3.7232,3.7735,3.7851,3.7502,3.7212,3.7212,3.7278,3.7513,3.7842,3.7675,3.7527,3.845,3.9615,4.0196,4.0546,4.0658,4.0696,4.062,4.0739,3.962,3.962,3.962,3.962,3.962,3.962,3.962,3.962,3.962,3.962,3.9626,3.9665,3.9717,3.9804,3.9951,4.0057,4.0271,4.0615,4.0997,4.1628,4.2202,4.2927,4.3266,4.3628,4.3681,4.3368,4.395,4.4223,4.4383,4.4543,4.4638,4.4245,4.4121,4.3737,4.3037,4.2359,4.1989,4.1368,4.0641,4.0309,4.0741,4.0703,4.0947,4.0628,4.0422,4.0534,4.1173,4.0159,4.0103,4.0196,3.9577,3.892,3.892,3.9314,3.9583,3.962,3.962,3.962,3.962,3.962,3.962,3.962,3.962,3.962,3.9626,3.9679,3.9813,4.0005,4.0138,4.0321,4.0598,4.07,4.079,4.079,4.079,4.079,4.079,4.079,4.079,4.079,4.0713,4.0732,4.0558,4.0191,4.0172,4.0094,4.0094,3.9379,3.8353,3.8237,3.8276,3.8083,3.7851,3.7502,3.6922,3.7232,3.8276,3.876,3.905,3.8489,3.7889,3.8044,3.8226,3.8459,3.8653,3.9119,3.922,4.0235,4.0546,4.0677,4.0773,4.0889,4.1135,4.1386,4.1466,3.962,3.962,3.962,3.962,3.962,3.962,3.962,3.962,3.962,3.962,3.9626,3.9689,3.9804,3.9911,4.0076,4.0233,4.0597,4.1055,4.1494,4.2238,4.3132,4.374,4.4097,4.4429,4.4497,4.4045,4.4483,4.4751,4.472,4.4719,4.4636,4.4758,4.47,4.4233,4.3743,4.3441,4.2975,4.2213,4.1417,4.121,4.1736,4.1492,4.1736,4.2168,4.1436,4.1436,4.1755,4.106,4.0609,4.1792,4.0591,3.9915,3.9746,3.9639,3.962,3.962,3.962,3.962,3.962,3.962,3.962,3.962,3.962,3.9639,3.9688,3.9796,3.9982,4.0211,4.0403,4.0583,4.0778,4.079,4.079,4.079,4.079,4.079,4.079,4.079,4.079,4.079,4.079,4.079,4.079,4.0616,4.0732,4.079,4.0771,4.0481,3.9456,3.8934,3.9088,3.9224,3.9088,3.905,3.8547,3.8334,3.934,3.9553,3.9959,3.9495,3.8837,3.9127,3.9347,3.9213,3.9444,3.9865,4.0092,4.0331,4.062,4.0812,4.1328,4.1786,4.2036,4.221,4.229,3.962,3.962,3.962,3.962,3.962,3.962,3.962,3.962,3.9602,3.962,3.9626,3.9777,3.9889,3.9973,4.0176,4.0577,4.1109,4.1546,4.2155,4.3028,4.3745,4.406,4.4672,4.4724,4.4663,4.4612,4.47,4.4685,4.4605,4.4542,4.4578,4.4578,4.4551,4.4382,4.4137,4.3735,4.3404,4.3013,4.228,4.2018,4.2243,4.2637,4.3069,4.3613,4.2524,4.2355,4.2675,4.2168,4.1755,4.186,4.1079,4.0685,4.0478,4.0027,3.9752,3.962,3.962,3.962,3.962,3.9602,3.962,3.962,3.965,3.9758,3.9844,3.9898,4.0139,4.0389,4.0615,4.0765,4.079,4.0926,4.0829,4.0829,4.0887,4.0848,4.0829,4.079,4.079,4.079,4.079,4.079,4.079,4.079,4.079,4.079,4.079,4.0771,4.0268,4.0075,4.0249,4.0365,4.0462,4.0442,4.0326,4.0152,4.0404,4.0307,4.0481,4.0481,4.0113,4.0384,4.0468,4.0217,4.0171,4.0386,4.0549,4.0543,4.0816,4.1158,4.1925,4.2765,4.271,4.2714,4.333,3.962,3.962,3.962,3.962,3.962,3.962,3.9626,3.9618,3.9661,3.9703,3.9796,3.9911,4.0015,4.0171,4.0692,4.1322,4.1848,4.2389,4.2978,4.3677,4.4085,4.4397,4.4876,4.4745,4.4659,4.4605,4.4578,4.4578,4.4496,4.4515,4.4496,4.4496,4.4496,4.4496,4.4458,4.4158,4.3914,4.3707,4.3144,4.29,4.3219,4.3745,4.4158,4.4026,4.3482,4.32,4.3501,4.26,4.2479,4.2798,4.183,4.1342,4.1154,4.0797,4.0159,3.9789,3.9658,3.962,3.9626,3.9679,3.9754,3.9777,3.9845,4.0201,4.0428,4.0494,4.0413,4.0602,4.0732,4.0984,4.139,4.1409,4.1429,4.1409,4.139,4.1197,4.0945,4.0848,4.0848,4.0848,4.081,4.081,4.079,4.079,4.079,4.079,4.079,4.079,4.079,4.079,4.079,4.079,4.0771,4.0771,4.0771,4.079,4.079,4.079,4.0829,4.0829,4.0906,4.0926,4.1087,4.1087,4.1084,4.1306,4.0718,4.0631,4.1058,4.1623,4.2489,4.3162,4.3121,4.3294,4.3968,3.962,3.962,3.962,3.962,3.962,3.9626,3.9637,3.9693,3.9717,3.9804,3.9911,4.0036,4.0096,4.0327,4.1015,4.1834,4.2563,4.3189,4.3577,4.3975,4.4399,4.4726,4.4719,4.4659,4.4605,4.4524,4.4515,4.4496,4.4496,4.4496,4.4496,4.4496,4.4496,4.4496,4.4458,4.4421,4.4496,4.4308,4.3951,4.3951,4.4346,4.4496,4.4496,4.4496,4.3876,4.3857,4.4195,4.3407,4.3351,4.352,4.2806,4.1773,4.2055,4.1586,4.0854,4.0215,3.9952,3.9808,3.9741,4.0065,4.0157,3.9975,4.0272,4.0705,4.0952,4.0902,4.0945,4.1074,4.1351,4.1641,4.2183,4.226,4.226,4.2202,4.2067,4.1835,4.1506,4.1274,4.11,4.1042,4.0906,4.0829,4.0829,4.079,4.079,4.079,4.079,4.079,4.079,4.079,4.079,4.079,4.079,4.079,4.079,4.079,4.079,4.079,4.0868,4.0906,4.1042,4.1177,4.1461,4.1898,4.2454,4.2502,4.1639,4.1243,4.2156,4.2912,4.3359,4.359,4.3662,4.4105,4.4833,3.962,3.962,3.962,3.962,3.9602,3.9642,3.9693,3.9717,3.9826,3.9889,3.9933,4.0055,4.0136,4.0459,4.1049,4.1784,4.2545,4.3239,4.3863,4.4372,4.4538,4.4632,4.4659,4.4597,4.457,4.4496,4.4496,4.4496,4.4496,4.4496,4.4496,4.4496,4.4496,4.4496,4.4496,4.4496,4.4496,4.4477,4.4383,4.4383,4.4505,4.4524,4.4524,4.4486,4.4402,4.4327,4.4477,4.4045,4.4252,4.4195,4.3407,4.29,4.29,4.1886,4.1605,4.1379,4.1086,4.0427,4.0239,4.0634,4.0857,4.0692,4.0959,4.096,4.1245,4.1726,4.2066,4.2286,4.2609,4.2918,4.3073,4.315,4.315,4.2937,4.2686,4.2705,4.2531,4.1893,4.168,4.1448,4.139,4.1042,4.0848,4.0829,4.079,4.079,4.079,4.079,4.079,4.079,4.079,4.079,4.079,4.079,4.079,4.079,4.0848,4.0829,4.1042,4.1139,4.139,4.1706,4.2331,4.2806,4.3361,4.3682,4.3146,4.3134,4.3737,4.4124,4.4491,4.4434,4.4278,4.4893,4.549,3.962,3.962,3.962,3.9626,3.9642,3.9693,3.9785,3.9914,3.9994,4.0057,4.0117,4.0176,4.0692,4.1415,4.1901,4.2663,4.3596,4.3875,4.4165,4.4447,4.4486,4.4505,4.457,4.4542,4.4496,4.4496,4.4496,4.4496,4.4496,4.4496,4.4496,4.4496,4.4496,4.4496,4.4496,4.4496,4.4496,4.4505,4.4576,4.4655,4.4681,4.4681,4.4636,4.4636,4.456,4.4496,4.4496,4.4496,4.4496,4.4439,4.3951,4.3613,4.3444,4.305,4.29,4.1942,4.2329,4.2054,4.1541,4.1787,4.1781,4.1909,4.2165,4.2383,4.2318,4.2816,4.3189,4.2937,4.315,4.3518,4.3943,4.404,4.404,4.3866,4.3518,4.3363,4.3305,4.2783,4.2357,4.2106,4.1893,4.1738,4.1467,4.1177,4.1119,4.0945,4.0887,4.079,4.079,4.079,4.079,4.079,4.079,4.079,4.079,4.081,4.0938,4.1042,4.1564,4.1699,4.1919,4.2331,4.3013,4.3279,4.3466,4.3821,4.4229,4.4427,4.4487,4.4989,4.5547,4.5166,4.4803,4.5068,4.5494,3.9631,3.9607,3.965,3.9684,3.9739,3.9785,3.9911,4.0077,4.0137,4.0215,4.0349,4.054,4.1361,4.2314,4.2582,4.3189,4.4094,4.4237,4.4223,4.4214,4.4252,4.4308,4.4439,4.4496,4.4496,4.4496,4.4496,4.4496,4.4496,4.4496,4.4496,4.4496,4.4496,4.4496,4.4515,4.456,4.4621,4.4751,4.4764,4.4819,4.4868,4.4764,4.4764,4.4714,4.4602,4.4496,4.4496,4.4496,4.4496,4.4477,4.4458,4.412,4.382,4.3933,4.3764,4.316,4.3416,4.3592,4.3197,4.3175,4.3118,4.3115,4.3221,4.3167,4.351,4.4208,4.4634,4.404,4.4078,4.4407,4.4697,4.4891,4.4891,4.4794,4.4581,4.4291,4.3943,4.344,4.3363,4.3576,4.3343,4.2957,4.257,4.1893,4.1506,4.1177,4.0984,4.0848,4.079,4.079,4.079,4.079,4.079,4.0868,4.1003,4.1003,4.1093,4.148,4.197,4.2473,4.2847,4.3245,4.3815,4.3906,4.3863,4.4311,4.4913,4.5028,4.5124,4.5339,4.5495,4.5419,4.5304,4.5457,4.538,3.9693,3.9693,3.9693,3.9762,3.9889,4.0015,4.0077,4.0118,4.0234,4.0311,4.052,4.1017,4.1437,4.197,4.2791,4.3076,4.2749,4.3163,4.3396,4.3444,4.3444,4.3914,4.4252,4.4496,4.4496,4.4496,4.4496,4.4496,4.4496,4.4496,4.4496,4.4496,4.4496,4.4496,4.456,4.4681,4.4789,4.4887,4.4868,4.4896,4.4915,4.4814,4.4655,4.4739,4.4621,4.4496,4.4496,4.4496,4.4496,4.4496,4.4496,4.4496,4.4289,4.4383,4.4177,4.4137,4.4235,4.4474,4.4424,4.4212,4.3885,4.3525,4.3485,4.3827,4.4253,4.4432,4.4819,4.5278,4.5142,4.5336,4.5568,4.5703,4.5529,4.5394,4.52,4.5065,4.4639,4.4078,4.4136,4.4813,4.4736,4.4214,4.3885,4.3247,4.2415,4.2067,4.1313,4.1139,4.0848,4.079,4.079,4.079,4.079,4.0945,4.1293,4.1564,4.2215,4.2602,4.3008,4.3556,4.4059,4.4443,4.455,4.4735,4.4746,4.5186,4.5322,4.4959,4.4863,4.5247,4.54,4.5322,4.5137,4.5049,4.4972,3.9305,3.9826,3.9911,3.9975,4.0017,4.0096,4.0137,4.0215,4.0272,4.0616,4.1074,4.138,4.2087,4.2829,4.2677,4.3038,4.3071,4.2617,4.2908,4.3182,4.3388,4.3801,4.4252,4.4496,4.4496,4.4496,4.4496,4.4496,4.4496,4.4496,4.4496,4.4496,4.4496,4.4595,4.4662,4.472,4.4795,4.4789,4.4819,4.4872,4.4849,4.4819,4.472,4.477,4.4595,4.4496,4.4496,4.4496,4.4496,4.4496,4.4496,4.4496,4.4496,4.4496,4.4496,4.4524,4.4688,4.4825,4.5011,4.4978,4.4958,4.4964,4.4871,4.4871,4.5065,4.5258,4.5432,4.5703,4.58,4.58,4.58,4.578,4.5742,4.5703,4.5645,4.5587,4.5316,4.4755,4.4697,4.5297,4.5413,4.52,4.4949,4.4678,4.3769,4.2937,4.2106,4.1429,4.1255,4.1003,4.1042,4.0848,4.079,4.2338,4.2879,4.3208,4.3511,4.3711,4.3982,4.4288,4.4669,4.4927,4.5072,4.5304,4.5244,4.5101,4.4887,4.4524,4.4603,4.5046,4.5222,4.5262,4.5026,4.4695,4.4602,3.9164,3.9612,4.0002,4.0157,4.0157,4.0157,4.0196,4.033,4.0578,4.1113,4.1896,4.2163,4.2832,4.3573,4.3589,4.3246,4.3312,4.2737,4.2739,4.29,4.3125,4.3613,4.4177,4.4496,4.4496,4.4496,4.4496,4.4496,4.4496,4.4496,4.4496,4.4496,4.4496,4.4587,4.4655,4.477,4.4745,4.4764,4.4739,4.4872,4.4896,4.4764,4.4745,4.4745,4.4595,4.4496,4.4496,4.4496,4.4496,4.4496,4.4496,4.4496,4.4496,4.4496,4.4496,4.456,4.4655,4.4795,4.4919,4.5206,4.5558,4.5539,4.5626,4.5684,4.58,4.58,4.5761,4.578,4.58,4.58,4.58,4.58,4.58,4.5761,4.5761,4.5703,4.5722,4.5394,4.5471,4.5703,4.5703,4.5645,4.5548,4.52,4.4388,4.3711,4.3382,4.2647,4.2164,4.1854,4.1506,4.1197,4.079,4.2841,4.4929,4.4703,4.4476,4.4476,4.4679,4.4688,4.497,4.517,4.5206,4.5163,4.503,4.4776,4.4569,4.4336,4.4554,4.4905,4.4919,4.4819,4.4624,4.4336,4.4308,3.9404,3.8975,3.9891,4.0291,4.0272,4.0291,4.0311,4.052,4.1189,4.1953,4.2794,4.3443,4.3845,4.4088,4.4159,4.382,4.3199,4.2354,4.2262,4.2769,4.26,4.3163,4.4008,4.4496,4.4496,4.4496,4.4496,4.4496,4.4496,4.4496,4.4496,4.4496,4.4496,4.4542,4.4505,4.4714,4.4915,4.5094,4.4868,4.4915,4.4934,4.47,4.4655,4.4662,4.4595,4.4496,4.4496,4.4496,4.4496,4.4496,4.4496,4.4496,4.4496,4.4496,4.4496,4.4524,4.4662,4.477,4.4825,4.5265,4.5507,4.5703,4.5752,4.5761,4.58,4.58,4.58,4.58,4.58,4.58,4.58,4.58,4.58,4.5771,4.5737,4.5737,4.5737,4.5737,4.5723,4.5786,4.58,4.58,4.58,4.5568,4.4813,4.4388,4.4388,4.3904,4.3131,4.2686,4.2241,4.2125,4.1757,4.3073,4.5007,4.5462,4.5486,4.5433,4.5244,4.5109,4.4977,4.502,4.5026,4.4981,4.4726,4.4457,4.4365,4.426,4.443,4.4519,4.4336,4.4181,4.4048,4.4048,4.4091,3.88,3.9679,4.012,4.0329,4.0329,4.0329,4.0597,4.1208,4.1991,4.2813,4.352,4.394,4.438,4.4489,4.3707,4.3232,4.2688,4.1116,4.1004,4.2355,4.2123,4.3144,4.4045,4.4496,4.4496,4.4496,4.4496,4.4496,4.4496,4.4496,4.4496,4.4496,4.4496,4.4496,4.456,4.4681,4.4819,4.4732,4.4648,4.4648,4.4726,4.4587,4.4505,4.4621,4.4524,4.4496,4.4496,4.4496,4.4496,4.4496,4.4496,4.4496,4.4496,4.4496,4.4496,4.4496,4.4595,4.4681,4.477,4.5011,4.5225,4.5451,4.5611,4.5655,4.5761,4.58,4.58,4.58,4.5771,4.5786,4.58,4.58,4.5752,4.561,4.5594,4.5574,4.5574,4.5574,4.561,4.5737,4.58,4.5771,4.5771,4.5692,4.5079,4.4804,4.4766,4.4249,4.351,4.3311,4.3034,4.3227,4.3285,4.4059,4.4916,4.5301,4.5475,4.5314,4.5225,4.514,4.5038,4.4846,4.4758,4.4688,4.4421,4.4151,4.4121,4.414,4.4067,4.4036,4.4005,4.4005,4.4005,4.4036,4.4036,3.8592,3.9738,4.0139,4.0329,4.0329,4.0329,4.0769,4.1571,4.2412,4.3271,4.394,4.4284,4.4703,4.4639,4.371,4.2829,4.2593,4.1009,4.0954,4.2224,4.2093,4.3106,4.4026,4.4496,4.4496,4.4496,4.4496,4.4496,4.4496,4.4496,4.4496,4.4496,4.4496,4.4496,4.4532,4.4595,4.4629,4.4578,4.4524,4.4524,4.4551,4.4496,4.4496,4.4496,4.4496,4.4496,4.4496,4.4496,4.4496,4.4496,4.4496,4.4496,4.4496,4.4496,4.4496,4.4496,4.4496,4.4587,4.4655,4.4688,4.4896,4.5166,4.5316,4.5456,4.5574,4.5547,4.5545,4.556,4.5642,4.5642,4.561,4.5607,4.561,4.5454,4.5399,4.5399,4.5472,4.5472,4.5507,4.5642,4.5692,4.5658,4.5626,4.5577,4.5316,4.5216,4.5134,4.4527,4.4017,4.3974,4.3897,4.4071,4.423,4.4735,4.4987,4.5074,4.5189,4.5175,4.5073,4.4981,4.4775,4.4542,4.4477,4.4383,4.4229,4.4079,4.4036,4.4005,4.4005,4.4005,4.4005,4.4005,4.4005,4.4005,4.4005,3.8784,3.9108,3.9947,4.0329,4.0329,4.0329,4.0769,4.1571,4.2431,4.3233,4.3978,4.4647,4.4777,4.4687,4.3942,4.3312,4.2899,4.1467,4.1914,4.2532,4.2431,4.3407,4.4064,4.4496,4.4496,4.4496,4.4496,4.4496,4.4496,4.4496,4.4496,4.4496,4.4496,4.4496,4.4496,4.4524,4.4524,4.4496,4.4496,4.4496,4.4496,4.4496,4.4496,4.4496,4.4496,4.4496,4.4496,4.4496,4.4496,4.4496,4.4496,4.4496,4.4496,4.4496,4.4496,4.4496,4.4496,4.4524,4.4524,4.4532,4.4595,4.4872,4.5025,4.5147,4.5263,4.5354,4.5371,4.5359,4.54,4.5323,4.5284,4.5343,4.5399,4.5284,4.5201,4.5244,4.5381,4.5418,4.5418,4.5454,4.5454,4.5418,4.5362,4.5303,4.5304,4.5285,4.517,4.5055,4.4689,4.4876,4.4837,4.4858,4.5031,4.5223,4.5285,4.5014,4.4925,4.4881,4.4753,4.4613,4.4401,4.4322,4.4314,4.4248,4.4097,4.4023,4.4005,4.4005,4.4005,4.4005,4.4005,4.4005,4.4005,4.4005,4.4005,3.8193,3.8937,3.9891,4.0329,4.0329,4.0329,4.075,4.1552,4.2412,4.2985,4.3176,4.3405,4.3611,4.3238,4.24,4.2041,4.1676,4.1429,4.1669,4.2126,4.2769,4.3576,4.4158,4.4496,4.4496,4.4496,4.4496,4.4496,4.4496,4.4496,4.4496,4.4496,4.4496,4.4496,4.4496,4.4496,4.4496,4.4496,4.4496,4.4496,4.4496,4.4496,4.4496,4.4496,4.4496,4.4496,4.4487,4.4487,4.4487,4.4515,4.4515,4.4515,4.4496,4.4496,4.4496,4.4496,4.4496,4.4496,4.4496,4.4496,4.4551,4.4587,4.4695,4.4938,4.5095,4.5219,4.5217,4.5171,4.5141,4.5118,4.5113,4.5161,4.514,4.503,4.4957,4.5007,4.5099,4.5142,4.5163,4.5225,4.5225,4.514,4.5071,4.5068,4.5071,4.5159,4.5161,4.5118,4.512,4.5204,4.5223,4.5203,4.5203,4.5182,4.5052,4.4838,4.4716,4.4602,4.4471,4.4364,4.4293,4.4221,4.4184,4.4135,4.4055,4.4023,4.4005,4.4005,4.4005,4.4005,4.4005,4.4005,4.4005,4.4005,4.4005,3.7945,3.888,3.9891,4.0329,4.0329,4.0329,4.0616,4.1151,4.1934,4.2297,4.2335,4.2679,4.2714,4.2555,4.189,4.154,4.1657,4.1312,4.1618,4.2742,4.3096,4.3726,4.4252,4.4496,4.4496,4.4496,4.4496,4.4496,4.4496,4.4496,4.4496,4.4496,4.4496,4.4496,4.4496,4.4496,4.4496,4.4496,4.4496,4.4496,4.4496,4.4496,4.4496,4.4496,4.4496,4.4487,4.4487,4.4487,4.4458,4.4458,4.4458,4.4458,4.4458,4.4487,4.4411,4.4411,4.444,4.444,4.4458,4.4487,4.4515,4.4515,4.4515,4.4667,4.4782,4.4889,4.4896,4.4859,4.4903,4.494,4.4957,4.4957,4.4838,4.4732,4.4714,4.4739,4.477,4.48,4.4872,4.4985,4.4957,4.4881,4.4827,4.4827,4.4802,4.4808,4.4833,4.4808,4.4819,4.4919,4.4891,4.4862,4.4881,4.4881,4.4751,4.4655,4.4549,4.4403,4.4252,4.4188,4.416,4.4129,4.4104,4.4085,4.4055,4.4005,4.4005,4.4005,4.4005,4.4098,4.4172,4.4061,4.4042,4.4005,4.4005,3.7831,3.8766,3.9853,4.0291,4.0291,4.0291,4.0329,4.0406,4.1113,4.1418,4.1552,4.2202,4.2333,4.1907,4.1435,4.1584,4.1677,4.1533,4.2068,4.3467,4.3536,4.397,4.4327,4.4496,4.4496,4.4496,4.4496,4.4496,4.4496,4.4496,4.4496,4.4496,4.4496,4.4496,4.4496,4.4496,4.4496,4.4496,4.4496,4.4496,4.4496,4.4496,4.4496,4.4496,4.4468,4.4468,4.4411,4.4411,4.4401,4.4373,4.4373,4.4373,4.4401,4.443,4.4373,4.4325,4.4354,4.4383,4.4401,4.443,4.4458,4.4458,4.4505,4.4542,4.4607,4.4672,4.467,4.4678,4.4708,4.4726,4.4719,4.4758,4.47,4.4621,4.4595,4.4621,4.4681,4.4688,4.4714,4.4764,4.4732,4.4667,4.4667,4.464,4.4667,4.4587,4.4578,4.4578,4.4613,4.4714,4.4681,4.4613,4.4667,4.4693,4.4587,4.4486,4.4383,4.4252,4.4114,4.406,4.4073,4.4042,4.4023,4.4005,4.4005,4.4005,4.4005,4.4005,4.4209,4.4674,4.4618,4.4228,4.4135,4.4233,4.4636,3.7034,3.8042,3.9643,4.0234,4.0157,4.0253,4.0329,4.0329,4.0482,4.0635,4.0654,4.0826,4.0902,4.086,4.0807,4.1052,4.1513,4.1973,4.264,4.3485,4.3893,4.412,4.4458,4.4496,4.4496,4.4496,4.4496,4.4496,4.4496,4.4496,4.4496,4.4496,4.4496,4.4496,4.4496,4.4496,4.4496,4.4496,4.4496,4.4496,4.4496,4.4496,4.4496,4.4515,4.4468,4.444,4.4411,4.4383,4.4354,4.4344,4.4314,4.4314,4.4344,4.4344,4.4314,4.4314,4.4296,4.4314,4.4344,4.4344,4.4373,4.4373,4.4391,4.4401,4.443,4.4458,4.4515,4.4524,4.4524,4.4524,4.4524,4.456,4.456,4.4524,4.4496,4.4532,4.4587,4.4568,4.4568,4.456,4.4524,4.4515,4.4496,4.4468,4.4496,4.4496,4.4496,4.4524,4.4524,4.4587,4.4568,4.4532,4.4524,4.4524,4.444,4.4335,4.425,4.4202,4.4102,4.4048,4.4042,4.4005,4.4005,4.4005,4.4005,4.4005,4.4005,4.4005,4.4321,4.4952,4.5324,4.5045,4.4907,4.4967,4.5519,3.6501,3.7186,3.8956,3.991,4.0158,4.0253,4.0329,4.0329,4.0329,4.0329,4.0329,4.0291,4.0273,4.0195,4.0273,4.1016,4.1705,4.2166,4.3094,4.3875,4.424,4.4364,4.4496,4.4496,4.4496,4.4496,4.4496,4.4496,4.4496,4.4496,4.4496,4.4496,4.4496,4.4496,4.4496,4.4496,4.4496,4.4496,4.4496,4.4496,4.4496,4.4515,4.4496,4.4515,4.444,4.4411,4.4354,4.4325,4.4285,4.4255,4.4285,4.4226,4.4226,4.4226,4.4207,4.4177,4.4207,4.4255,4.4274,4.4274,4.4285,4.4285,4.4285,4.4344,4.4354,4.4383,4.444,4.4468,4.4496,4.4496,4.4496,4.4524,4.4524,4.4496,4.4496,4.4524,4.4551,4.4551,4.4532,4.4524,4.4496,4.4496,4.4468,4.4401,4.443,4.4468,4.4468,4.4468,4.4468,4.4487,4.4468,4.4468,4.4468,4.4487,4.4487,4.4325,4.4109,4.4079,4.4228,4.4364,4.4488,4.4172,4.4005,4.4265,4.4302,4.4005,4.4005,4.4098,4.4636,4.5324,4.5732,4.5941,4.5838,4.5805,4.6376,3.6178,3.6615,3.8289,3.9509,4.0215,4.0272,4.0329,4.0329,4.0329,4.0329,4.0291,4.0272,4.0311,4.0463,4.0502,4.1568,4.2319,4.2635,4.3542,4.4233,4.4495,4.4515,4.4496,4.4496,4.4496,4.4496,4.4496,4.4496,4.4496,4.4496,4.4496,4.4496,4.4496,4.4496,4.4496,4.4496,4.4496,4.4496,4.4496,4.4496,4.4515,4.4487,4.4487,4.4468,4.4411,4.4354,4.4285,4.4226,4.4214,4.4165,4.4177,4.4147,4.4116,4.4116,4.4085,4.4085,4.4116,4.4165,4.4184,4.4195,4.4226,4.4237,4.4255,4.4266,4.4296,4.4325,4.4354,4.4383,4.444,4.4468,4.4468,4.4515,4.4515,4.4496,4.4496,4.4496,4.4496,4.4496,4.4496,4.4496,4.4496,4.4496,4.444,4.4373,4.441,4.4468,4.4477,4.4487,4.4468,4.4458,4.4458,4.4411,4.4411,4.4458,4.4487,4.4397,4.4203,4.4711,4.4934,4.4952,4.4915,4.4674,4.4636,4.4896,4.4804,4.4413,4.4265,4.4339,4.4952,4.5769,4.6206,4.6578,4.6724,4.6817,4.7265,3.6102,3.7433,3.8536,3.9433,4.0099,4.0253,4.0329,4.0329,4.0291,4.0329,4.0273,4.0233,4.0481,4.1266,4.1167,4.1922,4.3092,4.3194,4.3744,4.4553,4.4551,4.4515,4.4496,4.4496,4.4496,4.4496,4.4496,4.4496,4.4496,4.4496,4.4496,4.4496,4.4496,4.4496,4.4496,4.4496,4.4468,4.4468,4.4487,4.4487,4.444,4.444,4.4458,4.443,4.4373,4.4344,4.4304,4.4244,4.4135,4.4085,4.4067,4.4036,4.4036,4.4036,4.4005,4.4005,4.4036,4.4055,4.4085,4.4085,4.4116,4.4116,4.4116,4.4147,4.4177,4.4226,4.4255,4.4314,4.4373,4.4411,4.444,4.4487,4.4487,4.4515,4.4496,4.4496,4.4496,4.4496,4.4496,4.4496,4.4496,4.4468,4.4411,4.4448,4.4576,4.4653,4.4757,4.4739,4.489,4.4721,4.4561,4.4551,4.456,4.4411,4.4458,4.4561,4.4581,4.5148,4.5578,4.5588,4.5491,4.5231,4.5268,4.5695,4.5342,4.4859,4.4748,4.4692,4.5547,4.6341,4.6818,4.7173,4.7415,4.7593,4.7856]},{"header":{"parameterUnit":"m.s-1","parameterCategory":1,"la1":31.0,"la2":29.5877,"lo1":-88.7671,"lo2":-86.6584,"dx":0.0162,"dy":0.0185,"nx":115,"ny":88,"refTime":"2023-02-05T00:00:00:Z","depth":0,"parameterNumber":3,"parameterNumberName":"V-component_of_WINDS"},"data":[0.0,0.0,0.0,0.0,0.0,0.0,0.0,0.0,0.0,0.0,0.0,0.0,0.0,0.0,0.0,0.0,0.0,0.0,0.0,0.0,0.0,0.0,0.0,0.0,0.0,0.0,0.0,0.0,0.0,0.0,0.0,0.0,0.0,0.0,0.0,0.0,0.0,0.0,0.0,0.0,0.0,0.0,0.0,0.0,0.0,0.0,0.0,0.0,0.0,0.0,0.0,0.0,0.0,0.0,0.0,0.0,0.0,0.0,0.0,0.0,0.0,0.0,0.0,0.0,0.0,0.0,0.0,0.0,0.0,0.0,0.0,0.0,0.0,0.0,0.0,0.0,0.0,0.0,0.0,0.0,0.0,0.0,0.0,0.0,0.0,0.0,0.0,0.0,0.0,0.0,0.0,0.0,0.0,0.0,0.0,0.0,0.0,0.0,0.0,0.0,0.0,0.0,0.0,0.0,0.0,0.0,0.0,0.0,0.0,0.0,0.0,0.0,0.0,0.0,0.0,0.0,0.0,0.0,0.0,0.0,0.0,0.0,0.0,0.0,0.0,0.0,0.0,0.0,0.0,0.0,0.0,0.0,0.0,0.0,0.0,0.0,0.0,0.0,0.0,0.0,0.0,0.0,0.0,0.0,0.0,0.0,0.0,0.0,0.0,0.0,0.0,0.0,0.0,0.0,0.0,0.0,0.0,0.0,0.0,0.0,0.0,0.0,0.0,0.0,0.0,0.0,0.0,0.0,0.0,0.0,0.0,0.0,0.0,0.0,0.0,0.0,0.0,0.0,0.0,0.0,0.0,0.0,0.0,0.0,0.0,0.0,0.0,0.0,0.0,0.0,0.0,0.0,0.0,0.0,0.0,0.0,0.0,0.0,0.0,0.0,0.0,0.0,0.0,0.0,0.0,0.0,0.0,0.0,0.0,0.0,0.0,0.0,0.0,0.0,0.0,0.0,0.0,0.0,0.0,0.0,0.0,0.0,0.0,0.0,0.0,0.0,0.0,0.0,0.0,0.0,0.0,0.0,0.0,0.0,0.0,0.0,0.0,0.0,0.0,0.0,0.0,0.0,0.0,0.0,0.0,0.0,0.0,0.0,0.0,0.0,0.0,0.0,0.0,0.0,0.0,0.0,0.0,0.0,0.0,0.0,0.0,0.0,0.0,0.0,0.0,0.0,0.0,0.0,0.0,0.0,0.0,0.0,0.0,0.0,0.0,0.0,0.0,0.0,0.0,0.0,0.0,0.0,0.0,0.0,0.0,0.0,0.0,0.0,0.0,0.0,0.0,0.0,0.0,0.0,0.0,0.0,0.0,0.0,0.0,0.0,0.0,0.0,0.0,0.0,0.0,0.0,0.0,0.0,0.0,0.0,0.0,0.0,0.0,0.0,0.0,0.0,0.0,0.0,0.0,0.0,0.0,0.0,0.0,0.0,0.0,0.0,0.0,0.0,0.0,0.0,0.0,0.0,0.0,0.0,0.0,0.0,0.0,0.0,0.0,0.0,0.0,0.0,0.0,0.0,0.0,0.0,0.0,0.0,0.0,0.0,0.0,0.0,0.0,0.0,0.0,0.0,0.0,0.0,0.0,0.0,0.0,0.0,0.0,0.0,0.0,0.0,0.0,0.0,0.0,0.0,0.0,0.0,0.0,0.0,0.0,0.0,0.0,0.0,0.0,0.0,0.0,0.0,0.0,0.0,0.0,0.0,0.0,0.0,0.0,0.0,0.0,0.0,0.0,0.0,0.0,0.0,0.0,0.0,0.0,0.0,0.0,0.0,0.0,0.0,0.0,0.0,0.0,0.0,0.0,0.0,0.0,0.0,0.0,0.0,0.0,0.0,0.0,0.0,0.0,0.0,0.0,0.0,0.0,0.0,0.0,0.0,0.0,0.0,0.0,0.0,0.0,0.0,0.0,0.0,0.0,0.0,0.0,0.0,0.0,0.0,0.0,0.0,0.0,0.0,0.0,0.0,0.0,0.0,0.0,0.0,0.0,0.0,0.0,0.0,0.0,0.0,0.0,0.0,0.0,0.0,0.0,0.0,0.0,0.0,0.0,0.0,0.0,0.0,0.0,0.0,0.0,0.0,0.0,0.0,0.0,0.0,0.0,0.0,0.0,0.0,0.0,0.0,0.0,0.0,0.0,0.0,0.0,0.0,0.0,0.0,0.0,0.0,0.0,0.0,0.0,0.0,0.0,0.0,0.0,0.0,0.0,0.0,0.0,0.0,0.0,0.0,0.0,0.0,0.0,0.0,0.0,0.0,0.0,0.0,0.0,0.0,0.0,0.0,0.0,0.0,0.0,0.0,0.0,0.0,0.0,0.0,0.0,0.0,0.0,0.0,0.0,0.0,0.0,0.0,0.0,0.0,0.0,0.0,0.0,0.0,0.0,0.0,0.0,0.0,0.0,0.0,0.0,0.0,0.0,0.0,0.0,0.0,0.0,0.0,0.0,0.0,0.0,0.0,0.0,0.0,0.0,0.0,0.0,0.0,0.0,0.0,0.0,0.0,0.0,0.0,0.0,0.0,0.0,0.0,0.0,0.0,0.0,0.0,0.0,0.0,0.0,0.0,0.0,0.0,0.0,0.0,0.0,0.0,0.0,0.0,0.0,0.0,0.0,0.0,0.0,0.0,0.0,0.0,0.0,0.0,0.0,0.0,0.0,0.0,0.0,0.0,0.0,0.0,0.0,0.0,0.0,0.0,0.0,0.0,0.0,0.0,0.0,0.0,0.0,0.0,0.0,0.0,0.0,0.0,0.0,0.0,0.0,0.0,0.0,0.0,0.0,0.0,0.0,0.0,0.0,0.0,0.0,0.0,0.0,0.0,0.0,0.0,0.0,0.0,0.0,0.0,0.0,0.0,0.0,0.0,0.0,0.0,0.0,0.0,0.0,0.0,0.0,0.0,0.0,0.0,0.0,0.0,0.0,0.0,0.0,0.0,0.0,0.0,0.0,0.0,0.0,0.0,0.0,0.0,0.0,0.0,0.0,0.0,0.0,0.0,0.0,0.0,0.0,0.0,0.0,0.0,0.0,0.0,0.0,0.0,0.0,0.0,0.0,0.0,0.0,0.0,0.0,0.0,0.0,0.0,0.0,0.0,0.0,0.0,0.0,0.0,0.0,0.0,0.0,0.0,0.0,0.0,0.0,0.0,0.0,0.0,0.0,0.0,0.0,0.0,0.0,0.0,0.0,0.0,0.0,0.0,0.0,0.0,0.0,0.0,0.0,0.0,0.0,0.0,0.0,0.0,0.0,0.0,0.0,0.0,0.0,0.0,0.0,0.0,0.0,0.0,0.0,0.0,0.0,0.0,0.0,0.0,0.0,0.0,0.0,0.0,0.0,0.0,0.0,0.0,0.0,0.0,0.0,0.0,0.0,0.0,0.0,0.0,0.0,0.0,0.0,0.0,0.0,0.0,0.0,0.0,0.0,0.0,0.0,0.0,0.0,0.0,0.0,0.0,0.0,0.0,0.0,0.0,0.0,0.0,0.0,0.0,0.0,0.0,0.0,0.0,0.0,0.0,0.0,0.0,0.0,0.0,0.0,0.0,0.0,0.0,0.0,0.0,0.0,0.0,0.0,0.0,0.0,0.0,0.0,0.0,0.0,0.0,0.0,0.0,0.0,0.0,0.0,0.0,0.0,0.0,0.0,0.0,0.0,0.0,0.0,0.0,0.0,0.0,0.0,0.0,0.0,0.0,0.0,0.0,0.0,0.0,0.0,0.0,0.0,0.0,0.0,0.0,0.0,0.0,0.0,0.0,0.0,0.0,0.0,0.0,0.0,0.0,0.0,0.0,0.0,0.0,0.0,0.0,0.0,0.0,0.0,0.0,0.0,0.0,0.0,0.0,0.0,0.0,0.0,0.0,0.0,0.0,0.0,0.0,0.0,0.0,0.0,0.0,0.0,0.0,0.0,0.0,0.0,0.0,0.0,0.0,0.0,0.0,0.0,0.0,0.0,0.0,0.0,0.0,0.0,0.0,0.0,0.0,0.0,0.0,0.0,0.0,0.0,0.0,0.0,0.0,0.0,0.0,0.0,0.0,0.0,0.0,0.0,0.0,0.0,0.0,0.0,0.0,0.0,0.0,0.0,0.0,0.0,0.0,0.0,0.0,0.0,0.0,0.0,0.0,0.0,0.0,0.0,0.0,0.0,0.0,0.0,0.0,0.0,0.0,0.0,0.0,0.0,0.0,0.0,0.0,0.0,0.0,0.0,0.0,0.0,0.0,0.0,0.0,0.0,0.0,0.0,0.0,0.0,0.0,0.2322,0.0,0.0,0.0,0.0,0.0,0.0,0.0,0.0,0.0,0.0,0.0,0.0,0.0,0.0,0.0,0.0,0.0,0.0,0.0,0.0,0.0,0.0,0.0,0.0,0.0,0.0,0.0,0.0,0.0,0.0,0.0,0.0,0.0,0.0,0.0,0.0,0.0,0.0,0.0,0.0,0.0,0.0,0.0,0.0,0.0,0.0,0.0,0.0,0.0,0.0,0.0,0.0,0.0,0.0,0.0,0.0,0.0,0.0,0.0,0.0,0.0,0.0,0.0,0.0,0.0,0.0,0.0,0.0,0.0,0.0,0.0,0.0,0.0,0.0,0.0,0.0,0.0,0.0,0.0,0.0,0.0,0.0,0.0,0.0,0.0,0.0,0.0,0.0,0.0,0.0,0.0,0.0,0.0,0.0,0.0,0.0,0.0,0.0,0.0,0.0,0.0,0.0,0.0,0.0,0.0,0.0,0.0,0.0,0.0,0.0,0.1027,0.1294,0.1496,0.1916,0.2546,0.0,0.0,0.0,0.0,0.0,0.0,0.0,0.0,0.0,0.0,0.0,0.0,0.0,0.0,0.0,0.0,0.0,0.0,0.0,0.0,0.0,0.0,0.0,0.0,0.0,0.0,0.0,0.0,0.0,0.0,0.0,0.0,0.0,0.0,0.0,0.0,0.0,0.0,0.0,0.0,0.0,0.0,0.0,0.0,0.0,0.0,0.0,0.0,0.0,0.0,0.0,0.0,0.0,0.0,0.0,0.0,0.0,0.0,0.0,0.0,0.0,0.0,0.0,0.0,0.0,0.0,0.0,0.0,0.0,0.0,0.0,0.0,0.0,0.0,0.0,0.0,0.0,0.0,0.0,0.0,0.0,0.0,0.0,0.0,0.0,0.0,0.0,0.0,0.0,0.0,0.0,0.0,0.0,0.0,0.0,0.0,0.0,0.0,0.0,0.0,0.0,0.0,0.0,0.0,0.0,0.0,0.0,0.0,0.0,0.0,0.0,0.0,0.1833,0.2314,0.3059,0.0,0.0,0.0,0.0,0.0,0.0,0.0,0.0,0.0,0.0,0.0,0.0,0.0,0.0,0.0,0.0,0.0,0.0,0.0,0.0,0.0,0.0,0.0,0.0,0.0,0.0,0.0,0.0,0.0,0.0,0.0,0.0,0.0,0.0,0.0,0.0,0.0,0.0,0.0,0.0,0.0,0.0,0.0,0.0,0.0,0.0,0.0,0.0,0.0,0.0,0.0,0.0,0.0,0.0,0.0,0.0,0.0,0.0,0.0,0.0,0.0,0.0,0.0,0.0,0.0,0.0,0.0,0.0,0.0,0.0,0.0,0.0,0.0,0.0,0.0,0.0,0.0,0.0,0.0,0.0,0.0,0.0,0.0,0.0,0.0,0.0,0.0,0.0,0.0,0.0,0.0,0.0,0.0,0.0,0.0,0.0,0.0,0.0,0.0,0.0,0.0,0.0,0.0,0.0,0.0,0.0,0.0,0.0,0.0,0.0,0.1548,0.2354,0.2645,0.0,0.4083,0.0,0.0,0.0,0.0,0.0,0.0,0.0,0.0,0.0,0.0,0.0,0.0,0.0,0.0,0.0,0.0,0.0,0.0,0.0,0.0,0.0,0.0,0.0,0.0,0.0,0.0,0.0,0.0,0.0,0.0,0.0,0.0,0.0,0.0,0.0,0.0,0.0,0.0,0.0,0.0,0.0,0.0,0.0,0.0,0.0,0.0,0.0,0.0,0.0,0.0,0.0,0.0,0.0,0.0,0.0,0.0,0.0,0.0,0.0,0.0,0.0,0.0,0.0,0.0,0.0,0.0,0.0,0.0,0.0,0.0,0.0,0.0,0.0,0.0,0.0,0.0,0.0,0.0,0.0,0.0,0.0,0.0,0.0,0.0,0.0,0.0,0.0,0.0,0.0,0.0,0.0,0.0,0.0,0.0,0.0,0.0,0.0,0.0,0.0,0.0,0.0,0.0,0.0,0.0,0.0,0.0,0.0,0.0,0.0,0.0,0.1518,0.2125,0.282,0.3394,0.0,0.0,0.0,0.0,0.0,0.0,0.0,0.0,0.0,0.0,0.0,0.0,0.0,0.0,0.0,0.0,0.0,0.0,0.0,0.0,0.0,0.0,0.0,0.0,0.0,0.0,0.0,0.0,0.0,0.0,0.0,0.0,0.0,0.0,0.0,0.0,0.0,0.0,0.0,0.0,0.0,0.0,0.0,0.0,0.0,0.0,0.0,0.0,0.0,0.0,0.0,0.0,0.0,0.0,0.0,0.0,0.0,0.0,0.0,0.0,0.0,0.0,0.0,0.0,0.0,0.0,0.0,0.0,0.0,0.0,0.0,0.0,0.0,0.0,0.0,0.0,0.0,0.0,0.0,0.0,0.0,0.0,0.0,0.0,0.0,0.0,0.0,0.0,0.0,0.0,0.0,0.0,0.0,0.0,0.0,0.0,0.0,0.0,0.0,0.0,0.0,0.0,0.0,0.0,0.0,0.0,0.0,0.0,0.0,0.0,0.1332,0.1645,0.2223,0.2955,0.3456,0.3679,0.0,0.0,0.0,0.0,0.0,0.0,0.0,0.0,0.0,0.0,0.0,0.0,0.0,0.0,0.0,0.0,0.0,0.0,0.0,0.0,0.0,0.0,0.0,0.0,0.0,0.0,0.0,0.0,0.0,0.0,0.0,0.0,0.0,0.0,0.0,0.0,0.0,0.0,0.0,0.0,0.0,0.0,0.0,0.0,0.0,0.0,0.0,0.0,0.0,0.0,0.0,0.0,0.0,0.0,0.0,0.0,0.0,0.0,0.0,0.0,0.0,0.0,0.0,0.0,0.0,0.0,0.0,0.0,0.0,0.0,0.0,0.0,0.0,0.0,0.0,0.0,0.0,0.0,0.0,0.0,0.0,0.0,0.0,0.0,0.0,0.0,0.0,0.0,0.0,0.0,0.0,0.0,0.0,0.0,0.0,0.0,0.0,0.0,0.0,0.0,0.0,0.0,0.0,0.0,0.0,0.0,0.0,0.0,0.1574,0.1714,0.2189,0.2977,0.3139,0.3458,0.0,0.0,0.0,0.0,0.0,0.0,0.0,0.0,0.0,0.0,0.0,0.0,0.0,0.0,0.0,0.0,0.0,0.0,0.0,0.0,0.0,0.0,0.0,0.0,0.0,0.0,0.0,0.0,0.0,0.0,0.0,0.0,0.0,0.0,0.0,0.0,0.0,0.0,0.0,0.0,0.0,0.0,0.0,0.0,0.0,0.0,0.0,0.0,0.0,0.0,0.0,0.0,0.0,0.0,0.0,0.0,0.0,0.0,0.0,0.0,0.0,0.0,0.0,0.0,0.0,0.0,0.0,0.0,0.0,0.0,0.0,0.0,0.0,0.0,0.0,0.0,0.0,0.0,0.0,0.0,0.0,0.0,0.0,0.0,0.0,0.0,0.0,0.0,0.0,0.0,0.0,0.0,0.0,0.0,0.0,0.0,0.0,0.0,0.0,0.0,0.0,0.0,0.0,0.0,0.0,0.0,0.0,0.0,0.0,0.1555,0.1843,0.2122,0.2402,0.2805,0.3075,0.0,0.0,0.0,0.0,0.0,0.0,0.0,0.0,0.0,0.0,0.0,0.0,0.0,0.0,0.0,0.0,0.0,0.0,0.0,0.0,0.0,0.0,0.0,0.0,0.0,0.0,0.0,0.0,0.0,0.0,0.0,0.0,0.0,0.0,0.0,0.0,0.0,0.0,0.0,0.0,0.0,0.0,0.0,0.0,0.0,0.0,0.0,0.0,0.0,0.0,0.0,0.0,0.0,0.0,0.0,0.0,0.0,0.0,0.0,0.0,0.0,0.0,0.0,0.0,0.0,0.0,0.0,0.0,0.0,0.0,0.0,0.0,0.0,0.0,0.0,0.0,0.0,0.0,0.0,0.0,0.0,0.0,0.0,0.0,0.0,0.0,0.0,0.0,0.0,0.0,0.0,0.0,0.0,0.0,0.0,0.0,0.0,0.0,0.0,0.0,0.0,0.0,0.0,0.0,0.0,0.0,0.0,0.0,0.0,0.1696,0.0,0.2138,0.2128,0.2493,0.2761,0.0,0.0,0.0,0.0,0.0,0.0,0.0,0.0,0.0,0.0,0.0,0.0,0.0,0.0,0.0,0.0,0.0,0.0,0.0,0.0,0.0,0.0,0.0,0.0,0.0,0.0,0.0,0.0,0.0,0.0,0.0,0.0,0.0,0.0,0.0,0.0,0.0,0.0,0.0,0.0,0.0,0.0,0.0,0.0,0.0,0.0,0.0,0.0,0.0,0.0,0.0,0.0,0.0,0.0,0.0,0.0,0.0,0.0,0.0,0.0,0.0,0.0,0.0,0.0,0.0,0.0,0.0,0.0,0.0,0.0,0.0,0.0,0.0,0.0,0.0,0.0,0.0,0.0,0.0,0.0,0.0,0.0,0.0,0.0,0.0,0.0,0.0,0.0,0.0,0.0,0.0,0.0,0.0,0.0,0.0,0.0,0.0,0.0,0.0,0.0,0.0,0.0,0.0,0.0,0.0,0.0,0.0,0.0,0.1696,0.2088,0.2164,0.2229,0.2313,0.2329,0.2596,0.0,0.0,0.0,0.0,0.0,0.0,0.0,0.0,0.0,0.0,0.0,0.0,0.0,0.0,0.0,0.0,0.0,0.0,0.0,0.0,0.0,0.0,0.0,0.0,0.0,0.0,0.0,0.0,0.0,0.0,0.0,0.0,0.0,0.0,0.0,0.0,0.0,0.0,0.0,0.0,0.0,0.0,0.0,0.0,0.0,0.0,0.0,0.0,0.0,0.0,0.0,0.0,0.0,0.0,0.0,0.0,0.0,0.0,0.0,0.0,0.0,0.0,0.0,0.0,0.0,0.0,0.0,0.0,0.0,0.0,0.0,0.0,0.0,0.0,0.0,0.0,0.0,0.0,0.0,0.0,0.0,0.0,0.0,0.0,0.0,0.0,0.0,0.0,0.0,0.0,0.0,0.0,0.0,0.0,0.0,0.0,0.0,0.0,0.0,0.0,0.0,0.0,0.0,0.0,0.0,0.0,0.0,0.0,0.0,0.1957,0.2032,0.2301,0.2776,0.274,0.3022,0.0,0.0,0.0,0.0,0.0,0.0,0.0,0.0,0.0,0.0,0.0,0.0,0.0,0.0,0.0,0.0,0.0,0.0,0.0,0.0,0.0,0.0,0.0,0.0,0.0,0.0,0.0,0.0,0.0,0.0,0.0,0.0,0.0,0.0,0.0,0.0,0.0,0.0,0.0,0.0,0.0,0.0,0.0,0.0,0.0,0.0,0.0,0.0,0.0,0.0,0.0,0.0,0.0,0.0,0.0,0.0,0.0,0.0,0.0,0.0,0.0,0.0,0.0,0.0,0.0,0.0,0.0,0.0,0.0,0.0,0.0,0.0,0.0,0.0,0.0,0.0,0.0,0.0,0.0,0.0,0.0,0.0,0.0,0.0,0.0,0.0,0.0,0.0,0.0,0.0,0.0,0.0,0.0,0.0,0.0,0.0,0.0,0.0,0.0,0.0,0.0,0.0,0.0,0.0,0.0,0.0,0.0,0.0,0.0,0.2033,0.2081,0.2332,0.2812,0.2959,0.3268,0.3805,0.0,0.0,0.0,0.0,0.0,0.0,0.0,0.0,0.0,0.0,0.0,0.0,0.0,0.0,0.0,0.0,0.0,0.0,0.0,0.0,0.0,0.0,0.0,0.0,0.0,0.0,0.0,0.0,0.0,0.0,0.0,0.0,0.0,0.0,0.0,0.0,0.0,0.0,0.0,0.0,0.0,0.0,0.0,0.0,0.0,0.0,0.0,0.0,0.0,0.0,0.0,0.0,0.0,0.0,0.0,0.0,0.0,0.0,0.0,0.0,0.0,0.0,0.0,0.0,0.0,0.0,0.0,0.0,0.0,0.0,0.0,0.0,0.0,0.0,0.0,0.0,0.0,0.0,0.0,0.0,0.0,0.0,0.0,0.0,0.0,0.0,0.0,0.0,0.0,0.0,0.0,0.0,0.0,0.0,0.0,0.0,0.0,0.0,0.0,0.0,0.0,0.0,0.0,0.0,0.0,0.0,0.0,0.0,0.2202,0.2279,0.2418,0.2619,0.3052,0.3435,0.0,0.0,0.0,0.0,0.0,0.0,0.0,0.0,0.0,0.0,0.0,0.0,0.0,0.0,0.0,0.0,0.0,0.0,0.0,0.0,0.0,0.0,0.0,0.0,0.0,0.0,0.0,0.0,0.0,0.0,0.0,0.0,0.0,0.0,0.0,0.0,0.0,0.0,0.0,0.0,0.0,0.0,0.0,0.0,0.0,0.0,0.0,0.0,0.0,0.0,0.0,0.0,0.0,0.0,0.0,0.0,0.0,0.0,0.0,0.0,0.0,0.0,0.0,0.0,0.0,0.0,0.0,0.0,0.0,0.0,0.0,0.0,0.0,0.0,0.0,0.0,0.0,0.0,0.0,0.0,0.0,0.0,0.0,0.0,0.0,0.0,0.0,0.0,0.0,0.0,0.0,0.0,0.0,0.0,0.0,0.0,0.0,0.0,0.0,0.0,0.0,0.0,0.0,0.0,0.0,0.0,0.0,0.0,0.0,0.2282,0.2498,0.2895,0.3509,0.4005,0.4448,0.0,0.0,0.0,0.0,0.0,0.0,0.0,0.0,0.0,0.0,0.0,0.0,0.0,0.0,0.0,0.0,0.0,0.0,0.0,0.0,0.0,0.0,0.0,0.0,0.0,0.0,0.0,0.0,0.0,0.0,0.0,0.0,0.0,0.0,0.0,0.0,0.0,0.0,0.0,0.0,0.0,0.0,0.0,0.0,0.0,0.0,0.0,0.0,0.0,0.0,0.0,0.0,0.0,0.0,0.0,0.0,0.0,0.0,0.0,0.0,0.0,0.0,0.0,0.0,0.0,0.0,0.0,0.0,0.0,0.0,0.0,0.0,0.0,0.0,0.0,0.0,0.0,0.0,0.0,0.0,0.0,0.0,0.0,0.0,0.0,0.0,0.0,0.0,0.0,0.0,0.0,0.0,0.0,0.0,0.0,0.0,0.0,0.0,0.0,0.0,0.0,0.0,0.0,0.0,0.0,0.0,0.0,0.0,0.247,0.2413,0.2956,0.3462,0.405,0.4339,0.4739,0.0,0.0,0.0,0.0,0.0,0.0,0.0,0.0,0.0,0.0,0.0,0.0,0.0,0.0,0.0,0.0,0.0,0.0,0.0,0.0,0.0,0.0,0.0,0.0,0.0,0.0,0.0,0.0,0.0,0.0,0.0,0.0,0.0,0.0,0.0,0.0,0.0,0.0,0.0,0.0,0.0,0.0,0.0,0.0,0.0,0.0,0.0,0.0,0.0,0.0,0.0,0.0,0.0,0.0,0.0,0.0,0.0,0.0,0.0,0.0,0.0,0.0,0.0,0.0,0.0,0.0,0.0,0.0,0.0,0.0,0.0,0.0,0.0,0.0,0.0,0.0,0.0,0.0,0.0,0.0,0.0,0.0,0.0,0.0,0.0,0.0,0.0,0.0,0.0,0.0,0.0,0.0,0.0,0.0,0.0,0.0,0.0,0.0,0.0,0.0,0.0,0.0,0.0,0.0,0.0,0.0,0.0,0.0,0.2591,0.2581,0.3363,0.3927,0.4213,0.4357,0.461,0.0,0.0,0.0,0.0,0.0,0.0,0.0,0.0,0.0,0.0,0.0,0.0,0.0,0.0,0.0,0.0,0.0,0.0,0.0,0.0,0.0,0.0,0.0,0.0,0.0,0.0,0.0,0.0,0.0,0.0,0.0,0.0,0.0,0.0,0.0,0.0,0.0,0.0,0.0,0.0,0.0,0.0,0.0,0.0,0.0,0.0,0.0,0.0,0.0,0.0,0.0,0.0,0.0,0.0,0.0,0.0,0.0,0.0,0.0,0.0,0.0,0.0,0.0,0.0,0.0,0.0,0.0,0.0,0.0,0.0,0.0,0.0,0.0,0.0,0.0,0.0,0.0,0.0,0.0,0.0,0.0,0.0,0.0,0.0,0.0,0.0,0.0,0.0,0.0,0.0,0.0,0.0,0.0,0.0,0.0,0.0,0.0,0.0,0.0,0.0,0.0,0.0,0.0,0.0,0.0,0.0,0.0,0.0,0.2551,0.243,0.2957,0.3402,0.3839,0.441,0.4895,0.0,0.0,0.0,0.0,0.0,0.0,0.0,0.0,0.0,0.0,0.0,0.0,0.0,0.0,0.0,0.0,0.0,0.0,0.0,0.0,0.0,0.0,0.0,0.0,0.0,0.0,0.0,0.0,0.0,0.0,0.0,0.0,0.0,0.0,0.0,0.0,0.0,0.0,0.0,0.0,0.0,0.0,0.0,0.0,0.0,0.0,0.0,0.0,0.0627,0.0,0.0,0.0,0.0,0.0,0.0,0.0,0.0,0.0,0.0,0.0,0.0,0.0,0.0,0.0,0.0,0.0,0.0,0.0,0.0,0.0,0.0,0.0,0.0,0.0,0.0,0.0,0.0,0.0,0.0,0.0,0.0,0.0,0.0,0.0,0.0,0.0,0.0,0.0,0.0,0.0,0.0,0.0,0.0,0.0,0.0,0.0,0.0,0.0,0.0,0.0,0.0,0.0,0.0,0.0,0.0,0.0,0.0,0.0,0.2514,0.2512,0.2812,0.3328,0.4019,0.4316,0.4699,0.0,0.0,0.0,0.0,0.0,0.0,0.0,0.0,0.0,0.0,0.0,0.0,0.0,0.0,0.0,0.0,0.0,0.0,0.0,0.0,0.0,0.0,0.0,0.0,0.0,0.0,0.0,0.0,0.0,0.0,0.0,0.0,0.0,0.0,0.0,0.0,0.0,0.0,0.0,0.0,0.0,0.0,0.0,0.0,0.0,0.0,0.0,0.0,0.0,0.0,0.0,0.0,0.0,0.0,0.0,0.0,0.0,0.0,0.0,0.0,0.0,0.0,0.0,0.0,0.0,0.0,0.0,0.0,0.0,0.0,0.0,0.0,0.0,0.0,0.0,0.0,0.0,0.0,0.0,0.0,0.0,0.0,0.0,0.0,0.0,0.0,0.0,0.0,0.0,0.0,0.0,0.0,0.0,0.0,0.0,0.0,0.0,0.0,0.0,0.0,0.0,0.0,0.0,0.0,0.0,0.0,0.0,0.2289,0.2456,0.2593,0.2827,0.3388,0.4222,0.4143,0.4382,0.5013,0.0,0.0,0.0,0.0,0.0,0.0,0.0,0.0,0.0,0.0,0.0,0.0,0.0,0.0,0.0,0.0,0.0,0.0,0.0,0.0,0.0,0.0,0.0,0.0,0.0,0.0,0.0,0.0,0.0,0.0,0.0,0.0,0.0,0.0,0.0,0.0,0.0,0.0,-0.0459,-0.0546,0.0,0.0,0.0,0.0,0.0,0.0,0.0,0.0,0.242,0.0,0.0,0.0,0.0,0.0,0.0,0.0,0.0,0.0,0.0,0.0,0.0,0.0,0.0,0.0,0.0,0.0,0.0,0.0,0.0,0.0,0.0,0.0,0.0,0.0,0.0,0.0,0.0,0.0,0.0,0.0,0.0,0.0,0.0,0.0,0.0,0.0,0.0,0.0,0.0,0.0,0.0,0.0,0.0,0.0,0.0,0.0,0.0,0.0,0.0,0.0,0.0,0.0,0.0,0.0,0.0,0.2178,0.2394,0.2485,0.2551,0.2794,0.3161,0.3732,0.3879,0.4354,0.5193,0.0,0.0,0.0,0.0,0.0,0.0,0.0,0.0,0.0,0.0,0.0,0.0,0.0,0.0,0.0,0.0,0.0,0.0,0.0,0.0,0.0,0.0,0.0,0.0,0.0,0.0,0.0,0.0,0.0,0.0,0.0,0.0,0.0,0.0,0.0,0.0,0.0,0.0,0.0,-0.0087,-0.0091,0.0,0.0,0.0,0.0,0.0,0.0,0.0,0.0,0.2981,0.0,0.0,0.0,0.0,0.0,0.0,0.0,0.0,0.0,0.0,0.0,0.0,0.0,0.0,0.0,0.0,0.0,0.0,0.0,0.0,0.0,0.0,0.0,0.0,0.0,0.0,0.0,0.0,0.0,0.0,0.0,0.0,0.0,0.0,0.0,0.0,0.0,0.0,0.0,0.0,0.0,0.0,0.0,0.0,0.0,0.0,0.0,0.0,0.0,0.0,0.0,0.0,0.0,0.0,0.0,0.2251,0.2344,0.2397,0.2499,0.2773,0.3132,0.3561,0.3921,0.4487,0.0,0.0,0.0,0.0,0.0,0.0,0.0,0.0,0.0,0.0,0.0,0.0,0.0,0.0,0.0,0.0,0.0,0.0,0.0,0.0,0.0,0.0,0.0,0.0,0.0,0.0,0.0,0.0,0.0,0.0,0.0,0.0,0.0,0.0,0.0,0.0,0.0,0.0,0.0,0.0,-0.0137,0.014,0.0332,0.0,0.0,0.0,0.0,0.0,0.0,0.2549,0.3335,0.0,0.0,0.0,0.0,0.0,0.0,0.0,0.0,0.0,0.0,0.0,0.0,0.0,0.0,0.0,0.0,0.0,0.0,0.0,0.0,0.0,0.0,0.0,0.0,0.0,0.0,0.0,0.0,0.0,0.0,0.0,0.0,0.0,0.0,0.0,0.0,0.0,0.0,0.0,0.0,0.0,0.0,0.0,0.0,0.0,0.0,0.0,0.0,0.0,0.0,0.0,0.0,0.0,0.0,0.0,0.2266,0.2287,0.2361,0.2499,0.2862,0.3262,0.3741,0.4184,0.4777,0.0,0.0,0.0,0.0,0.0,0.0,0.0,0.0,0.0,0.0,0.0,0.0,0.0,0.0,0.0,0.0,0.0,0.0,0.0,0.0,0.0,0.0,0.0,0.0,0.0,0.0,0.0,0.0,0.0,0.0,0.0,0.0,0.0,0.0,0.0,0.0,0.0,0.0,0.0,0.0,0.0,0.0386,0.0584,0.0532,0.0,0.0,0.0,0.0,0.1009,0.2555,0.0,0.0,0.0,0.0,0.0,0.0,0.0,0.0,0.0,0.0,0.0,0.0,0.0,0.0,0.0,0.0,0.0,0.0,0.0,0.0,0.0,0.0,0.0,0.0,0.0,0.0,0.0,0.0,0.0,0.0,0.0,0.0,0.0,0.0,0.0,0.0,0.0,0.0,0.0,0.0,0.0,0.0,0.0,0.0,0.0,0.0,0.0,0.0,0.0,0.0,0.0,0.0,0.0,0.0,0.0,0.0,0.2282,0.2441,0.2532,0.2553,0.3167,0.3741,0.4228,0.4661,0.534,0.0,0.0,0.0,0.0,0.0,0.0,0.0,0.0,0.0,0.0,0.0,0.0,0.0,0.0,0.0,0.0,0.0,0.0,0.0,0.0,0.0,0.0,0.0,0.0,0.0,0.0,0.0,0.0,0.0,0.0,0.0,0.0,0.0,0.0,0.0,0.0,0.0,0.0,0.0,0.0,0.0,0.076,0.0419,0.1124,0.1617,0.0,0.0,0.0945,0.129,0.2796,0.0,0.0,0.0,0.0,0.0,0.0,0.0,0.0,0.0,0.0,0.0,0.0,0.0,0.0,0.0,0.0,0.0,0.0,0.0,0.0,0.0,0.0,0.0,0.0,0.0,0.0,0.0,0.0,0.0,0.0,0.0,0.0,0.0,0.0,0.0,0.0,0.0,0.0,0.0,0.0,0.0,0.0,0.0,0.0,0.0,0.0,0.0,0.0,0.0,0.0,0.0,0.0,0.0,0.0,0.0,0.2347,0.2447,0.2484,0.2669,0.2993,0.3388,0.3829,0.4276,0.4861,0.5431,0.0,0.0,0.0,0.0,0.0,0.0,0.0,0.0,0.0,0.0,0.0,0.0,0.0,0.0,0.0,0.0,0.0,0.0,0.0,0.0,0.0,0.0,0.0,0.0,0.0,0.0,0.0,0.0,0.0,0.0,0.0,0.0,0.0,0.0,0.0,0.0,0.0,0.0,0.0,0.0,0.0,0.0,0.0742,0.1545,0.0,0.0,0.0,0.1555,0.2465,0.0,0.0,0.0,0.0,0.0,0.0,0.0,0.0,0.0,0.0,0.0,0.0,0.0,0.0,0.0,0.0,0.0,0.0,0.0,0.0,0.0,0.0,0.0,0.0,0.0,0.0,0.0,0.0,0.0,0.0,0.0,0.0,0.0,0.0,0.0,0.0,0.0,0.0,0.0,0.0,0.0,0.0,0.0,0.0,0.0,0.0,0.0,0.0,0.0,0.0,0.0,0.0,0.0,0.0,0.0,0.0,0.0,0.2611,0.2625,0.281,0.3214,0.3697,0.4045,0.4324,0.5083,0.0,0.0,0.0,0.0,0.0,0.0,0.0,0.0,0.0,0.0,0.0,0.0,0.0,0.0,0.0,0.0,0.0,0.0,0.0,0.0,0.0,0.0,0.0,0.0,0.0,0.0,0.0,0.2171,0.0,0.0,0.0,0.0,0.0,0.0,0.0,0.0,0.0,0.0,0.0,0.0,0.0,0.0,0.1416,0.1416,0.2184,0.2919,0.0,0.0,0.2313,0.3459,0.3722,0.3784,0.0,0.0,0.0,0.0,0.0,0.0,0.0,0.0,0.0,0.0,0.0,0.0,0.0,0.0,0.0,0.0,0.0,0.0,0.0,0.0,0.0,0.0,0.0,0.0,0.0,0.0,0.0,0.0,0.0,0.0,0.0,0.0,0.0,0.0,0.0,0.0,0.0,0.0,0.0,0.0,0.0,0.0,0.0,0.0,0.0,0.0,0.0,0.0,0.0,0.0,0.0,0.0,0.0,0.0,0.0,0.2611,0.2976,0.3031,0.2821,0.4176,0.4705,0.432,0.5355,0.6091,0.0,0.0,0.0,0.0,0.0,0.0,0.0,0.0,0.0,0.0,0.0,0.0,0.0,0.0,0.0,0.0,0.0,0.0,0.0,0.0,0.0,0.0,0.0,0.0,0.0,0.0,0.0,0.0,0.0,0.0,0.0,0.0,0.0,0.0,0.0,0.0,0.0,0.0,0.0,0.0,0.0,0.175,0.2388,0.3173,0.3663,0.0,0.0,0.3479,0.3808,0.411,0.4105,0.3678,0.0,0.0,0.0,0.0,0.0,0.0,0.0,0.0,0.0,0.0,0.0,0.0,0.0,0.0,0.0,0.0,0.0,0.0,0.0,0.0,0.0,0.0,0.0,0.0,0.0,0.0,0.0,0.0,0.0,0.0,0.0,0.0,0.0,0.0,0.0,0.0,0.0,0.0,0.0,0.0,0.0,0.0,0.0,0.0,0.0,0.0,0.0,0.0,0.0,0.0,0.0,0.0,0.0,0.2799,0.3324,0.3096,0.3519,0.4494,0.4579,0.4848,0.534,0.5935,0.6293,0.0,0.0,0.0,0.0,0.0,0.0,0.0,0.0,0.0,0.0,0.0,0.0,0.0,0.0,0.0,0.0,0.0,0.0,0.0,0.0,0.0,0.0,0.0,0.0,0.0,0.0,0.0,0.0,0.2246,0.2115,0.1832,0.0,0.0,0.0,0.0,0.0,0.0,0.0,0.0,0.0,0.0,0.2305,0.2651,0.3355,0.0,0.0,0.3814,0.3866,0.414,0.399,0.3795,0.3613,0.3637,0.0,0.0,0.0,0.0,0.0,0.0,0.0,0.0,0.0,0.0,0.0,0.0,0.0,0.0,0.0,0.0,0.0,0.0,0.0,0.0,0.0,0.0,0.0,0.0,0.0,0.0,0.0,0.0,0.0,0.0,0.0,0.0,0.0,0.0,0.0,0.0,0.0,0.0,0.0,0.0,0.0,0.0,0.0,0.0,0.0,0.0,0.0,0.0,0.0,0.0,0.0,0.0,0.3159,0.3553,0.3643,0.4197,0.5193,0.5009,0.5218,0.5893,0.6208,0.6428,0.0,0.0,0.0,0.0,0.0,0.0,0.0,0.0,0.0,0.0,0.0,0.0,0.0,0.0,0.0,0.0,0.0,0.0,0.0,0.0,0.0,0.0,0.0,0.0,0.0,0.0,0.0,0.0,0.2199,0.2028,0.1307,0.0,0.0,0.0,0.0,0.0,0.0,0.0,0.0,0.0,0.0,0.2759,0.3066,0.3623,0.4028,0.3931,0.3979,0.4047,0.4268,0.4018,0.3751,0.3607,0.0,0.0,0.0,0.0,0.0,0.0,0.0,0.0,0.0,0.0,0.0,0.0,0.0,0.0,0.0,0.0,0.0,0.0,0.0,0.0,0.0,0.0,0.0,0.0,0.0,0.0,0.0,0.0,0.0,0.0,0.2926,0.0,0.0,0.0,0.0,0.0,0.0,0.0,0.0,0.0,0.0,0.0,0.0,0.0,0.0,0.0,0.0,0.0,0.0,0.0,0.0,0.0,0.0,0.3498,0.3086,0.4588,0.5042,0.4257,0.5335,0.5862,0.5722,0.6142,0.6498,0.6673,0.0,0.0,0.0,0.0,0.0,0.0,0.0,0.0,0.0,0.0,0.0,0.0,0.0,0.0,0.0,0.0,0.0,0.0,0.0,0.0,0.0,0.0,0.0,0.0,0.0,0.0,0.1678,0.2045,0.1886,0.0,0.0,0.0,0.0,0.0,0.0,0.0,0.0,0.0,0.0,0.3075,0.307,0.3753,0.4137,0.4232,0.4121,0.4077,0.411,0.4265,0.4284,0.4126,0.0,0.0,0.0,0.0,0.0,0.0,0.0,0.0,0.0,0.0,0.0,0.0,0.0,0.0,0.0,0.0,0.0,0.0,0.0,0.0,0.0,0.0,0.0,0.0,0.0,0.0,0.0,0.4619,0.4296,0.0,0.0,0.0,0.0,0.0,0.0,0.0,0.0,0.0,0.0,0.0,0.5664,0.6209,0.0,0.0,0.0,0.0,0.0,0.0,0.0,0.0,0.0,0.0,0.0,0.0,0.465,0.5011,0.5168,0.5551,0.6091,0.6005,0.6082,0.6354,0.6521,0.6735,0.6956,0.0,0.0,0.0,0.0,0.0,0.0,0.0,0.0,0.0,0.0,0.0,0.0,0.0,0.0,0.0,0.0,0.0,0.0,0.0,0.0,0.0,0.0,0.0,0.0,0.0,0.226,0.0,0.0,0.0,0.0,0.0,0.0,0.0,0.0,0.0,0.0,0.0,0.1918,0.3347,0.3419,0.343,0.3861,0.4004,0.4042,0.0,0.0,0.0,0.0,0.0,0.0,0.0,0.0,0.0,0.0,0.0,0.0,0.0,0.0,0.4287,0.389,0.3691,0.3585,0.3585,0.0,0.0,0.0,0.0,0.0,0.0,0.0,0.0,0.0,0.0,0.0,0.0,0.0,0.0,0.0,0.0,0.5118,0.0,0.0,0.0,0.0,0.0,0.0,0.0,0.0,0.5117,0.5605,0.6209,0.6588,0.6918,0.0,0.7133,0.6701,0.0,0.0,0.0,0.0,0.0,0.0,0.0,0.0,0.5432,0.5697,0.5801,0.6178,0.6735,0.6378,0.6411,0.6801,0.6806,0.6929,0.7133,0.7133,0.6992,0.0,0.0,0.0,0.0,0.0,0.0,0.0,0.0,0.0,0.0,0.0,0.0,0.0,0.0,0.0,0.0,0.0,0.0,0.0,0.0,0.0,0.0,0.0,0.2427,0.0,0.0,0.0,0.0,0.0,0.0,0.0,0.0,0.0,0.0168,0.1231,0.2492,0.3621,0.3696,0.3698,0.3915,0.0,0.0,0.0,0.0,0.0,0.0,0.0,0.4232,0.4395,0.4423,0.4395,0.4314,0.4393,0.4458,0.442,0.0,0.0,0.4007,0.3811,0.3732,0.3816,0.37,0.3692,0.3926,0.3938,0.3895,0.0,0.0,0.0,0.0,0.0,0.0,0.0,0.0,0.5899,0.5634,0.0,0.5383,0.0,0.0,0.0,0.0,0.0,0.4508,0.0,0.0,0.5293,0.5622,0.6178,0.6292,0.6564,0.7112,0.7117,0.7117,0.7063,0.6564,0.0,0.0,0.0,0.0,0.0,0.0,0.5769,0.5285,0.6436,0.682,0.6327,0.655,0.6801,0.7069,0.7079,0.7079,0.7133,0.7133,0.7133,0.7133,0.7079,0.0,0.0,0.0,0.0,0.0,0.0,0.0,0.0,0.0,0.0,0.0,0.0,0.0,0.0,0.0,0.0,0.0,0.0,0.0,0.0,0.1806,0.0,0.0,0.0,0.0,0.0,0.0,0.0,0.0,0.0,0.0,0.1852,0.2076,0.2723,0.3963,0.0,0.0,0.0,0.0,0.4124,0.4121,0.4314,0.4471,0.4512,0.4153,0.4134,0.4635,0.0,0.0,0.4365,0.4417,0.4466,0.4349,0.4357,0.4249,0.3971,0.3912,0.4031,0.4273,0.3996,0.3847,0.4169,0.4311,0.433,0.7266,0.0,0.0,0.0,0.0,0.6875,0.67,0.6349,0.6614,0.6737,0.6778,0.6744,0.0,0.0,0.0,0.0,0.0,0.0,0.4853,0.5413,0.5523,0.5927,0.659,0.7065,0.7417,0.7591,0.7596,0.7596,0.7596,0.7423,0.7079,0.6539,0.0,0.0,0.0,0.0,0.689,0.6773,0.7119,0.7231,0.7058,0.6998,0.7015,0.7133,0.7133,0.7133,0.7133,0.7133,0.7133,0.7133,0.7133,0.0,0.0,0.0,0.0,0.0,0.0,0.0,0.0,0.0,0.0,0.0,0.0,0.0,0.0,0.0,0.0,0.0,0.0,0.0,0.2499,0.2663,0.2821,0.0,0.0,0.0,0.0,0.0,0.0,0.0,0.0,0.0,0.2978,0.3085,0.3421,0.0,0.0,0.3939,0.4096,0.4191,0.4249,0.4249,0.0,0.0,0.0,0.4558,0.4637,0.4439,0.4683,0.489,0.4825,0.4838,0.4849,0.4811,0.4814,0.4787,0.4711,0.442,0.4357,0.47,0.4659,0.457,0.4493,0.4624,0.4729,0.7552,0.7552,0.7494,0.7309,0.7087,0.71,0.7007,0.6839,0.7158,0.7368,0.7526,0.752,0.7257,0.6702,0.6015,0.0,0.0,0.0,0.5482,0.6415,0.5998,0.6293,0.7126,0.7315,0.7558,0.7801,0.7801,0.7801,0.7801,0.7801,0.7655,0.737,0.0,0.0,0.7235,0.7319,0.7442,0.7522,0.7437,0.7394,0.7389,0.7209,0.7133,0.7133,0.7133,0.7133,0.7133,0.7133,0.7133,0.7133,0.7133,0.7149,0.0,0.0,0.0,0.0,0.0,0.0,0.0,0.0,0.0,0.0,0.0,0.319,0.303,0.0,0.0,0.0,0.2914,0.2938,0.3051,0.3197,0.0,0.0,0.0,0.0,0.0,0.0,0.0,0.3085,0.321,0.3447,0.3727,0.3782,0.3845,0.4197,0.4058,0.395,0.4227,0.0,0.4336,0.4425,0.4469,0.449,0.4496,0.4784,0.4917,0.4635,0.4814,0.501,0.5018,0.5018,0.5018,0.5018,0.5018,0.5018,0.5018,0.4776,0.4659,0.4953,0.5018,0.4936,0.4722,0.488,0.496,0.7529,0.7578,0.768,0.7588,0.7332,0.7351,0.7281,0.7223,0.7566,0.7633,0.7546,0.7823,0.7388,0.647,0.5813,0.0,0.6654,0.6076,0.6478,0.7708,0.6616,0.669,0.7735,0.725,0.731,0.7865,0.7855,0.786,0.786,0.786,0.7844,0.7822,0.7612,0.7442,0.7426,0.7442,0.7612,0.7822,0.7602,0.7405,0.7367,0.7203,0.7133,0.7133,0.7133,0.7133,0.7133,0.7133,0.7133,0.7133,0.7133,0.7101,0.7182,0.0,0.0,0.0,0.0,0.0,0.0,0.0,0.0,0.0,0.0,0.0,0.0,0.0,0.0,0.0,0.3285,0.0,0.3482,0.3512,0.0,0.0,0.0,0.3474,0.3372,0.3565,0.3648,0.3551,0.0,0.0,0.4107,0.0,0.4094,0.4129,0.4034,0.4085,0.4423,0.4379,0.4395,0.4679,0.473,0.4792,0.4784,0.492,0.5007,0.4977,0.5018,0.5018,0.5018,0.5018,0.5018,0.5018,0.5018,0.5018,0.5018,0.4996,0.5018,0.5012,0.5018,0.5015,0.4993,0.4999,0.5004,0.804,0.804,0.804,0.7949,0.772,0.7611,0.7717,0.796,0.7952,0.7974,0.8045,0.7974,0.7788,0.7449,0.7274,0.7305,0.7474,0.6875,0.687,0.7259,0.7069,0.7216,0.756,0.7958,0.8212,0.835,0.8344,0.8344,0.8344,0.8344,0.8248,0.807,0.8011,0.7892,0.7731,0.7892,0.8066,0.812,0.7833,0.7537,0.7187,0.7112,0.7133,0.7133,0.7133,0.7133,0.7133,0.7133,0.7133,0.7133,0.7133,0.7246,0.7607,0.7269,0.0,0.0,0.0,0.0,0.0,0.0,0.0,0.0,0.0,0.3618,0.3482,0.0,0.3302,0.0,0.3629,0.3674,0.364,0.3734,0.0,0.0,0.375,0.3679,0.3714,0.3732,0.374,0.3777,0.384,0.3996,0.423,0.4251,0.4246,0.4257,0.4232,0.4278,0.4444,0.445,0.4482,0.464,0.4828,0.4958,0.4958,0.4988,0.5018,0.5018,0.5018,0.5018,0.5018,0.5018,0.5018,0.5018,0.5018,0.5018,0.5018,0.5018,0.5018,0.5018,0.5018,0.5018,0.5018,0.5018,0.5018,0.8138,0.8043,0.8038,0.8021,0.8047,0.7999,0.8077,0.8204,0.8187,0.8237,0.8188,0.8023,0.7855,0.7801,0.7801,0.7801,0.7806,0.7602,0.7527,0.7591,0.7754,0.7866,0.7982,0.8317,0.8517,0.8517,0.8517,0.8517,0.8517,0.8517,0.8447,0.8312,0.8312,0.8248,0.8124,0.8196,0.8261,0.8307,0.7973,0.7623,0.7262,0.7139,0.7133,0.7241,0.7139,0.7139,0.7246,0.7144,0.7133,0.7133,0.7133,0.7257,0.7623,0.7693,0.7386,0.0,0.0,0.0,0.0,0.0,0.0,0.0,0.0,0.0,0.0,0.0,0.36,0.0,0.3808,0.3883,0.3758,0.3938,0.4096,0.4096,0.4033,0.4011,0.3961,0.3998,0.4006,0.3998,0.4053,0.4148,0.4284,0.4303,0.4303,0.4303,0.4303,0.4363,0.4515,0.4621,0.4684,0.479,0.4931,0.5018,0.5018,0.5018,0.5018,0.5018,0.5018,0.5018,0.5018,0.5018,0.5018,0.5018,0.5018,0.5018,0.5018,0.5018,0.5018,0.5018,0.5018,0.5018,0.5018,0.5018,0.5018,0.7984,0.7801,0.7801,0.7919,0.8164,0.8298,0.8269,0.8272,0.8425,0.8377,0.8196,0.7962,0.7871,0.7844,0.7876,0.7892,0.7903,0.8102,0.8256,0.8272,0.8414,0.8517,0.8517,0.8517,0.8517,0.8517,0.8517,0.8517,0.8517,0.8517,0.8517,0.8517,0.8517,0.8517,0.8506,0.8301,0.8285,0.8463,0.8054,0.7731,0.7448,0.7284,0.7262,0.7378,0.7268,0.7262,0.7378,0.7273,0.7176,0.7171,0.7122,0.7225,0.7474,0.8156,0.8059,0.0,0.5993,0.0,0.0,0.0,0.0,0.0,0.0,0.0,0.0,0.3628,0.384,0.3799,0.3967,0.3993,0.3878,0.4101,0.4233,0.4233,0.43,0.4257,0.4159,0.4238,0.4249,0.4107,0.4213,0.4303,0.43,0.4303,0.4303,0.4303,0.4303,0.4376,0.4575,0.4687,0.4694,0.4958,0.5007,0.5018,0.5018,0.5018,0.5018,0.5018,0.5018,0.5018,0.5018,0.5018,0.5018,0.5018,0.5018,0.5018,0.5018,0.5018,0.5018,0.5018,0.5018,0.5018,0.5018,0.5018,0.5018,0.7838,0.7801,0.7801,0.7828,0.7865,0.7925,0.8086,0.8447,0.8495,0.8377,0.8229,0.8312,0.8264,0.8164,0.8291,0.8382,0.8382,0.8425,0.8447,0.8447,0.849,0.8517,0.8517,0.8517,0.8517,0.8517,0.8517,0.8517,0.8517,0.8517,0.8517,0.8517,0.8517,0.8517,0.8511,0.0,0.0,0.0,0.8191,0.7968,0.7742,0.7688,0.7596,0.7405,0.7591,0.0,0.7405,0.7585,0.7666,0.7655,0.7289,0.0,0.0,0.0,0.0,0.0,0.0,0.0,0.0,0.0,0.0,0.0,0.4064,0.3952,0.3755,0.4047,0.4156,0.4027,0.3918,0.3895,0.3921,0.4015,0.403,0.403,0.4167,0.4289,0.4268,0.4287,0.4287,0.4262,0.4281,0.4303,0.4311,0.4303,0.4303,0.4303,0.4303,0.4357,0.4488,0.4585,0.4602,0.4822,0.4958,0.5015,0.5018,0.5018,0.5018,0.5018,0.5018,0.5018,0.5018,0.5018,0.5018,0.5018,0.5018,0.5018,0.5018,0.5018,0.5018,0.5018,0.5018,0.5018,0.5018,0.5018,0.5018,0.7801,0.0,0.7801,0.7801,0.0,0.7925,0.8108,0.8334,0.8334,0.8334,0.8339,0.8458,0.8441,0.8339,0.8463,0.8447,0.8339,0.8463,0.8452,0.8344,0.8458,0.8517,0.8517,0.8517,0.8517,0.8517,0.8517,0.8517,0.8517,0.8517,0.8517,0.8517,0.8517,0.8517,0.8517,0.8517,0.8452,0.8328,0.8272,0.8148,0.8034,0.7855,0.7801,0.7795,0.0,0.0,0.0,0.0,0.0,0.0,0.0,0.0,0.0,0.0,0.0,0.7889,0.7133,0.6383,0.5691,0.5064,0.4552,0.4353,0.4211,0.4193,0.4208,0.4389,0.4386,0.4104,0.4041,0.3973,0.3835,0.3905,0.3954,0.4036,0.4097,0.4167,0.4303,0.4303,0.4333,0.4404,0.4398,0.4404,0.4469,0.4417,0.436,0.4311,0.4303,0.4341,0.445,0.4526,0.472,0.4882,0.4969,0.5015,0.5018,0.5018,0.5018,0.5018,0.5018,0.5018,0.5018,0.5018,0.5018,0.5018,0.5018,0.5018,0.5018,0.5018,0.5018,0.5018,0.5018,0.5018,0.5018,0.5018,0.5018,0.7698,0.7736,0.7736,0.7763,0.7812,0.8066,0.8175,0.8213,0.0,0.0,0.0,0.8495,0.8517,0.8517,0.8517,0.8425,0.8354,0.8441,0.8404,0.8289,0.8425,0.8538,0.8571,0.8581,0.8597,0.8635,0.8592,0.8576,0.8576,0.8538,0.8517,0.8517,0.8517,0.8517,0.8517,0.8517,0.8517,0.8506,0.8312,0.8278,0.8272,0.8021,0.7995,0.8207,0.8005,0.8,0.8196,0.8005,0.7925,0.7925,0.793,0.8011,0.8267,0.8404,0.8517,0.8517,0.7852,0.7209,0.6511,0.5841,0.5237,0.4711,0.447,0.4413,0.4445,0.4594,0.4509,0.4077,0.415,0.4039,0.3668,0.3783,0.3882,0.3931,0.3971,0.4036,0.426,0.433,0.4387,0.4507,0.4512,0.4545,0.472,0.4569,0.4461,0.436,0.4341,0.436,0.453,0.4569,0.4787,0.4904,0.498,0.5018,0.5018,0.5018,0.5018,0.5018,0.5018,0.5018,0.5018,0.5018,0.5018,0.5018,0.5018,0.5018,0.5018,0.5018,0.5018,0.5018,0.5018,0.5031,0.5069,0.5061,0.5053,0.7311,0.7442,0.7442,0.7612,0.7806,0.7833,0.7962,0.8229,0.8371,0.8366,0.8272,0.842,0.8517,0.8517,0.8517,0.8603,0.8815,0.8597,0.8495,0.0,0.8501,0.8624,0.8874,0.8813,0.8915,0.9082,0.891,0.888,0.8797,0.8614,0.8517,0.8517,0.8517,0.8517,0.8517,0.8517,0.8517,0.8511,0.8484,0.8463,0.8463,0.8431,0.8323,0.8229,0.8323,0.8328,0.8218,0.8312,0.8414,0.8414,0.8414,0.8431,0.8463,0.8495,0.8517,0.8452,0.7852,0.7202,0.6623,0.5902,0.5418,0.5191,0.4811,0.4535,0.4357,0.4362,0.4297,0.4005,0.3939,0.3851,0.3759,0.369,0.3639,0.3682,0.3883,0.4069,0.4163,0.4381,0.4474,0.4545,0.4594,0.4729,0.4741,0.4753,0.4572,0.4477,0.4423,0.4511,0.4466,0.4575,0.4762,0.4803,0.4931,0.5007,0.4969,0.5015,0.5012,0.5018,0.5015,0.5018,0.5018,0.5018,0.5018,0.5018,0.5018,0.5018,0.5018,0.5018,0.5018,0.5021,0.5026,0.5089,0.5246,0.5224,0.5173,0.7424,0.7628,0.7639,0.7704,0.7806,0.7935,0.8194,0.8598,0.8651,0.8641,0.8636,0.8786,0.8888,0.8888,0.8888,0.8947,0.9044,0.8937,0.8883,0.8888,0.8888,0.8942,0.9039,0.905,0.9104,0.919,0.9098,0.9044,0.9023,0.8813,0.8705,0.8694,0.8581,0.8517,0.8517,0.8517,0.8382,0.8247,0.8318,0.8382,0.8511,0.8382,0.8323,0.8344,0.8463,0.8468,0.835,0.8452,0.8517,0.8517,0.8517,0.8517,0.8517,0.8517,0.8571,0.8694,0.8429,0.8053,0.7507,0.6541,0.594,0.58,0.5185,0.4743,0.44,0.4166,0.4091,0.4018,0.402,0.3845,0.3719,0.3672,0.3627,0.3719,0.3815,0.3954,0.4207,0.4288,0.4462,0.4605,0.4667,0.4719,0.489,0.476,0.4712,0.4637,0.4474,0.4384,0.4382,0.4425,0.4529,0.4678,0.4773,0.4749,0.4678,0.4866,0.4963,0.5013,0.4977,0.501,0.5018,0.5018,0.5018,0.5018,0.5018,0.5018,0.5018,0.5018,0.5018,0.5031,0.5137,0.5241,0.5298,0.5336,0.5363,0.7608,0.7876,0.7876,0.7941,0.8059,0.8291,0.8668,0.8931,0.8996,0.9097,0.9044,0.9157,0.9233,0.9281,0.9227,0.9233,0.9276,0.9227,0.92,0.9206,0.9206,0.9233,0.9287,0.9292,0.9314,0.9351,0.9314,0.9287,0.926,0.9055,0.8942,0.879,0.8554,0.8403,0.8403,0.8356,0.822,0.8047,0.7942,0.8054,0.8158,0.8117,0.8111,0.8222,0.8302,0.835,0.8451,0.8527,0.8619,0.8667,0.8673,0.8673,0.8667,0.8673,0.8748,0.8921,0.8942,0.8769,0.8203,0.7143,0.6475,0.6461,0.5449,0.483,0.4691,0.4146,0.3837,0.3999,0.399,0.3885,0.3669,0.3632,0.3672,0.3825,0.3794,0.3932,0.4252,0.4332,0.4449,0.4763,0.4792,0.4817,0.4925,0.483,0.4692,0.4629,0.445,0.4317,0.433,0.4338,0.4428,0.455,0.4602,0.4545,0.439,0.4664,0.4882,0.5014,0.5035,0.5007,0.5018,0.5018,0.5018,0.5018,0.5018,0.5018,0.5018,0.5018,0.5018,0.5034,0.5186,0.5347,0.5352,0.5474,0.5556,0.7903,0.8164,0.818,0.8435,0.8748,0.8985,0.912,0.9195,0.941,0.9513,0.9486,0.9297,0.9346,0.9497,0.9319,0.934,0.9513,0.9314,0.9222,0.9222,0.9206,0.9324,0.9534,0.9545,0.9653,0.9787,0.9637,0.954,0.9529,0.9292,0.8959,0.8619,0.8238,0.8074,0.806,0.7903,0.7829,0.7995,0.7442,0.7226,0.7308,0.7596,0.7596,0.7308,0.7631,0.7935,0.8327,0.8689,0.8926,0.912,0.9125,0.9136,0.913,0.913,0.9147,0.9168,0.9174,0.8917,0.8335,0.7238,0.6885,0.7161,0.5604,0.483,0.5312,0.446,0.3841,0.3841,0.3841,0.3834,0.3746,0.3677,0.3707,0.3845,0.3849,0.4035,0.442,0.4515,0.4634,0.4908,0.4958,0.4996,0.4988,0.4887,0.4773,0.4681,0.4488,0.4371,0.4439,0.4458,0.448,0.452,0.4447,0.4423,0.449,0.4597,0.479,0.495,0.5002,0.5015,0.5018,0.5018,0.5018,0.5018,0.5018,0.5018,0.5018,0.5018,0.5018,0.5053,0.5211,0.5412,0.5502,0.5616,0.5678,0.8145,0.8361,0.8366,0.8554,0.8945,0.9109,0.9287,0.9437,0.9529,0.9653,0.976,0.9669,0.9685,0.9771,0.9674,0.969,0.9771,0.9669,0.9631,0.9626,0.9626,0.968,0.9771,0.9782,0.9836,0.9911,0.9825,0.9628,0.9373,0.8958,0.8566,0.8301,0.8075,0.8004,0.8,0.792,0.7859,0.7717,0.7624,0.7435,0.699,0.7335,0.7587,0.7741,0.8038,0.8316,0.8487,0.8859,0.9109,0.9195,0.9206,0.9206,0.9206,0.9206,0.927,0.9416,0.9556,0.9522,0.9239,0.8784,0.8452,0.8246,0.6996,0.6069,0.5544,0.4462,0.3841,0.3841,0.3841,0.3841,0.3839,0.3728,0.3784,0.4013,0.3982,0.4123,0.4622,0.463,0.473,0.4927,0.4953,0.4944,0.498,0.489,0.4798,0.4743,0.4607,0.4602,0.4643,0.4649,0.4607,0.4648,0.458,0.4542,0.4613,0.4762,0.4779,0.4733,0.4801,0.5015,0.5018,0.5018,0.5018,0.5018,0.5018,0.5018,0.5018,0.5018,0.5021,0.5091,0.5349,0.5605,0.5651,0.5697,0.573,0.8441,0.8619,0.8748,0.891,0.9077,0.9303,0.9502,0.9658,0.9669,0.9766,0.9911,0.9922,0.9965,1.0008,0.9954,0.9922,0.9927,0.9992,0.9981,0.9938,0.9986,0.9986,0.9927,0.9997,1.0024,1.0035,0.994,0.9653,0.9251,0.8737,0.8351,0.8139,0.8051,0.8019,0.7965,0.7925,0.7744,0.7526,0.7651,0.742,0.7016,0.7211,0.7473,0.7696,0.8139,0.8403,0.8527,0.9024,0.934,0.94,0.94,0.94,0.94,0.9405,0.948,0.9658,0.9825,0.9922,0.9922,0.9922,0.962,0.8932,0.8075,0.723,0.6234,0.4924,0.4382,0.4613,0.4384,0.4231,0.3921,0.3919,0.4075,0.4235,0.4235,0.4311,0.4698,0.4779,0.4776,0.4929,0.4953,0.4822,0.4936,0.486,0.4787,0.4806,0.4727,0.4675,0.4694,0.4705,0.4724,0.4784,0.4762,0.4762,0.4839,0.4874,0.4783,0.4686,0.4804,0.5015,0.5018,0.5018,0.5018,0.5018,0.5018,0.5018,0.5018,0.5018,0.5086,0.5203,0.5447,0.5716,0.5716,0.5733,0.5733,0.884,0.891,0.9335,0.9497,0.9556,0.9771,0.9879,0.9884,0.989,0.9911,0.9916,0.9933,1.0056,1.0245,1.0051,0.9938,0.9965,1.018,1.0164,0.9997,1.0175,1.0153,0.9943,1.0159,1.0277,1.021,0.9972,0.9661,0.918,0.8779,0.8556,0.8517,0.8145,0.7938,0.7853,0.7675,0.7532,0.7491,0.7289,0.7183,0.7358,0.7257,0.7089,0.699,0.7468,0.8098,0.8481,0.9197,0.9658,0.9873,0.9857,0.9868,0.9873,0.9868,0.9868,0.9895,0.9911,0.9922,0.9922,0.9857,0.9706,0.9246,0.8565,0.7846,0.7496,0.6041,0.5497,0.6465,0.564,0.5023,0.4233,0.4231,0.4387,0.4545,0.4465,0.4621,0.494,0.4781,0.4781,0.494,0.5004,0.4963,0.4871,0.4809,0.4817,0.4819,0.4738,0.4705,0.48,0.4825,0.4833,0.4857,0.4915,0.4996,0.4999,0.4993,0.5002,0.4908,0.49,0.5018,0.5018,0.5018,0.5018,0.5018,0.5018,0.5018,0.5018,0.508,0.5189,0.5333,0.5537,0.5719,0.5733,0.5733,0.5733,0.9082,0.9109,0.9443,0.965,0.9604,0.9825,0.9922,0.9922,0.9922,0.9922,0.9949,1.0083,1.0213,1.0299,1.0358,1.0379,1.039,1.0476,1.046,1.039,1.0471,1.046,1.0401,1.0482,1.0354,1.0049,0.9953,0.9495,0.8837,0.8427,0.8263,0.818,0.8094,0.7975,0.7902,0.7744,0.7659,0.7634,0.7411,0.7358,0.7472,0.7423,0.7472,0.7577,0.7863,0.8296,0.8975,0.928,0.9541,0.9841,0.9922,0.9922,0.9922,0.9922,0.9922,0.9922,0.9922,0.9922,0.9862,0.9909,0.9842,0.9737,0.9579,0.9094,0.8391,0.7319,0.6541,0.6314,0.6143,0.5489,0.4714,0.4462,0.4465,0.4623,0.4623,0.4701,0.4937,0.494,0.4937,0.5018,0.5018,0.4996,0.4961,0.4939,0.4936,0.4942,0.4909,0.4904,0.4931,0.4953,0.4944,0.4953,0.4988,0.5018,0.5018,0.5015,0.5018,0.5015,0.5018,0.5018,0.5018,0.5018,0.5018,0.5018,0.5018,0.5018,0.5018,0.5031,0.5175,0.5472,0.5678,0.5722,0.5733,0.5733,0.5733,0.9367,0.9453,0.9615,0.969,0.9707,0.9852,0.9922,0.9922,0.9922,0.9922,0.997,1.0186,1.0331,1.0433,1.0643,1.0799,1.0848,1.0794,1.0708,1.0649,1.0713,1.0708,1.0654,1.0713,1.05,1.0028,0.9761,0.9285,0.8703,0.8359,0.8191,0.8195,0.8195,0.8162,0.8093,0.7988,0.791,0.7829,0.7663,0.7594,0.763,0.7696,0.7902,0.8326,0.8367,0.8637,0.9246,0.9397,0.9625,0.9841,0.9922,0.9922,0.9922,0.9922,0.9922,0.9922,0.9922,0.9922,0.9857,0.9914,0.9962,0.9985,1.0247,0.9987,0.9279,0.8401,0.7728,0.7396,0.6388,0.5784,0.5498,0.4996,0.4737,0.4789,0.4781,0.4859,0.494,0.5018,0.5018,0.5018,0.5018,0.5018,0.5018,0.5015,0.5012,0.5018,0.5018,0.5018,0.5018,0.5018,0.5018,0.5018,0.5012,0.5018,0.5018,0.5018,0.5018,0.5018,0.5018,0.5018,0.5018,0.5018,0.5018,0.5018,0.5018,0.5018,0.5018,0.5018,0.5222,0.5529,0.5678,0.573,0.5733,0.5733,0.5733,0.9707,0.9873,0.9922,0.9922,0.9927,0.9949,0.9938,0.9954,0.9943,0.996,1.0003,1.0218,1.0476,1.0654,1.0885,1.1106,1.1219,1.1074,1.0891,1.074,1.0813,1.0792,1.0637,1.073,1.0569,1.0159,0.9584,0.9061,0.8603,0.8599,0.8515,0.8544,0.8519,0.8426,0.8292,0.8251,0.8174,0.8016,0.7849,0.7829,0.7943,0.8064,0.8362,0.8885,0.8822,0.8961,0.9342,0.963,0.9841,0.9846,0.9922,0.9922,0.9922,0.9922,0.9922,0.9949,0.9938,0.9938,0.996,0.9932,1.0092,1.0261,1.0336,1.0429,1.0212,0.9433,0.8987,0.902,0.75,0.6096,0.6361,0.5687,0.5066,0.5045,0.5048,0.5059,0.5023,0.5018,0.5018,0.5018,0.5018,0.5018,0.5018,0.5018,0.5018,0.5018,0.5018,0.5018,0.5018,0.5018,0.5018,0.5018,0.5018,0.5018,0.5018,0.5018,0.5018,0.5018,0.5018,0.5018,0.5018,0.5018,0.5018,0.5018,0.5018,0.5018,0.5018,0.5029,0.5192,0.5449,0.5615,0.5808,0.5819,0.5905,0.5819,0.9857,0.9943,1.0105,1.018,1.018,1.0175,1.018,1.018,1.0175,1.0175,1.025,1.0595,1.081,1.0912,1.1122,1.1278,1.1251,1.1262,1.1192,1.1054,1.0846,1.0665,1.0619,1.0414,1.0029,0.9611,0.9056,0.8744,0.866,0.8576,0.8572,0.8572,0.8572,0.854,0.8471,0.8357,0.8251,0.8191,0.8028,0.7914,0.7926,0.8207,0.8566,0.9006,0.9267,0.9622,0.9937,0.9713,0.9625,0.9846,0.9922,0.9922,0.9922,0.9922,1.0003,1.0159,1.018,1.0261,1.0327,1.0284,1.0316,1.0525,1.0816,1.0851,1.0824,1.059,0.9808,0.8892,0.7424,0.6732,0.6001,0.5567,0.526,0.5151,0.5205,0.5173,0.5042,0.5018,0.5018,0.5018,0.5018,0.5018,0.5018,0.5018,0.5018,0.5018,0.5018,0.5018,0.5018,0.5018,0.5018,0.5018,0.5018,0.5018,0.5018,0.5018,0.5018,0.5018,0.5018,0.5018,0.5018,0.5018,0.5018,0.5018,0.5018,0.5018,0.5018,0.5048,0.5201,0.5542,0.5795,0.6002,0.6057,0.608,0.608,1.011,1.0202,1.0353,1.0423,1.0417,1.0423,1.0423,1.0423,1.0423,1.0417,1.0503,1.081,1.0982,1.1031,1.1241,1.1262,1.1267,1.117,1.1079,1.0992,1.0814,1.0549,1.0381,0.9951,0.9607,0.9275,0.889,0.8662,0.8666,0.8731,0.8731,0.8674,0.8662,0.8625,0.8572,0.8455,0.848,0.8623,0.8459,0.8425,0.8608,0.8886,0.9171,0.9541,0.9825,1.0105,1.0306,0.9797,0.9625,0.9846,0.9922,0.996,1.004,1.0067,1.0169,1.0363,1.0428,1.0487,1.0552,1.0463,1.0579,1.0744,1.1047,1.1192,1.1054,1.1026,1.0034,0.924,0.7858,0.6967,0.6351,0.5709,0.5401,0.5333,0.5292,0.5222,0.5059,0.5018,0.5018,0.5018,0.5018,0.5018,0.5018,0.5018,0.5018,0.5018,0.5018,0.5018,0.5018,0.5018,0.5018,0.5018,0.5018,0.5018,0.5018,0.5018,0.5018,0.5018,0.5018,0.5018,0.5018,0.5018,0.5018,0.5018,0.5018,0.5018,0.5018,0.5021,0.5159,0.5564,0.6079,0.6349,0.6432,0.652,0.6435,1.0433,1.0546,1.0649,1.0659,1.0654,1.0654,1.0654,1.0659,1.0654,1.0654,1.0708,1.0929,1.1025,1.1069,1.1262,1.1267,1.1176,1.0814,1.0549,1.0463,1.0376,1.0207,0.9777,0.9432,0.9262,0.9196,0.8901,0.88,0.88,0.8958,0.9003,0.8816,0.8792,0.8731,0.8593,0.8648,0.8894,0.9118,0.9064,0.9303,0.9833,0.9952,1.007,1.0252,1.0347,1.0471,1.0568,1.0183,0.9905,0.9933,0.9949,1.0067,1.0239,1.0299,1.0412,1.0632,1.0654,1.0681,1.0681,1.069,1.0755,1.0999,1.1047,1.1095,1.1203,1.0712,1.0467,1.0697,0.8824,0.7418,0.7232,0.6489,0.5726,0.5432,0.5358,0.5195,0.5078,0.505,0.5029,0.5042,0.5037,0.5031,0.5037,0.5026,0.5037,0.5018,0.5018,0.5018,0.5018,0.5018,0.5018,0.5018,0.5018,0.5018,0.5018,0.5018,0.5018,0.5018,0.5018,0.5018,0.5018,0.5018,0.5018,0.5018,0.5026,0.5023,0.5018,0.5021,0.5396,0.6092,0.6455,0.6741,0.6786,0.6789,0.6789,1.0579,1.0649,1.0816,1.0891,1.0891,1.0891,1.0891,1.0891,1.0891,1.0891,1.0945,1.1144,1.1241,1.1262,1.1225,1.117,1.0814,1.0641,1.0207,0.9689,0.9602,0.9345,0.8999,0.8828,0.8832,0.8773,0.8853,0.882,0.8836,0.9035,0.9015,0.8828,0.8844,0.8743,0.8681,0.8924,0.9178,0.9349,0.9648,0.9719,0.9814,1.0149,1.0252,1.0376,1.0605,1.081,1.0869,1.0606,1.0261,0.996,1.0105,1.0218,1.0326,1.046,1.0649,1.0848,1.0902,1.0977,1.1112,1.1059,1.1187,1.1241,1.1225,1.1198,1.1251,1.1089,1.1018,1.1029,0.9822,0.8487,0.7478,0.6838,0.634,0.5634,0.542,0.5344,0.5328,0.5178,0.5059,0.517,0.5235,0.5189,0.5097,0.5091,0.5108,0.5042,0.5034,0.5023,0.5026,0.5037,0.5045,0.5023,0.5018,0.5018,0.5018,0.5018,0.5018,0.5018,0.5018,0.5018,0.5018,0.5018,0.5018,0.5018,0.5126,0.5134,0.5031,0.5018,0.5755,0.6515,0.6763,0.6962,0.6962,0.6962,0.6962,1.0837,1.0867,1.1085,1.1139,1.1139,1.1133,1.1139,1.1139,1.1139,1.1139,1.1176,1.1278,1.1176,1.0992,1.0997,1.0733,1.0381,1.0125,0.9772,0.9362,0.9168,0.8899,0.8693,0.8625,0.8674,0.8706,0.8926,0.9039,0.9181,0.942,0.9395,0.9181,0.9225,0.9188,0.9046,0.9199,0.9592,0.9878,1.012,1.0225,1.0389,1.0544,1.0714,1.0773,1.0963,1.095,1.0842,1.0789,1.06,1.0326,1.0309,1.0412,1.0579,1.067,1.0864,1.1106,1.1133,1.1209,1.1225,1.1267,1.1267,1.1267,1.1267,1.1267,1.1267,1.1267,1.1192,1.0028,0.9593,0.8632,0.7404,0.6789,0.6225,0.5725,0.5561,0.5513,0.5488,0.5328,0.5254,0.5391,0.5444,0.5449,0.5267,0.5311,0.5165,0.5091,0.5129,0.5089,0.505,0.5067,0.5075,0.5064,0.5037,0.5031,0.5021,0.5018,0.5083,0.5083,0.5086,0.5072,0.5053,0.505,0.5134,0.5145,0.5159,0.5241,0.5227,0.5334,0.5915,0.6479,0.6934,0.7139,0.7139,0.7139,0.7139,1.1149,1.1267,1.1267,1.1267,1.1257,1.1262,1.1241,1.1257,1.1246,1.1246,1.1251,1.1257,1.0997,1.0636,1.0554,1.0294,0.9864,0.9607,0.9376,0.9168,0.8987,0.8747,0.8706,0.8804,0.8939,0.8984,0.9292,0.9486,0.9719,1.0179,1.0082,0.9814,0.9975,0.9997,0.9713,0.9719,1.0056,1.046,1.0656,1.0814,1.1063,1.1176,1.1273,1.1198,1.107,1.102,1.0929,1.0929,1.0912,1.0642,1.0557,1.0659,1.0923,1.0912,1.1052,1.1171,1.1225,1.1241,1.1262,1.1267,1.1267,1.1267,1.1267,1.1267,1.1267,1.1267,1.0631,0.9022,0.8611,0.8277,0.7228,0.6349,0.5816,0.5708,0.5714,0.5619,0.5485,0.5474,0.5491,0.5513,0.5485,0.5559,0.5605,0.5549,0.5325,0.5309,0.5295,0.5214,0.5178,0.5184,0.5167,0.5129,0.5091,0.5045,0.5031,0.5018,0.511,0.517,0.5184,0.5173,0.5132,0.5124,0.5203,0.5297,0.5514,0.5586,0.5615,0.5857,0.6274,0.6593,0.7011,0.7139,0.7139,0.7139,0.7139,1.13,1.1267,1.1267,1.1267,1.1267,1.1267,1.1267,1.1267,1.1267,1.1267,1.1176,1.0911,1.0727,1.0549,1.0299,0.9864,0.9524,0.9279,0.9155,0.8853,0.8882,0.8901,0.8954,0.9035,0.9317,0.9558,0.9806,1.0205,1.0555,1.078,1.0895,1.0628,1.0605,1.066,1.044,1.0558,1.0701,1.0972,1.1102,1.1202,1.1342,1.1532,1.1532,1.1408,1.1311,1.1365,1.1418,1.1343,1.1166,1.1155,1.0993,1.0907,1.1009,1.1144,1.1257,1.123,1.1267,1.1267,1.1267,1.1267,1.1267,1.1267,1.1267,1.1267,1.1267,1.1262,1.0361,0.9109,0.9131,0.8544,0.7228,0.626,0.5822,0.5733,0.573,0.5714,0.5667,0.5662,0.5651,0.5651,0.5654,0.5673,0.5736,0.5548,0.5518,0.5534,0.5466,0.5363,0.5322,0.5301,0.5273,0.523,0.5197,0.5156,0.5094,0.5116,0.5233,0.5303,0.532,0.5271,0.523,0.523,0.5322,0.5606,0.5909,0.5967,0.6028,0.6434,0.6807,0.6997,0.7149,0.7078,0.7084,0.7071,0.7183,1.1267,1.1267,1.1267,1.1267,1.1267,1.1267,1.1267,1.1267,1.1267,1.1267,1.1176,1.0814,1.0549,1.0294,0.9868,0.9432,0.9112,0.9004,0.8995,0.8848,0.897,0.9222,0.9592,0.9672,0.9884,1.0112,1.045,1.0821,1.1066,1.1312,1.1336,1.1134,1.1308,1.1311,1.113,1.1251,1.1349,1.1472,1.1462,1.1558,1.1682,1.1671,1.1741,1.165,1.1591,1.1623,1.1806,1.1515,1.1499,1.1526,1.1348,1.116,1.116,1.1273,1.1257,1.1267,1.1267,1.1267,1.1267,1.1267,1.1267,1.1267,1.1267,1.1267,1.1176,1.0911,1.0019,0.8869,0.844,0.7929,0.6612,0.6083,0.5733,0.5733,0.5733,0.5733,0.5733,0.5733,0.5733,0.5733,0.5722,0.5725,0.57,0.5648,0.5646,0.5635,0.5635,0.5534,0.539,0.5374,0.5379,0.5352,0.532,0.5271,0.5189,0.5233,0.5379,0.5447,0.5488,0.5409,0.5325,0.5347,0.5457,0.5748,0.6036,0.6459,0.6563,0.7004,0.7149,0.7081,0.7098,0.7118,0.7068,0.7111,0.7218,1.1267,1.1267,1.1267,1.1267,1.1267,1.1267,1.1267,1.1267,1.1267,1.1267,1.1176,1.0727,1.0294,0.9951,0.9437,0.9012,0.8907,0.8914,0.9009,0.9171,0.9562,0.9797,1.0079,1.0462,1.0683,1.0473,1.0988,1.1365,1.1565,1.1878,1.196,1.1575,1.1873,1.1956,1.1823,1.1742,1.1817,1.2005,1.1876,1.1817,1.1968,1.1898,1.1968,1.2091,1.1881,1.1881,1.1973,1.1774,1.1645,1.1984,1.1639,1.1445,1.1397,1.1273,1.1267,1.1267,1.1267,1.1267,1.1267,1.1267,1.1267,1.1267,1.1267,1.1273,1.11,1.0477,0.9323,0.8181,0.7397,0.67,0.5822,0.5733,0.5733,0.5733,0.5733,0.5733,0.5733,0.5733,0.5733,0.5733,0.5733,0.5733,0.5733,0.5708,0.5725,0.5733,0.573,0.5689,0.5545,0.5472,0.5494,0.5513,0.5494,0.5488,0.5417,0.5388,0.5529,0.5559,0.5616,0.5551,0.5458,0.5499,0.5617,0.586,0.6159,0.6492,0.6799,0.7021,0.7071,0.7104,0.7101,0.7086,0.7129,0.7158,0.7267,1.1267,1.1267,1.1267,1.1267,1.1267,1.1267,1.1267,1.1267,1.1262,1.1267,1.1176,1.0472,1.0038,0.9781,0.9091,0.8996,0.9302,0.9496,0.9635,0.9934,1.0301,1.0578,1.0622,1.1151,1.1551,1.1745,1.1873,1.2078,1.237,1.2667,1.2467,1.2467,1.2565,1.2517,1.2448,1.2437,1.2241,1.2334,1.2124,1.2048,1.2113,1.2226,1.235,1.2506,1.2194,1.2145,1.2237,1.2091,1.1973,1.2102,1.1779,1.1666,1.1607,1.1478,1.1305,1.1267,1.1267,1.1267,1.1267,1.1262,1.1267,1.1267,1.1089,1.1213,1.105,1.0318,0.8623,0.7031,0.6251,0.5911,0.5733,0.5752,0.5738,0.5738,0.5746,0.5741,0.5738,0.5733,0.5733,0.5733,0.5733,0.5733,0.5733,0.5733,0.5733,0.5733,0.5733,0.573,0.5659,0.5632,0.5657,0.5673,0.5687,0.5684,0.5667,0.5643,0.5678,0.5665,0.5689,0.5689,0.5638,0.5676,0.5778,0.6011,0.6183,0.6577,0.6786,0.7058,0.7197,0.7165,0.7204,0.7156,0.7243,0.734,0.7445,1.1267,1.1267,1.1267,1.1267,1.1267,1.1267,1.1176,1.0987,1.0906,1.0824,1.0477,0.9951,0.9607,0.9459,0.9021,0.9066,0.9661,1.0177,1.0318,1.0587,1.089,1.1172,1.1189,1.178,1.2175,1.237,1.2467,1.2467,1.2759,1.2764,1.2759,1.2759,1.2759,1.2759,1.2748,1.2662,1.2592,1.2533,1.2371,1.2301,1.2393,1.2544,1.2662,1.2624,1.2468,1.2388,1.2474,1.2215,1.2281,1.2373,1.1995,1.1855,1.1801,1.1698,1.1515,1.1316,1.1278,1.1267,1.1176,1.0911,1.0559,1.0472,1.0212,1.0397,1.0455,0.9535,0.7764,0.634,0.5725,0.576,0.5817,0.582,0.5822,0.582,0.5817,0.579,0.5754,0.5741,0.5741,0.5741,0.5735,0.5735,0.5733,0.5733,0.5733,0.5733,0.5733,0.5733,0.5733,0.5733,0.5733,0.5733,0.573,0.573,0.573,0.5733,0.5733,0.5733,0.5738,0.5738,0.5749,0.5752,0.5866,0.614,0.6415,0.6635,0.6723,0.689,0.7055,0.7339,0.7492,0.7611,0.7506,0.7537,0.7654,1.1267,1.1267,1.1267,1.1267,1.1267,1.1176,1.0992,1.0636,1.0549,1.0294,0.9951,0.9519,0.9349,0.9218,0.9187,0.937,1.012,1.0768,1.1067,1.1168,1.1482,1.1775,1.1878,1.2175,1.237,1.2662,1.2764,1.2759,1.2759,1.2759,1.2759,1.2759,1.2759,1.2759,1.2748,1.2737,1.2759,1.2705,1.2603,1.2603,1.2716,1.2759,1.2759,1.2759,1.2581,1.2576,1.2673,1.2447,1.2431,1.2479,1.2274,1.1978,1.2059,1.1925,1.1715,1.1532,1.1456,1.1321,1.0835,1.0455,1.0012,0.9689,0.902,0.9491,0.9549,0.8508,0.6668,0.5955,0.5812,0.5852,0.5928,0.5939,0.5939,0.5931,0.5912,0.588,0.5833,0.5801,0.5776,0.5768,0.5749,0.5738,0.5738,0.5733,0.5733,0.5733,0.5733,0.5733,0.5733,0.5733,0.5733,0.5733,0.5733,0.5733,0.5733,0.5733,0.5733,0.5733,0.5744,0.5749,0.5768,0.5787,0.6012,0.6262,0.6629,0.6827,0.6781,0.6902,0.7244,0.7567,0.7841,0.7882,0.7699,0.7777,0.7805,1.1267,1.1267,1.1267,1.1267,1.1262,1.0901,1.0636,1.0549,1.0207,1.0038,0.9864,0.9524,0.9266,0.9341,0.9477,0.9935,1.0608,1.1283,1.1753,1.1889,1.2247,1.2273,1.2175,1.2473,1.257,1.2759,1.2759,1.2759,1.2759,1.2759,1.2759,1.2759,1.2759,1.2759,1.2759,1.2759,1.2759,1.2754,1.2727,1.2727,1.2657,1.2662,1.2662,1.2651,1.2732,1.2711,1.2754,1.263,1.2689,1.2673,1.2447,1.2301,1.2301,1.2011,1.193,1.1865,1.1684,1.1211,1.0406,1.0037,0.9527,0.8928,0.852,0.8706,0.8391,0.7545,0.6193,0.6037,0.5988,0.6032,0.6053,0.6064,0.6064,0.6034,0.5999,0.6002,0.5977,0.5888,0.5858,0.5825,0.5817,0.5768,0.5741,0.5738,0.5733,0.5733,0.5733,0.5733,0.5733,0.5733,0.5733,0.5733,0.5733,0.5733,0.5733,0.5733,0.5741,0.5738,0.5768,0.5782,0.5817,0.5954,0.6138,0.6397,0.6771,0.7114,0.7123,0.7315,0.7614,0.778,0.7945,0.7935,0.7807,0.7916,0.8021,1.1267,1.1267,1.1267,1.1176,1.0901,1.0636,1.0289,0.9859,0.9694,0.9432,0.9262,0.8999,0.9021,0.9276,0.9866,1.0538,1.1072,1.1859,1.2352,1.2431,1.2651,1.2657,1.257,1.2667,1.2759,1.2759,1.2759,1.2759,1.2759,1.2759,1.2759,1.2759,1.2759,1.2759,1.2759,1.2759,1.2759,1.2657,1.2257,1.1965,1.1868,1.1868,1.196,1.196,1.2462,1.2759,1.2759,1.2759,1.2759,1.2743,1.2603,1.2506,1.2457,1.2344,1.2301,1.2027,1.1441,1.0876,1.0357,0.9839,0.8976,0.8051,0.753,0.7188,0.6987,0.659,0.607,0.6034,0.6064,0.6116,0.6176,0.6189,0.6189,0.6165,0.6116,0.6094,0.6086,0.6013,0.5953,0.5918,0.5888,0.5866,0.5828,0.5787,0.5779,0.5754,0.5746,0.5733,0.5733,0.5733,0.5733,0.5733,0.5733,0.5733,0.5733,0.5735,0.5662,0.5768,0.5841,0.586,0.5985,0.6138,0.6332,0.6661,0.6982,0.7235,0.7401,0.7634,0.7744,0.7933,0.8031,0.8167,0.8304,0.8048,0.8329,1.1084,1.117,1.1089,1.0819,1.0463,1.0289,0.9951,0.9345,0.9174,0.8915,0.8668,0.8617,0.8792,0.9284,1.0125,1.0768,1.1096,1.2164,1.2576,1.2678,1.2689,1.2705,1.2743,1.2759,1.2759,1.2759,1.2759,1.2759,1.2759,1.2759,1.2759,1.2759,1.2759,1.2759,1.2764,1.2462,1.2165,1.1678,1.1473,1.1175,1.0979,1.1473,1.1473,1.1668,1.216,1.2759,1.2759,1.2759,1.2759,1.2754,1.2748,1.2651,1.2565,1.2597,1.2549,1.2172,1.1532,1.0768,1.0072,0.9276,0.8284,0.7312,0.6652,0.6355,0.6309,0.6115,0.6174,0.6189,0.6195,0.6241,0.6282,0.6309,0.6309,0.6295,0.6265,0.6225,0.6176,0.6105,0.6094,0.6124,0.6092,0.6037,0.5983,0.5888,0.5833,0.5787,0.576,0.5741,0.5733,0.5733,0.5733,0.5733,0.5733,0.5744,0.5763,0.5763,0.5684,0.5737,0.5899,0.5969,0.6117,0.6367,0.6646,0.6954,0.734,0.7614,0.7919,0.794,0.7957,0.8199,0.8432,0.8726,0.8806,0.863,0.9027,1.0636,1.0636,1.0636,1.0376,1.0038,0.9607,0.9345,0.917,0.8828,0.866,0.8613,0.8718,0.8808,0.9209,1.0175,1.074,1.0758,1.1869,1.2341,1.2457,1.2457,1.2592,1.2689,1.2759,1.2759,1.2759,1.2759,1.2759,1.2759,1.2759,1.2759,1.2759,1.2759,1.2759,1.2462,1.1868,1.1375,1.0984,1.0979,1.0779,1.0783,1.1277,1.1965,1.157,1.2165,1.2759,1.2759,1.2759,1.2759,1.2759,1.2759,1.2759,1.27,1.2727,1.2667,1.2448,1.1646,1.078,1.0052,0.8794,0.7442,0.6602,0.6208,0.6159,0.6219,0.6343,0.6399,0.6363,0.6344,0.6372,0.6404,0.6423,0.6399,0.638,0.6352,0.6333,0.6274,0.6195,0.6203,0.6298,0.6287,0.6214,0.6168,0.6078,0.5961,0.5912,0.5806,0.5782,0.5741,0.5733,0.5733,0.5733,0.5733,0.5754,0.5803,0.5841,0.5839,0.5893,0.5949,0.6121,0.6192,0.6543,0.7255,0.7687,0.8293,0.8273,0.84,0.8739,0.8822,0.8693,0.8825,0.9118,0.9903,1.0297,1.0797,1.0348,1.0207,0.9951,0.9689,0.9515,0.9349,0.9174,0.8915,0.8652,0.8633,0.8731,0.8796,0.8946,0.9397,1.0147,1.0731,1.0839,1.1719,1.2202,1.2382,1.2441,1.256,1.2689,1.2759,1.2759,1.2759,1.2759,1.2759,1.2759,1.2759,1.2759,1.2759,1.2759,1.2262,1.1863,1.1565,1.1272,1.1375,1.1175,1.0877,1.0974,1.1175,1.1565,1.137,1.2262,1.2759,1.2759,1.2759,1.2759,1.2759,1.2759,1.2759,1.2759,1.2759,1.2759,1.2662,1.1765,1.1072,1.0288,0.8947,0.7423,0.662,0.6306,0.6306,0.6333,0.6361,0.6385,0.6423,0.6437,0.6437,0.6437,0.6434,0.6429,0.6423,0.6415,0.6407,0.6369,0.629,0.6282,0.6366,0.6382,0.6352,0.6317,0.6279,0.6151,0.6034,0.5918,0.5822,0.5798,0.5763,0.5768,0.5741,0.5733,0.595,0.6026,0.6072,0.6018,0.6143,0.6181,0.652,0.6875,0.772,0.8354,0.8806,0.9308,0.9792,0.9951,0.9871,0.9786,0.9678,0.9509,0.9414,1.0395,1.1663,1.216,1.0037,0.9693,0.9235,0.9087,0.9087,0.9087,0.8911,0.8664,0.8625,0.8739,0.8905,0.8962,0.9104,0.956,1.0364,1.0783,1.1,1.1651,1.2154,1.2301,1.2366,1.2506,1.2667,1.2759,1.2759,1.2759,1.2759,1.2759,1.2759,1.2759,1.2759,1.2759,1.2759,1.2365,1.1965,1.137,1.1468,1.1473,1.157,1.0877,1.0779,1.1473,1.1468,1.1468,1.2262,1.2759,1.2759,1.2759,1.2759,1.2759,1.2759,1.2759,1.2759,1.2759,1.2759,1.2462,1.1965,1.1272,1.0681,0.93,0.7624,0.6603,0.6412,0.642,0.6437,0.6437,0.6431,0.6434,0.6437,0.6437,0.6437,0.6437,0.6437,0.6431,0.6431,0.6423,0.6426,0.638,0.6391,0.6423,0.6423,0.6415,0.6401,0.6352,0.6238,0.6143,0.6097,0.5994,0.5926,0.5882,0.5833,0.579,0.5733,0.6021,0.6314,0.6382,0.6449,0.6449,0.6677,0.7378,0.7929,0.878,0.93,0.96,1.0293,1.1268,1.1526,1.1569,1.1109,1.0574,1.0681,1.1175,1.1853,1.3028,1.3125,0.9642,0.8998,0.8752,0.8656,0.8652,0.8656,0.866,0.8613,0.8755,0.8917,0.9096,0.9234,0.9319,0.9673,1.05,1.0824,1.0971,1.1646,1.2118,1.2264,1.2215,1.2377,1.2619,1.2759,1.2759,1.2759,1.2759,1.2759,1.2759,1.2759,1.2759,1.2759,1.2759,1.2667,1.2657,1.1668,1.0783,1.01,1.0979,1.0783,1.0788,1.1873,1.1965,1.1863,1.2262,1.2759,1.2759,1.2759,1.2759,1.2759,1.2759,1.2759,1.2759,1.2759,1.2759,1.2662,1.1863,1.137,1.1072,0.9106,0.7922,0.683,0.6634,0.6431,0.6437,0.6437,0.6437,0.6437,0.6437,0.6437,0.6437,0.6437,0.6437,0.6637,0.6734,0.6734,0.6734,0.6734,0.6833,0.6537,0.6437,0.6437,0.6437,0.6404,0.6298,0.6238,0.6238,0.617,0.6062,0.5999,0.5937,0.592,0.5869,0.6053,0.6325,0.6592,0.6697,0.679,0.7368,0.8259,0.9151,0.9981,1.0395,1.0592,1.1463,1.2538,1.2931,1.3216,1.2635,1.2242,1.3028,1.3613,1.41,1.41,1.3902,0.9315,0.9161,0.8803,0.8572,0.8572,0.8572,0.8629,0.8759,0.8926,0.91,0.925,0.934,0.9433,0.9761,1.0292,1.0679,1.0841,1.121,1.1758,1.2145,1.2178,1.2371,1.263,1.2759,1.2759,1.2759,1.2759,1.2759,1.2759,1.2759,1.2759,1.2759,1.2759,1.2759,1.2462,1.1868,1.1175,1.1673,1.2068,1.2068,1.1775,1.2365,1.2657,1.2165,1.2662,1.2759,1.2759,1.2759,1.2759,1.2759,1.2759,1.2759,1.2759,1.2759,1.2759,1.2759,1.2262,1.1868,1.137,1.0288,0.9304,0.8014,0.6918,0.662,0.6431,0.6437,0.6437,0.6437,0.6637,0.6537,0.6437,0.6437,0.6634,0.7428,0.7528,0.7524,0.7524,0.7524,0.7428,0.6734,0.6437,0.6637,0.6637,0.7033,0.7039,0.6896,0.689,0.6514,0.6309,0.6183,0.6048,0.6075,0.6083,0.6192,0.6412,0.7378,0.7406,0.7177,0.828,0.9801,1.0605,1.1389,1.1575,1.1765,1.2737,1.3709,1.3806,1.3811,1.4106,1.4202,1.4298,1.4298,1.4298,1.4202,1.4202,0.9176,0.8901,0.8715,0.8572,0.8572,0.8572,0.8666,0.8836,0.9015,0.9198,0.934,0.9413,0.9604,0.9896,1.0192,1.0679,1.0817,1.1084,1.1647,1.2108,1.207,1.2361,1.2624,1.2759,1.2759,1.2759,1.2759,1.2759,1.2759,1.2759,1.2759,1.2759,1.2759,1.2759,1.2559,1.2262,1.2063,1.2467,1.2662,1.2662,1.2565,1.2759,1.2759,1.2759,1.2759,1.2759,1.2759,1.2759,1.2759,1.2759,1.2759,1.2759,1.2759,1.2759,1.2759,1.2759,1.2759,1.2365,1.1965,1.1765,1.0779,0.9395,0.7991,0.7403,0.7524,0.8031,0.7928,0.7726,0.7229,0.7229,0.7428,0.7325,0.7428,0.8219,0.8517,0.8517,0.812,0.812,0.7922,0.7229,0.7033,0.7129,0.7329,0.7627,0.7991,0.777,0.7553,0.7152,0.6873,0.6768,0.6756,0.6783,0.6906,0.7085,0.7831,0.8966,0.8682,0.7661,0.917,1.1007,1.1893,1.2667,1.2754,1.2937,1.3522,1.4004,1.4202,1.4298,1.4298,1.4298,1.4298,1.4298,1.4298,1.4298,1.4298,0.9043,0.8402,0.8491,0.8572,0.8572,0.8572,0.8666,0.8836,0.9019,0.919,0.9348,0.949,0.9722,1.0214,1.0145,1.0598,1.1194,1.1111,1.1624,1.2096,1.2167,1.2447,1.2635,1.2759,1.2759,1.2759,1.2759,1.2759,1.2759,1.2759,1.2759,1.2759,1.2759,1.2759,1.2759,1.2662,1.2662,1.2759,1.2759,1.2759,1.2759,1.2759,1.2759,1.2759,1.2759,1.2759,1.2759,1.2759,1.2759,1.2759,1.2759,1.2759,1.2759,1.2759,1.2759,1.2759,1.2759,1.2662,1.2662,1.2559,1.2262,1.0877,0.9776,0.9391,0.9312,0.964,0.9747,0.9331,0.8825,0.9015,0.911,0.8814,0.8517,0.911,0.9608,0.9308,0.8616,0.8418,0.8418,0.8219,0.8219,0.8418,0.8817,0.9114,0.9011,0.87,0.8678,0.8758,0.8384,0.8014,0.8007,0.8112,0.8143,0.8178,0.9008,1.0186,0.996,0.9131,1.0538,1.2268,1.3152,1.3551,1.3443,1.3528,1.401,1.4304,1.4298,1.4298,1.4298,1.4298,1.4298,1.4298,1.4298,1.4298,1.4298,0.9081,0.8721,0.8661,0.8572,0.8572,0.8572,0.8662,0.8832,0.9015,0.9137,0.9177,0.9226,0.9569,0.9982,0.9789,1.0287,1.0778,1.1101,1.1556,1.1881,1.2264,1.2495,1.2662,1.2759,1.2759,1.2759,1.2759,1.2759,1.2759,1.2759,1.2759,1.2759,1.2759,1.2759,1.2759,1.2759,1.2759,1.2759,1.2759,1.2759,1.2759,1.2759,1.2759,1.2759,1.2759,1.2759,1.2861,1.2861,1.2861,1.2764,1.2764,1.2764,1.2759,1.2759,1.2759,1.2759,1.2759,1.2759,1.2759,1.2759,1.2565,1.2365,1.1663,1.0685,1.0618,1.0856,1.1274,1.0636,1.0422,1.052,1.0105,0.9702,0.9801,1.0293,1.069,1.0391,0.9895,0.9698,0.96,0.9304,0.9304,0.9801,1.0199,1.0301,1.0199,0.9805,0.9702,0.9899,0.9797,0.9402,0.9406,0.9505,0.9505,0.9604,1.0194,1.1179,1.0942,1.0914,1.2124,1.3141,1.3647,1.3943,1.3931,1.4022,1.4208,1.4304,1.4298,1.4298,1.4298,1.4298,1.4298,1.4298,1.4298,1.4298,1.4298,0.911,0.8887,0.8661,0.8572,0.8572,0.8572,0.8633,0.8747,0.8913,0.8991,0.8999,0.9072,0.9372,0.9727,0.9479,0.9781,1.0773,1.078,1.1151,1.1853,1.2256,1.2538,1.2689,1.2759,1.2759,1.2759,1.2759,1.2759,1.2759,1.2759,1.2759,1.2759,1.2759,1.2759,1.2759,1.2759,1.2759,1.2759,1.2759,1.2759,1.2759,1.2759,1.2759,1.2759,1.2759,1.2861,1.2861,1.2861,1.2958,1.2958,1.2958,1.2958,1.2958,1.2861,1.305,1.305,1.2953,1.2953,1.2958,1.2861,1.2764,1.2764,1.2764,1.2073,1.179,1.1923,1.182,1.1497,1.1717,1.1727,1.1105,1.069,1.1179,1.1673,1.1668,1.157,1.137,1.117,1.0877,1.0489,1.069,1.1086,1.1385,1.1385,1.1482,1.138,1.1282,1.138,1.1175,1.0681,1.0881,1.1082,1.1086,1.1086,1.1678,1.1965,1.1833,1.2002,1.2898,1.3721,1.4136,1.4232,1.4118,1.4112,1.4208,1.4298,1.4298,1.4298,1.4298,1.4328,1.4352,1.4316,1.431,1.4298,1.4298,0.9082,0.8861,0.8653,0.8656,0.8656,0.8656,0.8572,0.8589,0.8739,0.8804,0.8832,0.897,0.9288,0.9579,0.9186,0.9505,1.0295,1.0548,1.0977,1.1647,1.2278,1.2608,1.2711,1.2759,1.2759,1.2759,1.2759,1.2759,1.2759,1.2759,1.2759,1.2759,1.2759,1.2759,1.2759,1.2759,1.2759,1.2759,1.2759,1.2759,1.2759,1.2759,1.2759,1.2759,1.2856,1.2856,1.305,1.305,1.3152,1.3249,1.3249,1.3249,1.3152,1.3055,1.3249,1.334,1.3244,1.3147,1.3152,1.3055,1.2958,1.2958,1.2867,1.2667,1.2581,1.2494,1.2283,1.2181,1.2294,1.2299,1.1878,1.1575,1.1873,1.2165,1.2262,1.2165,1.1868,1.1765,1.1668,1.1473,1.1673,1.2073,1.2073,1.217,1.2073,1.2365,1.2467,1.2467,1.2268,1.1668,1.1868,1.2268,1.2073,1.1975,1.2365,1.2651,1.2727,1.3108,1.3698,1.3998,1.4214,1.431,1.4304,1.4298,1.4298,1.4298,1.4298,1.4298,1.4364,1.4515,1.4497,1.437,1.434,1.4479,1.4503,0.8891,0.8695,0.8607,0.8828,0.9087,0.874,0.8572,0.8572,0.8605,0.8637,0.8641,0.8771,0.8974,0.9339,0.8953,0.9289,1.0062,1.0562,1.1027,1.1652,1.2379,1.2651,1.2748,1.2759,1.2759,1.2759,1.2759,1.2759,1.2759,1.2759,1.2759,1.2759,1.2759,1.2759,1.2759,1.2759,1.2759,1.2759,1.2759,1.2759,1.2759,1.2759,1.2759,1.2764,1.2856,1.2953,1.305,1.3147,1.3244,1.3346,1.3443,1.3443,1.3346,1.3346,1.3443,1.3443,1.3437,1.3443,1.3346,1.3346,1.3249,1.3249,1.3255,1.3152,1.3055,1.2958,1.2764,1.2662,1.2662,1.2662,1.2662,1.2462,1.2462,1.2662,1.2759,1.2559,1.2365,1.236,1.236,1.2462,1.2662,1.2764,1.2759,1.2856,1.2759,1.2759,1.2759,1.2662,1.2662,1.2365,1.236,1.2559,1.2662,1.2662,1.2953,1.3238,1.3318,1.3409,1.38,1.41,1.431,1.4298,1.4298,1.4298,1.4298,1.4298,1.4298,1.4298,1.4401,1.4606,1.4727,1.4636,1.4808,1.4937,1.501,0.8932,0.8756,0.8547,0.8665,0.8903,0.874,0.8572,0.8572,0.8572,0.8572,0.8572,0.8656,0.8744,0.9003,0.8744,0.9093,1.0013,1.0513,1.1145,1.1859,1.2373,1.2721,1.2759,1.2759,1.2759,1.2759,1.2759,1.2759,1.2759,1.2759,1.2759,1.2759,1.2759,1.2759,1.2759,1.2759,1.2759,1.2759,1.2759,1.2759,1.2759,1.2764,1.2759,1.2764,1.2953,1.305,1.3244,1.334,1.3539,1.3636,1.3539,1.3732,1.3732,1.3732,1.3727,1.3823,1.3727,1.3636,1.3642,1.3642,1.3539,1.3539,1.3539,1.3346,1.3244,1.3147,1.2953,1.2856,1.2759,1.2759,1.2759,1.2662,1.2662,1.2759,1.2759,1.2662,1.2565,1.2565,1.2559,1.2662,1.2759,1.2759,1.2856,1.3152,1.3055,1.2856,1.2856,1.2856,1.2856,1.2861,1.2856,1.2856,1.2856,1.2861,1.2861,1.334,1.3908,1.4004,1.4051,1.4201,1.4455,1.4352,1.4298,1.4383,1.4395,1.4298,1.4298,1.4328,1.4503,1.4727,1.4859,1.5038,1.5226,1.5326,1.5405,0.8936,0.8875,0.8488,0.8488,0.864,0.8652,0.8572,0.8572,0.8572,0.8572,0.8656,0.8652,0.866,0.8601,0.8794,0.9311,0.9965,1.0729,1.1362,1.1956,1.2549,1.2764,1.2759,1.2759,1.2759,1.2759,1.2759,1.2759,1.2759,1.2759,1.2759,1.2759,1.2759,1.2759,1.2759,1.2759,1.2759,1.2759,1.2759,1.2759,1.2764,1.2861,1.2861,1.2856,1.305,1.3244,1.3539,1.3732,1.3835,1.3925,1.3823,1.3919,1.4016,1.4016,1.4112,1.4112,1.4016,1.3925,1.3931,1.3829,1.3732,1.363,1.3636,1.3534,1.3437,1.334,1.3244,1.3147,1.2953,1.2856,1.2856,1.2764,1.2764,1.2759,1.2759,1.2759,1.2759,1.2759,1.2759,1.2759,1.2759,1.2759,1.2953,1.3249,1.326,1.3066,1.2964,1.2861,1.2856,1.2958,1.2958,1.305,1.305,1.2958,1.2861,1.3574,1.4256,1.4527,1.46,1.4606,1.4594,1.4515,1.4503,1.4588,1.4558,1.4431,1.4383,1.4407,1.4606,1.4871,1.4791,1.491,1.5407,1.5438,1.57,0.8501,0.8728,0.8455,0.8652,0.9074,0.874,0.8572,0.8572,0.8656,0.8572,0.8744,0.9012,0.9067,0.8771,0.9221,0.9775,1.0345,1.107,1.1517,1.2042,1.2565,1.2764,1.2759,1.2759,1.2759,1.2759,1.2759,1.2759,1.2759,1.2759,1.2759,1.2759,1.2759,1.2759,1.2759,1.2759,1.2856,1.2856,1.2861,1.2861,1.2953,1.2953,1.2958,1.3055,1.3249,1.3346,1.3545,1.3738,1.4022,1.4112,1.4106,1.4202,1.4202,1.4202,1.4298,1.4298,1.4202,1.4208,1.4112,1.4112,1.4016,1.4016,1.4016,1.3919,1.3823,1.3732,1.3636,1.3443,1.3249,1.305,1.2953,1.2861,1.2861,1.2764,1.2759,1.2759,1.2759,1.2759,1.2759,1.2759,1.2759,1.2856,1.305,1.3272,1.3522,1.3333,1.3258,1.3252,1.3084,1.3035,1.3094,1.3197,1.3305,1.305,1.2958,1.3837,1.4485,1.4887,1.514,1.4923,1.4781,1.4696,1.4708,1.4847,1.4733,1.4576,1.4539,1.4521,1.4799,1.4945,1.4537,1.4647,1.5178,1.5579,1.578]}]]